[[{"header":{"parameterUnit":"m.s-1","parameterCategory":1,"la1":31.0,"la2":29.5877,"lo1":-88.7671,"lo2":-86.6584,"dx":0.0162,"dy":0.0185,"nx":115,"ny":88,"refTime":"2022-11-09T18:00:00:Z","depth":0,"parameterNumber":2,"parameterNumberName":"U-component_of_WINDS"},"data":[0.0,0.0,0.0,0.0,0.0,0.0,0.0,0.0,0.0,0.0,0.0,0.0,0.0,0.0,0.0,0.0,0.0,0.0,0.0,0.0,0.0,0.0,0.0,0.0,0.0,0.0,0.0,0.0,0.0,0.0,0.0,0.0,0.0,0.0,0.0,0.0,0.0,0.0,0.0,0.0,0.0,0.0,0.0,0.0,0.0,0.0,0.0,0.0,0.0,0.0,0.0,0.0,0.0,0.0,0.0,0.0,0.0,0.0,0.0,0.0,0.0,0.0,0.0,0.0,0.0,0.0,0.0,0.0,0.0,0.0,0.0,0.0,0.0,0.0,0.0,0.0,0.0,0.0,0.0,0.0,0.0,0.0,0.0,0.0,0.0,0.0,0.0,0.0,0.0,0.0,0.0,0.0,0.0,0.0,0.0,0.0,0.0,0.0,0.0,0.0,0.0,0.0,0.0,0.0,0.0,0.0,0.0,0.0,0.0,0.0,0.0,0.0,0.0,0.0,0.0,0.0,0.0,0.0,0.0,0.0,0.0,0.0,0.0,0.0,0.0,0.0,0.0,0.0,0.0,0.0,0.0,0.0,0.0,0.0,0.0,0.0,0.0,0.0,0.0,0.0,0.0,0.0,0.0,0.0,0.0,0.0,0.0,0.0,0.0,0.0,0.0,0.0,0.0,0.0,0.0,0.0,0.0,0.0,0.0,0.0,0.0,0.0,0.0,0.0,0.0,0.0,0.0,0.0,0.0,0.0,0.0,0.0,0.0,0.0,0.0,0.0,0.0,0.0,0.0,0.0,0.0,0.0,0.0,0.0,0.0,0.0,0.0,0.0,0.0,0.0,0.0,0.0,0.0,0.0,0.0,0.0,0.0,0.0,0.0,0.0,0.0,0.0,0.0,0.0,0.0,0.0,0.0,0.0,0.0,0.0,0.0,0.0,0.0,0.0,0.0,0.0,0.0,0.0,0.0,0.0,0.0,0.0,0.0,0.0,0.0,0.0,0.0,0.0,0.0,0.0,0.0,0.0,0.0,0.0,0.0,0.0,0.0,0.0,0.0,0.0,0.0,0.0,0.0,0.0,0.0,0.0,0.0,0.0,0.0,0.0,0.0,0.0,0.0,0.0,0.0,0.0,0.0,0.0,0.0,0.0,0.0,0.0,0.0,0.0,0.0,0.0,0.0,0.0,0.0,0.0,0.0,0.0,0.0,0.0,0.0,0.0,0.0,0.0,0.0,0.0,0.0,0.0,0.0,0.0,0.0,0.0,0.0,0.0,0.0,0.0,0.0,0.0,0.0,0.0,0.0,0.0,0.0,0.0,0.0,0.0,0.0,0.0,0.0,0.0,0.0,0.0,0.0,0.0,0.0,0.0,0.0,0.0,0.0,0.0,0.0,0.0,0.0,0.0,0.0,0.0,0.0,0.0,0.0,0.0,0.0,0.0,0.0,0.0,0.0,0.0,0.0,0.0,0.0,0.0,0.0,0.0,0.0,0.0,0.0,0.0,0.0,0.0,0.0,0.0,0.0,0.0,0.0,0.0,0.0,0.0,0.0,0.0,0.0,0.0,0.0,0.0,0.0,0.0,0.0,0.0,0.0,0.0,0.0,0.0,0.0,0.0,0.0,0.0,0.0,0.0,0.0,0.0,0.0,0.0,0.0,0.0,0.0,0.0,0.0,0.0,0.0,0.0,0.0,0.0,0.0,0.0,0.0,0.0,0.0,0.0,0.0,0.0,0.0,0.0,0.0,0.0,0.0,0.0,0.0,0.0,0.0,0.0,0.0,0.0,0.0,0.0,0.0,0.0,0.0,0.0,0.0,0.0,0.0,0.0,0.0,0.0,0.0,0.0,0.0,0.0,0.0,0.0,0.0,0.0,0.0,0.0,0.0,0.0,0.0,0.0,0.0,0.0,0.0,0.0,0.0,0.0,0.0,0.0,0.0,0.0,0.0,0.0,0.0,0.0,0.0,0.0,0.0,0.0,0.0,0.0,0.0,0.0,0.0,0.0,0.0,0.0,0.0,0.0,0.0,0.0,0.0,0.0,0.0,0.0,0.0,0.0,0.0,0.0,0.0,0.0,0.0,0.0,0.0,0.0,0.0,0.0,0.0,0.0,0.0,0.0,0.0,0.0,0.0,0.0,0.0,0.0,0.0,0.0,0.0,0.0,0.0,0.0,0.0,0.0,0.0,0.0,0.0,0.0,0.0,0.0,0.0,0.0,0.0,0.0,0.0,0.0,0.0,0.0,0.0,0.0,0.0,0.0,0.0,0.0,0.0,0.0,0.0,0.0,0.0,0.0,0.0,0.0,0.0,0.0,0.0,0.0,0.0,0.0,0.0,0.0,0.0,0.0,0.0,0.0,0.0,0.0,0.0,0.0,0.0,0.0,0.0,0.0,0.0,0.0,0.0,0.0,0.0,0.0,0.0,0.0,0.0,0.0,0.0,0.0,0.0,0.0,0.0,0.0,0.0,0.0,0.0,0.0,0.0,0.0,0.0,0.0,0.0,0.0,0.0,0.0,0.0,0.0,0.0,0.0,0.0,0.0,0.0,0.0,0.0,0.0,0.0,0.0,0.0,0.0,0.0,0.0,0.0,0.0,0.0,0.0,0.0,0.0,0.0,0.0,0.0,0.0,0.0,0.0,0.0,0.0,0.0,0.0,0.0,0.0,0.0,0.0,0.0,0.0,0.0,0.0,0.0,0.0,0.0,0.0,0.0,0.0,0.0,0.0,0.0,0.0,0.0,0.0,0.0,0.0,0.0,0.0,0.0,0.0,0.0,0.0,0.0,0.0,0.0,0.0,0.0,0.0,0.0,0.0,0.0,0.0,0.0,0.0,0.0,0.0,0.0,0.0,0.0,0.0,0.0,0.0,0.0,0.0,0.0,0.0,0.0,0.0,0.0,0.0,0.0,0.0,0.0,0.0,0.0,0.0,0.0,0.0,0.0,0.0,0.0,0.0,0.0,0.0,0.0,0.0,0.0,0.0,0.0,0.0,0.0,0.0,0.0,0.0,0.0,0.0,0.0,0.0,0.0,0.0,0.0,0.0,0.0,0.0,0.0,0.0,0.0,0.0,0.0,0.0,0.0,0.0,0.0,0.0,0.0,0.0,0.0,0.0,0.0,0.0,0.0,0.0,0.0,0.0,0.0,0.0,0.0,0.0,0.0,0.0,0.0,0.0,0.0,0.0,0.0,0.0,0.0,0.0,0.0,0.0,0.0,0.0,0.0,0.0,0.0,0.0,0.0,0.0,0.0,0.0,0.0,0.0,0.0,0.0,0.0,0.0,0.0,0.0,0.0,0.0,0.0,0.0,0.0,0.0,0.0,0.0,0.0,0.0,0.0,0.0,0.0,0.0,0.0,0.0,0.0,0.0,0.0,0.0,0.0,0.0,0.0,0.0,0.0,0.0,0.0,0.0,0.0,0.0,0.0,0.0,0.0,0.0,0.0,0.0,0.0,0.0,0.0,0.0,0.0,0.0,0.0,0.0,0.0,0.0,0.0,0.0,0.0,0.0,0.0,0.0,0.0,0.0,0.0,0.0,0.0,0.0,0.0,0.0,0.0,0.0,0.0,0.0,0.0,0.0,0.0,0.0,0.0,0.0,0.0,0.0,0.0,0.0,0.0,0.0,0.0,0.0,0.0,0.0,0.0,0.0,0.0,0.0,0.0,0.0,0.0,0.0,0.0,0.0,0.0,0.0,0.0,0.0,0.0,0.0,0.0,0.0,0.0,0.0,0.0,0.0,0.0,0.0,0.0,0.0,0.0,0.0,0.0,0.0,0.0,0.0,0.0,0.0,0.0,0.0,0.0,0.0,0.0,0.0,0.0,0.0,0.0,0.0,0.0,0.0,0.0,0.0,0.0,0.0,0.0,0.0,0.0,0.0,0.0,0.0,0.0,0.0,0.0,0.0,0.0,0.0,0.0,0.0,0.0,0.0,0.0,0.0,0.0,0.0,0.0,0.0,0.0,0.0,0.0,0.0,0.0,0.0,0.0,0.0,0.0,0.0,0.0,0.0,0.0,0.0,0.0,0.0,0.0,0.0,0.0,0.0,0.0,0.0,0.0,0.0,0.0,0.0,0.0,0.0,0.0,0.0,0.0,0.0,0.0,0.0,0.0,0.0,0.0,0.0,0.0,0.0,0.0,0.0,0.0,0.0,0.0,0.0,0.0,0.0,0.0,0.0,0.0,0.0,0.0,0.0,0.0,0.0,0.0,0.0,0.0,0.0,0.0,0.0,0.0,0.0,1.9549,0.0,0.0,0.0,2.0389,0.0,0.0,0.0,0.0,0.0,0.0,0.0,0.0,0.0,0.0,0.0,0.0,0.0,0.0,0.0,0.0,0.0,0.0,0.0,0.0,0.0,0.0,0.0,0.0,0.0,0.0,0.0,0.0,0.0,0.0,0.0,0.0,0.0,0.0,0.0,0.0,0.0,0.0,0.0,0.0,0.0,0.0,0.0,0.0,0.0,0.0,0.0,0.0,0.0,0.0,0.0,0.0,0.0,0.0,0.0,0.0,0.0,0.0,0.0,0.0,0.0,0.0,0.0,0.0,0.0,0.0,0.0,0.0,0.0,0.0,0.0,0.0,0.0,0.0,0.0,0.0,0.0,0.0,0.0,0.0,0.0,0.0,0.0,0.0,0.0,0.0,0.0,0.0,0.0,0.0,0.0,0.0,0.0,0.0,0.0,0.0,0.0,0.0,0.0,0.0,0.0,0.0,0.0,0.0,0.0,0.0,0.0,0.0,0.0,0.0,1.9708,1.9708,1.9645,1.9805,2.0065,0.0,0.0,0.0,0.0,0.0,0.0,0.0,0.0,0.0,0.0,0.0,0.0,0.0,0.0,0.0,0.0,0.0,0.0,0.0,0.0,0.0,0.0,0.0,0.0,0.0,0.0,0.0,0.0,0.0,0.0,0.0,0.0,0.0,0.0,0.0,0.0,0.0,0.0,0.0,0.0,0.0,0.0,0.0,0.0,0.0,0.0,0.0,0.0,0.0,0.0,0.0,0.0,0.0,0.0,0.0,0.0,0.0,0.0,0.0,0.0,0.0,0.0,0.0,0.0,0.0,0.0,0.0,0.0,0.0,0.0,0.0,0.0,0.0,0.0,0.0,0.0,0.0,0.0,0.0,0.0,0.0,0.0,0.0,0.0,0.0,0.0,0.0,0.0,0.0,0.0,0.0,0.0,0.0,0.0,0.0,0.0,0.0,0.0,0.0,0.0,0.0,0.0,0.0,0.0,0.0,0.0,0.0,0.0,0.0,0.0,0.0,0.0,1.9977,1.9912,1.972,0.0,0.0,0.0,0.0,0.0,0.0,0.0,0.0,0.0,0.0,0.0,0.0,0.0,0.0,0.0,0.0,0.0,0.0,0.0,0.0,0.0,0.0,0.0,0.0,0.0,0.0,0.0,0.0,0.0,0.0,0.0,0.0,0.0,0.0,0.0,0.0,0.0,0.0,0.0,0.0,0.0,0.0,0.0,0.0,0.0,0.0,0.0,0.0,0.0,0.0,0.0,0.0,0.0,0.0,0.0,0.0,0.0,0.0,0.0,0.0,0.0,0.0,0.0,0.0,0.0,0.0,0.0,0.0,0.0,0.0,0.0,0.0,0.0,0.0,0.0,0.0,0.0,0.0,0.0,0.0,0.0,0.0,0.0,0.0,0.0,0.0,0.0,0.0,0.0,0.0,0.0,0.0,0.0,0.0,0.0,0.0,0.0,0.0,0.0,0.0,0.0,0.0,0.0,0.0,0.0,0.0,0.0,0.0,0.0,0.0,2.0551,2.0446,2.1001,0.0,2.0079,0.0,0.0,0.0,0.0,0.0,0.0,0.0,0.0,0.0,0.0,0.0,0.0,0.0,0.0,0.0,0.0,0.0,0.0,0.0,0.0,0.0,0.0,0.0,0.0,0.0,0.0,0.0,0.0,0.0,0.0,0.0,0.0,0.0,0.0,0.0,0.0,0.0,0.0,0.0,0.0,0.0,0.0,0.0,0.0,0.0,0.0,0.0,0.0,0.0,0.0,0.0,0.0,0.0,0.0,0.0,0.0,0.0,0.0,0.0,0.0,0.0,0.0,0.0,0.0,0.0,0.0,0.0,0.0,0.0,0.0,0.0,0.0,0.0,0.0,0.0,0.0,0.0,0.0,0.0,0.0,0.0,0.0,0.0,0.0,0.0,0.0,0.0,0.0,0.0,0.0,0.0,0.0,0.0,0.0,0.0,0.0,0.0,0.0,0.0,0.0,0.0,0.0,0.0,0.0,0.0,0.0,0.0,0.0,0.0,0.0,2.103,2.0971,2.1054,2.0676,0.0,0.0,0.0,0.0,0.0,0.0,0.0,0.0,0.0,0.0,0.0,0.0,0.0,0.0,0.0,0.0,0.0,0.0,0.0,0.0,0.0,0.0,0.0,0.0,0.0,0.0,0.0,0.0,0.0,0.0,0.0,0.0,0.0,0.0,0.0,0.0,0.0,0.0,0.0,0.0,0.0,0.0,0.0,0.0,0.0,0.0,0.0,0.0,0.0,0.0,0.0,0.0,0.0,0.0,0.0,0.0,0.0,0.0,0.0,0.0,0.0,0.0,0.0,0.0,0.0,0.0,0.0,0.0,0.0,0.0,0.0,0.0,0.0,0.0,0.0,0.0,0.0,0.0,0.0,0.0,0.0,0.0,0.0,0.0,0.0,0.0,0.0,0.0,0.0,0.0,0.0,0.0,0.0,0.0,0.0,0.0,0.0,0.0,0.0,0.0,0.0,0.0,0.0,0.0,0.0,0.0,0.0,0.0,0.0,0.0,2.1153,2.1524,2.1647,2.1197,2.0635,1.9971,0.0,0.0,0.0,0.0,0.0,0.0,0.0,0.0,0.0,0.0,0.0,0.0,0.0,0.0,0.0,0.0,0.0,0.0,0.0,0.0,0.0,0.0,0.0,0.0,0.0,0.0,0.0,0.0,0.0,0.0,0.0,0.0,0.0,0.0,0.0,0.0,0.0,0.0,0.0,0.0,0.0,0.0,0.0,0.0,0.0,0.0,0.0,0.0,0.0,0.0,0.0,0.0,0.0,0.0,0.0,0.0,0.0,0.0,0.0,0.0,0.0,0.0,0.0,0.0,0.0,0.0,0.0,0.0,0.0,0.0,0.0,0.0,0.0,0.0,0.0,0.0,0.0,0.0,0.0,0.0,0.0,0.0,0.0,0.0,0.0,0.0,0.0,0.0,0.0,0.0,0.0,0.0,0.0,0.0,0.0,0.0,0.0,0.0,0.0,0.0,0.0,0.0,0.0,0.0,0.0,0.0,0.0,0.0,2.0781,2.1473,2.2102,2.2573,2.1761,2.1136,0.0,0.0,0.0,0.0,0.0,0.0,0.0,0.0,0.0,0.0,0.0,0.0,0.0,0.0,0.0,0.0,0.0,0.0,0.0,0.0,0.0,0.0,0.0,0.0,0.0,0.0,0.0,0.0,0.0,0.0,0.0,0.0,0.0,0.0,0.0,0.0,0.0,0.0,0.0,0.0,0.0,0.0,0.0,0.0,0.0,0.0,0.0,0.0,0.0,0.0,0.0,0.0,0.0,0.0,0.0,0.0,0.0,0.0,0.0,0.0,0.0,0.0,0.0,0.0,0.0,0.0,0.0,0.0,0.0,0.0,0.0,0.0,0.0,0.0,0.0,0.0,0.0,0.0,0.0,0.0,0.0,0.0,0.0,0.0,0.0,0.0,0.0,0.0,0.0,0.0,0.0,0.0,0.0,0.0,0.0,0.0,0.0,0.0,0.0,0.0,0.0,0.0,0.0,0.0,0.0,0.0,0.0,0.0,0.0,2.1192,2.1861,2.2267,2.2351,2.1795,2.1215,0.0,0.0,0.0,0.0,0.0,0.0,0.0,0.0,0.0,0.0,0.0,0.0,0.0,0.0,0.0,0.0,0.0,0.0,0.0,0.0,0.0,0.0,0.0,0.0,0.0,0.0,0.0,0.0,0.0,0.0,0.0,0.0,0.0,0.0,0.0,0.0,0.0,0.0,0.0,0.0,0.0,0.0,0.0,0.0,0.0,0.0,0.0,0.0,0.0,0.0,0.0,0.0,0.0,0.0,0.0,0.0,0.0,0.0,0.0,0.0,0.0,0.0,0.0,0.0,0.0,0.0,0.0,0.0,0.0,0.0,0.0,0.0,0.0,0.0,0.0,0.0,0.0,0.0,0.0,0.0,0.0,0.0,0.0,0.0,0.0,0.0,0.0,0.0,0.0,0.0,0.0,0.0,0.0,0.0,0.0,0.0,0.0,0.0,0.0,0.0,0.0,0.0,0.0,0.0,0.0,0.0,0.0,0.0,0.0,2.2112,2.2568,2.2728,2.2583,2.2291,2.1723,0.0,0.0,0.0,0.0,0.0,0.0,0.0,0.0,0.0,0.0,0.0,0.0,0.0,0.0,0.0,0.0,0.0,0.0,0.0,0.0,0.0,0.0,0.0,0.0,0.0,0.0,0.0,0.0,0.0,0.0,0.0,0.0,0.0,0.0,0.0,0.0,0.0,0.0,0.0,0.0,0.0,0.0,0.0,0.0,0.0,0.0,0.0,0.0,0.0,0.0,0.0,0.0,0.0,0.0,0.0,0.0,0.0,0.0,0.0,0.0,0.0,0.0,0.0,0.0,0.0,0.0,0.0,0.0,0.0,0.0,0.0,0.0,0.0,0.0,0.0,0.0,0.0,0.0,0.0,0.0,0.0,0.0,0.0,0.0,0.0,0.0,0.0,0.0,0.0,0.0,0.0,0.0,0.0,0.0,0.0,0.0,0.0,0.0,0.0,0.0,0.0,0.0,0.0,0.0,0.0,0.0,0.0,0.0,2.2284,2.3484,2.3592,2.3555,2.3425,2.3254,2.2695,0.0,0.0,0.0,0.0,0.0,0.0,0.0,0.0,0.0,0.0,0.0,0.0,0.0,0.0,0.0,0.0,0.0,0.0,0.0,0.0,0.0,0.0,0.0,0.0,0.0,0.0,0.0,0.0,0.0,0.0,0.0,0.0,0.0,0.0,0.0,0.0,0.0,0.0,0.0,0.0,0.0,0.0,0.0,0.0,0.0,0.0,0.0,0.0,0.0,0.0,0.0,0.0,0.0,0.0,0.0,0.0,0.0,0.0,0.0,0.0,0.0,0.0,0.0,0.0,0.0,0.0,0.0,0.0,0.0,0.0,0.0,0.0,0.0,0.0,0.0,0.0,0.0,0.0,0.0,0.0,0.0,0.0,0.0,0.0,0.0,0.0,0.0,0.0,0.0,0.0,0.0,0.0,0.0,0.0,0.0,0.0,0.0,0.0,0.0,0.0,0.0,0.0,0.0,0.0,0.0,0.0,0.0,0.0,0.0,2.3744,2.4136,2.4351,2.4282,2.3576,2.2879,0.0,0.0,0.0,0.0,0.0,0.0,0.0,0.0,0.0,0.0,0.0,0.0,0.0,0.0,0.0,0.0,0.0,0.0,0.0,0.0,0.0,0.0,0.0,0.0,0.0,0.0,0.0,0.0,0.0,0.0,0.0,0.0,0.0,0.0,0.0,0.0,0.0,0.0,0.0,0.0,0.0,0.0,0.0,0.0,0.0,0.0,0.0,0.0,0.0,0.0,0.0,0.0,0.0,0.0,0.0,0.0,0.0,0.0,0.0,0.0,0.0,0.0,0.0,0.0,0.0,0.0,0.0,0.0,0.0,0.0,0.0,0.0,0.0,0.0,0.0,0.0,0.0,0.0,0.0,0.0,0.0,0.0,0.0,0.0,0.0,0.0,0.0,0.0,0.0,0.0,0.0,0.0,0.0,0.0,0.0,0.0,0.0,0.0,0.0,0.0,0.0,0.0,0.0,0.0,0.0,0.0,0.0,0.0,0.0,2.5897,2.5968,2.5972,2.5926,2.5145,2.4183,2.3097,0.0,0.0,0.0,0.0,0.0,0.0,0.0,0.0,0.0,0.0,0.0,0.0,0.0,0.0,0.0,0.0,0.0,0.0,0.0,0.0,0.0,0.0,0.0,0.0,0.0,0.0,0.0,0.0,0.0,0.0,0.0,0.0,0.0,0.0,0.0,0.0,0.0,0.0,0.0,0.0,0.0,0.0,0.0,0.0,0.0,0.0,0.0,0.0,0.0,0.0,0.0,0.0,0.0,0.0,0.0,0.0,0.0,0.0,0.0,0.0,0.0,0.0,0.0,0.0,0.0,0.0,0.0,0.0,0.0,0.0,0.0,0.0,0.0,0.0,0.0,0.0,0.0,0.0,0.0,0.0,0.0,0.0,0.0,0.0,0.0,0.0,0.0,0.0,0.0,0.0,0.0,0.0,0.0,0.0,0.0,0.0,0.0,0.0,0.0,0.0,0.0,0.0,0.0,0.0,0.0,0.0,0.0,0.0,2.9546,2.889,2.8411,2.8151,2.7601,2.6352,0.0,0.0,0.0,0.0,0.0,0.0,0.0,0.0,0.0,0.0,0.0,0.0,0.0,0.0,0.0,0.0,0.0,0.0,0.0,0.0,0.0,0.0,0.0,0.0,0.0,0.0,0.0,0.0,0.0,0.0,0.0,0.0,0.0,0.0,0.0,0.0,0.0,0.0,0.0,0.0,0.0,0.0,0.0,0.0,0.0,0.0,0.0,0.0,0.0,0.0,0.0,0.0,0.0,0.0,0.0,0.0,0.0,0.0,0.0,0.0,0.0,0.0,0.0,0.0,0.0,0.0,0.0,0.0,0.0,0.0,0.0,0.0,0.0,0.0,0.0,0.0,0.0,0.0,0.0,0.0,0.0,0.0,0.0,0.0,0.0,0.0,0.0,0.0,0.0,0.0,0.0,0.0,0.0,0.0,0.0,0.0,0.0,0.0,0.0,0.0,0.0,0.0,0.0,0.0,0.0,0.0,0.0,0.0,0.0,3.1407,3.2095,3.1732,3.0337,2.924,2.7664,0.0,0.0,0.0,0.0,0.0,0.0,0.0,0.0,0.0,0.0,0.0,0.0,0.0,0.0,0.0,0.0,0.0,0.0,0.0,0.0,0.0,0.0,0.0,0.0,0.0,0.0,0.0,0.0,0.0,0.0,0.0,0.0,0.0,0.0,0.0,0.0,0.0,0.0,0.0,0.0,0.0,0.0,0.0,0.0,0.0,0.0,0.0,0.0,0.0,0.0,0.0,0.0,0.0,0.0,0.0,0.0,0.0,0.0,0.0,0.0,0.0,0.0,0.0,0.0,0.0,0.0,0.0,0.0,0.0,0.0,0.0,0.0,0.0,0.0,0.0,0.0,0.0,0.0,0.0,0.0,0.0,0.0,0.0,0.0,0.0,0.0,0.0,0.0,0.0,0.0,0.0,0.0,0.0,0.0,0.0,0.0,0.0,0.0,0.0,0.0,0.0,0.0,0.0,0.0,0.0,0.0,0.0,0.0,3.126,3.2893,3.4,3.406,3.2967,3.1109,2.9195,0.0,0.0,0.0,0.0,0.0,0.0,0.0,0.0,0.0,0.0,0.0,0.0,0.0,0.0,0.0,0.0,0.0,0.0,0.0,0.0,0.0,0.0,0.0,0.0,0.0,0.0,0.0,0.0,0.0,0.0,0.0,0.0,0.0,0.0,0.0,0.0,0.0,0.0,0.0,0.0,0.0,0.0,0.0,0.0,0.0,0.0,0.0,0.0,0.0,0.0,0.0,0.0,0.0,0.0,0.0,0.0,0.0,0.0,0.0,0.0,0.0,0.0,0.0,0.0,0.0,0.0,0.0,0.0,0.0,0.0,0.0,0.0,0.0,0.0,0.0,0.0,0.0,0.0,0.0,0.0,0.0,0.0,0.0,0.0,0.0,0.0,0.0,0.0,0.0,0.0,0.0,0.0,0.0,0.0,0.0,0.0,0.0,0.0,0.0,0.0,0.0,0.0,0.0,0.0,0.0,0.0,0.0,0.0,3.2491,3.4198,3.518,3.5683,3.5606,3.3068,3.0859,0.0,0.0,0.0,0.0,0.0,0.0,0.0,0.0,0.0,0.0,0.0,0.0,0.0,0.0,0.0,0.0,0.0,0.0,0.0,0.0,0.0,0.0,0.0,0.0,0.0,0.0,0.0,0.0,0.0,0.0,0.0,0.0,0.0,0.0,0.0,0.0,0.0,0.0,0.0,0.0,0.0,0.0,0.0,0.0,0.0,0.0,0.0,0.0,0.0,0.0,0.0,0.0,0.0,0.0,0.0,0.0,0.0,0.0,0.0,0.0,0.0,0.0,0.0,0.0,0.0,0.0,0.0,0.0,0.0,0.0,0.0,0.0,0.0,0.0,0.0,0.0,0.0,0.0,0.0,0.0,0.0,0.0,0.0,0.0,0.0,0.0,0.0,0.0,0.0,0.0,0.0,0.0,0.0,0.0,0.0,0.0,0.0,0.0,0.0,0.0,0.0,0.0,0.0,0.0,0.0,0.0,0.0,0.0,3.4374,3.6457,3.6709,3.6835,3.6835,3.4575,3.239,0.0,0.0,0.0,0.0,0.0,0.0,0.0,0.0,0.0,0.0,0.0,0.0,0.0,0.0,0.0,0.0,0.0,0.0,0.0,0.0,0.0,0.0,0.0,0.0,0.0,0.0,0.0,0.0,0.0,0.0,0.0,0.0,0.0,0.0,0.0,0.0,0.0,0.0,0.0,0.0,0.0,0.0,0.0,0.0,0.0,0.0,0.0,0.0,2.6419,0.0,0.0,0.0,0.0,0.0,0.0,0.0,0.0,0.0,0.0,0.0,0.0,0.0,0.0,0.0,0.0,0.0,0.0,0.0,0.0,0.0,0.0,0.0,0.0,0.0,0.0,0.0,0.0,0.0,0.0,0.0,0.0,0.0,0.0,0.0,0.0,0.0,0.0,0.0,0.0,0.0,0.0,0.0,0.0,0.0,0.0,0.0,0.0,0.0,0.0,0.0,0.0,0.0,0.0,0.0,0.0,0.0,0.0,0.0,3.5228,3.7135,3.7437,3.7437,3.7185,3.6056,3.4148,0.0,0.0,0.0,0.0,0.0,0.0,0.0,0.0,0.0,0.0,0.0,0.0,0.0,0.0,0.0,0.0,0.0,0.0,0.0,0.0,0.0,0.0,0.0,0.0,0.0,0.0,0.0,0.0,0.0,0.0,0.0,0.0,0.0,0.0,0.0,0.0,0.0,0.0,0.0,0.0,0.0,0.0,0.0,0.0,0.0,0.0,0.0,0.0,0.0,0.0,0.0,0.0,0.0,0.0,0.0,0.0,0.0,0.0,0.0,0.0,0.0,0.0,0.0,0.0,0.0,0.0,0.0,0.0,0.0,0.0,0.0,0.0,0.0,0.0,0.0,0.0,0.0,0.0,0.0,0.0,0.0,0.0,0.0,0.0,0.0,0.0,0.0,0.0,0.0,0.0,0.0,0.0,0.0,0.0,0.0,0.0,0.0,0.0,0.0,0.0,0.0,0.0,0.0,0.0,0.0,0.0,0.0,3.4201,3.5855,3.7613,3.799,3.7939,3.7487,3.7462,3.583,3.2491,0.0,0.0,0.0,0.0,0.0,0.0,0.0,0.0,0.0,0.0,0.0,0.0,0.0,0.0,0.0,0.0,0.0,0.0,0.0,0.0,0.0,0.0,0.0,0.0,0.0,0.0,0.0,0.0,0.0,0.0,0.0,0.0,0.0,0.0,0.0,0.0,0.0,0.0,2.2708,2.4798,0.0,0.0,0.0,0.0,0.0,0.0,0.0,0.0,2.9042,0.0,0.0,0.0,0.0,0.0,0.0,0.0,0.0,0.0,0.0,0.0,0.0,0.0,0.0,0.0,0.0,0.0,0.0,0.0,0.0,0.0,0.0,0.0,0.0,0.0,0.0,0.0,0.0,0.0,0.0,0.0,0.0,0.0,0.0,0.0,0.0,0.0,0.0,0.0,0.0,0.0,0.0,0.0,0.0,0.0,0.0,0.0,0.0,0.0,0.0,0.0,0.0,0.0,0.0,0.0,0.0,3.4906,3.573,3.7361,3.9873,3.9145,3.8718,3.8617,3.8617,3.6833,3.3144,0.0,0.0,0.0,0.0,0.0,0.0,0.0,0.0,0.0,0.0,0.0,0.0,0.0,0.0,0.0,0.0,0.0,0.0,0.0,0.0,0.0,0.0,0.0,0.0,0.0,0.0,0.0,0.0,0.0,0.0,0.0,0.0,0.0,0.0,0.0,0.0,0.0,0.0,0.0,2.6815,2.8443,0.0,0.0,0.0,0.0,0.0,0.0,0.0,0.0,2.9899,0.0,0.0,0.0,0.0,0.0,0.0,0.0,0.0,0.0,0.0,0.0,0.0,0.0,0.0,0.0,0.0,0.0,0.0,0.0,0.0,0.0,0.0,0.0,0.0,0.0,0.0,0.0,0.0,0.0,0.0,0.0,0.0,0.0,0.0,0.0,0.0,0.0,0.0,0.0,0.0,0.0,0.0,0.0,0.0,0.0,0.0,0.0,0.0,0.0,0.0,0.0,0.0,0.0,0.0,0.0,3.583,3.711,3.8743,4.08,4.0425,3.9873,3.9346,3.9295,3.7637,0.0,0.0,0.0,0.0,0.0,0.0,0.0,0.0,0.0,0.0,0.0,0.0,0.0,0.0,0.0,0.0,0.0,0.0,0.0,0.0,0.0,0.0,0.0,0.0,0.0,0.0,0.0,0.0,0.0,0.0,0.0,0.0,0.0,0.0,0.0,0.0,0.0,0.0,0.0,0.0,2.8717,3.0168,3.1079,0.0,0.0,0.0,0.0,0.0,0.0,3.1593,3.1137,0.0,0.0,0.0,0.0,0.0,0.0,0.0,0.0,0.0,0.0,0.0,0.0,0.0,0.0,0.0,0.0,0.0,0.0,0.0,0.0,0.0,0.0,0.0,0.0,0.0,0.0,0.0,0.0,0.0,0.0,0.0,0.0,0.0,0.0,0.0,0.0,0.0,0.0,0.0,0.0,0.0,0.0,0.0,0.0,0.0,0.0,0.0,0.0,0.0,0.0,0.0,0.0,0.0,0.0,0.0,3.6658,3.8266,3.9898,4.1528,4.1428,4.0901,4.0049,3.9697,3.8015,0.0,0.0,0.0,0.0,0.0,0.0,0.0,0.0,0.0,0.0,0.0,0.0,0.0,0.0,0.0,0.0,0.0,0.0,0.0,0.0,0.0,0.0,0.0,0.0,0.0,0.0,0.0,0.0,0.0,0.0,0.0,0.0,0.0,0.0,0.0,0.0,0.0,0.0,0.0,0.0,0.0,3.1649,3.3346,3.2868,0.0,0.0,0.0,0.0,3.2557,3.2705,0.0,0.0,0.0,0.0,0.0,0.0,0.0,0.0,0.0,0.0,0.0,0.0,0.0,0.0,0.0,0.0,0.0,0.0,0.0,0.0,0.0,0.0,0.0,0.0,0.0,0.0,0.0,0.0,0.0,0.0,0.0,0.0,0.0,0.0,0.0,0.0,0.0,0.0,0.0,0.0,0.0,0.0,0.0,0.0,0.0,0.0,0.0,0.0,0.0,0.0,0.0,0.0,0.0,0.0,0.0,0.0,3.7713,3.8994,4.0678,4.261,4.1804,4.1252,4.1102,3.9722,3.7638,0.0,0.0,0.0,0.0,0.0,0.0,0.0,0.0,0.0,0.0,0.0,0.0,0.0,0.0,0.0,0.0,0.0,0.0,0.0,0.0,0.0,0.0,0.0,0.0,0.0,0.0,0.0,0.0,0.0,0.0,0.0,0.0,0.0,0.0,0.0,0.0,0.0,0.0,0.0,0.0,0.0,3.2532,3.2955,3.3457,3.37,0.0,0.0,3.4165,3.4581,3.427,0.0,0.0,0.0,0.0,0.0,0.0,0.0,0.0,0.0,0.0,0.0,0.0,0.0,0.0,0.0,0.0,0.0,0.0,0.0,0.0,0.0,0.0,0.0,0.0,0.0,0.0,0.0,0.0,0.0,0.0,0.0,0.0,0.0,0.0,0.0,0.0,0.0,0.0,0.0,0.0,0.0,0.0,0.0,0.0,0.0,0.0,0.0,0.0,0.0,0.0,0.0,0.0,0.0,0.0,0.0,3.6281,3.8919,4.0676,4.2308,4.384,4.341,4.2883,4.2283,4.0978,3.8969,0.0,0.0,0.0,0.0,0.0,0.0,0.0,0.0,0.0,0.0,0.0,0.0,0.0,0.0,0.0,0.0,0.0,0.0,0.0,0.0,0.0,0.0,0.0,0.0,0.0,0.0,0.0,0.0,0.0,0.0,0.0,0.0,0.0,0.0,0.0,0.0,0.0,0.0,0.0,0.0,0.0,0.0,3.3763,3.4405,0.0,0.0,0.0,3.4914,3.4861,0.0,0.0,0.0,0.0,0.0,0.0,0.0,0.0,0.0,0.0,0.0,0.0,0.0,0.0,0.0,0.0,0.0,0.0,0.0,0.0,0.0,0.0,0.0,0.0,0.0,0.0,0.0,0.0,0.0,0.0,0.0,0.0,0.0,0.0,0.0,0.0,0.0,0.0,0.0,0.0,0.0,0.0,0.0,0.0,0.0,0.0,0.0,0.0,0.0,0.0,0.0,0.0,0.0,0.0,0.0,0.0,0.0,4.0074,4.2133,4.3743,4.4794,4.4665,4.4166,4.3215,4.2108,0.0,0.0,0.0,0.0,0.0,0.0,0.0,0.0,0.0,0.0,0.0,0.0,0.0,0.0,0.0,0.0,0.0,0.0,0.0,0.0,0.0,0.0,0.0,0.0,0.0,0.0,0.0,2.3618,0.0,0.0,0.0,0.0,0.0,0.0,0.0,0.0,0.0,0.0,0.0,0.0,0.0,0.0,3.4142,3.4762,3.5355,3.5732,0.0,0.0,3.5581,3.518,3.5456,3.5205,0.0,0.0,0.0,0.0,0.0,0.0,0.0,0.0,0.0,0.0,0.0,0.0,0.0,0.0,0.0,0.0,0.0,0.0,0.0,0.0,0.0,0.0,0.0,0.0,0.0,0.0,0.0,0.0,0.0,0.0,0.0,0.0,0.0,0.0,0.0,0.0,0.0,0.0,0.0,0.0,0.0,0.0,0.0,0.0,0.0,0.0,0.0,0.0,0.0,0.0,0.0,0.0,0.0,0.0,3.8492,4.1152,4.2858,4.4292,4.5372,4.4865,4.4342,4.3765,4.2713,4.108,0.0,0.0,0.0,0.0,0.0,0.0,0.0,0.0,0.0,0.0,0.0,0.0,0.0,0.0,0.0,0.0,0.0,0.0,0.0,0.0,0.0,0.0,0.0,0.0,0.0,0.0,0.0,0.0,0.0,0.0,0.0,0.0,0.0,0.0,0.0,0.0,0.0,0.0,0.0,0.0,0.0,3.4966,3.5714,3.6119,3.6331,0.0,3.6355,3.6306,3.6281,3.6306,3.5954,3.4801,0.0,0.0,0.0,0.0,0.0,0.0,0.0,0.0,0.0,0.0,0.0,0.0,0.0,0.0,0.0,0.0,0.0,0.0,0.0,0.0,0.0,0.0,0.0,0.0,0.0,0.0,0.0,0.0,0.0,0.0,0.0,0.0,0.0,0.0,0.0,0.0,0.0,0.0,0.0,0.0,0.0,0.0,0.0,0.0,0.0,0.0,0.0,0.0,0.0,0.0,0.0,0.0,0.0,3.9949,4.2333,4.3991,4.5372,4.6426,4.5919,4.5397,4.4844,4.4091,4.2811,0.0,0.0,0.0,0.0,0.0,0.0,0.0,0.0,0.0,0.0,0.0,0.0,0.0,0.0,0.0,0.0,0.0,0.0,0.0,0.0,0.0,0.0,0.0,0.0,0.0,0.0,0.0,0.0,2.9704,3.0462,2.9921,0.0,0.0,0.0,0.0,0.0,0.0,0.0,0.0,0.0,0.0,3.5916,3.676,3.7155,0.0,0.0,3.7362,3.7386,3.7387,3.7386,3.701,3.5929,3.5102,0.0,0.0,0.0,0.0,0.0,0.0,0.0,0.0,0.0,0.0,0.0,0.0,0.0,0.0,0.0,0.0,0.0,0.0,0.0,0.0,0.0,0.0,0.0,0.0,0.0,0.0,0.0,0.0,0.0,0.0,0.0,0.0,0.0,0.0,0.0,0.0,0.0,0.0,0.0,0.0,0.0,0.0,0.0,0.0,0.0,0.0,0.0,0.0,0.0,0.0,0.0,0.0,4.1145,4.335,4.4941,4.6175,4.7099,4.6572,4.605,4.5497,4.5095,4.4166,0.0,0.0,0.0,0.0,0.0,0.0,0.0,0.0,0.0,0.0,0.0,0.0,0.0,0.0,0.0,0.0,0.0,0.0,0.0,0.0,0.0,0.0,0.0,0.0,0.0,0.0,0.0,0.0,3.1033,3.1528,3.093,0.0,0.0,0.0,0.0,0.0,0.0,0.0,0.0,0.0,0.0,3.6855,3.778,3.7962,3.799,3.799,3.799,3.799,3.799,3.799,3.7789,3.726,0.0,0.0,0.0,0.0,0.0,0.0,0.0,0.0,0.0,0.0,0.0,0.0,0.0,0.0,0.0,0.0,0.0,0.0,0.0,0.0,0.0,0.0,0.0,0.0,0.0,0.0,0.0,2.652,0.0,0.0,2.6022,0.0,0.0,0.0,0.0,0.0,0.0,0.0,0.0,0.0,0.0,0.0,0.0,0.0,0.0,0.0,0.0,0.0,0.0,0.0,0.0,0.0,0.0,4.1938,4.4128,4.5485,4.6516,4.7068,4.6572,4.6075,4.5577,4.5472,4.4974,4.3765,0.0,0.0,0.0,0.0,0.0,0.0,0.0,0.0,0.0,0.0,0.0,0.0,0.0,0.0,0.0,0.0,0.0,0.0,0.0,0.0,0.0,0.0,0.0,0.0,0.0,0.0,3.0228,3.0952,3.1312,0.0,0.0,0.0,0.0,0.0,0.0,0.0,0.0,0.0,3.6381,3.7143,3.7831,3.8743,3.8391,3.8115,3.8065,3.8065,3.804,3.8065,3.8065,3.8191,0.0,0.0,0.0,0.0,0.0,0.0,0.0,0.0,0.0,0.0,0.0,0.0,0.0,0.0,0.0,0.0,0.0,0.0,0.0,0.0,0.0,0.0,0.0,0.0,0.0,0.0,0.0,3.0179,3.1065,0.0,0.0,0.0,0.0,0.0,0.0,0.0,0.0,0.0,0.0,0.0,3.942,3.9482,0.0,0.0,0.0,0.0,0.0,0.0,0.0,0.0,0.0,0.0,0.0,0.0,4.1011,4.235,4.4494,4.5697,4.5993,4.6898,4.7129,4.6572,4.6577,4.5844,4.4364,0.0,0.0,0.0,0.0,0.0,0.0,0.0,0.0,0.0,0.0,0.0,0.0,0.0,0.0,0.0,0.0,0.0,0.0,0.0,0.0,0.0,0.0,0.0,0.0,0.0,3.1452,0.0,0.0,0.0,0.0,0.0,0.0,0.0,0.0,0.0,0.0,0.0,3.6305,3.7936,3.8642,3.9322,4.035,4.0324,4.0198,0.0,0.0,0.0,0.0,0.0,0.0,0.0,0.0,0.0,0.0,0.0,0.0,0.0,0.0,3.568,3.4377,3.4126,3.4126,3.4126,0.0,0.0,0.0,0.0,0.0,0.0,0.0,0.0,0.0,0.0,0.0,0.0,0.0,0.0,3.4884,3.5625,3.5081,0.0,0.0,0.0,0.0,0.0,0.0,0.0,0.0,4.0376,4.1493,4.2578,4.1893,4.1533,0.0,4.1068,3.8905,0.0,0.0,0.0,0.0,0.0,0.0,0.0,0.0,4.0768,4.1592,4.3346,4.4375,4.4701,4.5533,4.6122,4.6426,4.6891,4.6496,4.5217,4.379,4.221,0.0,0.0,0.0,0.0,0.0,0.0,0.0,0.0,0.0,0.0,0.0,0.0,0.0,0.0,0.0,0.0,0.0,0.0,0.0,0.0,0.0,0.0,0.0,3.4004,0.0,0.0,0.0,0.0,0.0,0.0,0.0,0.0,0.0,3.4505,3.6168,3.8036,3.9547,4.0049,4.0601,4.148,0.0,0.0,0.0,0.0,0.0,0.0,0.0,4.1152,4.0626,4.0701,4.065,4.0299,3.9973,3.9722,3.9722,0.0,0.0,3.7338,3.7112,3.7238,3.7262,3.7112,3.7212,3.7939,3.7965,3.8065,0.0,0.0,0.0,0.0,3.4073,0.0,0.0,0.0,3.8727,3.9354,0.0,3.8656,0.0,0.0,0.0,0.0,3.7988,3.9589,0.0,0.0,4.3866,4.48,4.5285,4.3109,4.2082,4.2005,4.0757,3.9279,3.7761,3.8578,0.0,0.0,0.0,0.0,0.0,0.0,4.1097,4.1724,4.2171,4.2672,4.3185,4.2772,4.341,4.5204,4.6388,4.6781,4.6296,4.5242,4.4166,4.3065,4.0502,0.0,0.0,0.0,0.0,0.0,0.0,0.0,0.0,0.0,0.0,0.0,0.0,0.0,0.0,0.0,0.0,0.0,0.0,0.0,0.0,3.5956,0.0,0.0,0.0,0.0,0.0,0.0,0.0,0.0,0.0,0.0,3.6732,3.7939,3.9521,4.1102,0.0,0.0,0.0,0.0,4.1378,4.1378,4.1378,4.1378,4.1352,4.1352,4.158,4.206,0.0,0.0,4.1378,4.1352,4.1352,4.1378,4.1756,4.1708,4.0124,4.0149,4.045,4.0475,4.0725,4.1227,4.1277,4.0675,4.0575,3.9145,0.0,0.0,0.0,0.0,3.7637,3.8717,4.0414,4.1026,4.1774,4.2599,4.2181,0.0,0.0,0.0,0.0,0.0,0.0,4.0491,4.1559,4.1297,4.1573,4.2335,4.2046,4.2029,4.2315,4.1914,4.0989,3.974,3.9953,3.911,3.7283,0.0,0.0,0.0,0.0,3.9328,3.9473,4.084,4.1689,4.1852,4.3039,4.4287,4.5717,4.5758,4.6106,4.6812,4.6547,4.5693,4.4188,4.3037,0.0,0.0,0.0,0.0,0.0,0.0,0.0,0.0,0.0,0.0,0.0,0.0,0.0,0.0,0.0,0.0,0.0,0.0,0.0,3.6055,3.7562,3.8216,0.0,0.0,0.0,0.0,0.0,0.0,0.0,0.0,0.0,3.9872,3.9973,4.0501,0.0,0.0,4.2135,4.2688,4.261,4.2509,4.2509,4.2509,0.0,4.2009,4.2258,4.2462,4.2238,4.2361,4.2509,4.2509,4.2509,4.2509,4.2509,4.2663,4.2713,4.2663,4.2082,4.1758,4.1708,4.153,4.1478,4.1806,4.1808,4.1984,4.3039,4.1708,3.9974,3.9597,4.02,4.0451,4.1455,4.3009,4.3564,4.4217,4.4799,4.4511,4.4018,4.3345,4.1775,0.0,0.0,0.0,4.0637,4.2547,4.1213,4.1072,4.1846,4.1484,4.1412,4.1627,4.1593,4.1034,4.0014,4.0468,3.9903,3.8341,0.0,0.0,3.8541,3.8726,3.8746,3.8717,3.986,4.0539,4.0779,4.255,4.3593,4.3804,4.437,4.5143,4.608,4.6062,4.5896,4.5588,4.4895,4.3363,0.0,0.0,0.0,0.0,0.0,0.0,0.0,0.0,0.0,0.0,0.0,3.219,3.2842,0.0,0.0,0.0,3.583,3.6984,3.9296,3.9924,0.0,0.0,0.0,0.0,0.0,0.0,0.0,3.9823,4.0626,4.1379,4.1879,4.1706,4.1831,4.2713,4.2838,4.3039,4.3564,0.0,4.3639,4.3639,4.3614,4.3514,4.3187,4.3441,4.3514,4.3215,4.3413,4.3642,4.3639,4.3639,4.3639,4.3639,4.3639,4.374,4.4066,4.3589,4.324,4.3467,4.3388,4.341,4.3793,4.3668,4.3718,4.6002,4.5629,4.1593,4.0856,4.2343,4.2893,4.3908,4.5236,4.5754,4.607,4.6119,4.5519,4.5363,4.5334,4.2814,0.0,4.427,4.0966,4.1375,4.4742,4.2507,4.1994,4.2855,4.1212,4.0395,4.0437,4.0332,3.9932,3.9347,4.0394,4.0503,3.9793,3.9326,3.9025,3.8992,3.902,3.9086,3.9182,3.9247,3.9434,3.9862,4.1518,4.1808,4.0654,4.2575,4.395,4.4467,4.4531,4.5266,4.6767,4.606,4.5095,4.394,0.0,0.0,0.0,0.0,0.0,0.0,0.0,0.0,0.0,0.0,0.0,0.0,0.0,0.0,3.8266,3.9696,0.0,4.2864,4.2537,0.0,0.0,0.0,4.1378,4.1351,4.1882,4.206,4.1553,0.0,0.0,4.3065,4.314,4.3285,4.3669,4.3805,4.4041,4.4514,4.4539,4.4589,4.4514,4.4564,4.4564,4.4414,4.4489,4.4464,4.4439,4.4589,4.4539,4.4514,4.4514,4.4564,4.4253,4.4361,4.4269,4.4236,4.4002,4.4455,4.4858,4.539,4.5755,4.5545,4.4968,4.4467,4.3326,4.3234,4.2198,4.2389,4.3367,4.3866,4.3553,4.2742,4.3152,4.336,4.3363,4.3203,4.3142,4.324,4.3952,4.3793,4.2832,4.0737,4.0433,4.1456,3.9708,3.9293,4.0141,3.9709,3.9688,4.0006,3.9988,3.9922,3.9764,4.002,4.0057,3.9857,3.9755,3.9643,3.9592,3.9599,3.9637,3.972,3.9725,3.9609,3.9375,4.0136,4.0723,4.1094,4.1651,4.2453,4.3565,4.4898,4.5445,4.5092,4.6093,4.622,4.5146,4.3263,0.0,0.0,0.0,0.0,0.0,0.0,0.0,0.0,0.0,3.7864,3.8266,0.0,4.1029,0.0,4.1279,4.2135,4.2914,4.2889,0.0,0.0,4.2311,4.1984,4.1984,4.2487,4.2914,4.3187,4.3661,4.4091,4.4217,4.4213,4.3925,4.327,4.3855,4.4439,4.4589,4.4589,4.4589,4.464,4.4665,4.4589,4.4665,4.4589,4.464,4.4589,4.4614,4.4589,4.4589,4.4589,4.4215,4.302,4.2693,4.2364,4.1615,4.1589,4.2089,4.2575,4.2933,4.3108,4.3108,4.2023,4.1107,4.3397,4.334,4.3084,4.285,4.2601,4.3251,4.2932,4.2102,4.2304,4.2382,4.2382,4.2382,4.2549,4.2728,4.2984,4.3063,4.2825,4.0431,3.9986,4.098,3.9289,3.8848,3.9512,3.9707,4.0019,4.0469,4.0664,4.084,4.1016,4.1016,4.1016,4.1035,4.1035,4.1014,4.0932,4.0203,3.9971,4.0176,4.0176,4.0059,3.9805,3.9863,3.9954,4.011,4.0288,4.1028,4.2379,4.3478,4.4331,4.4898,4.6013,4.6307,4.5555,4.4393,4.3048,0.0,0.0,0.0,0.0,0.0,0.0,0.0,0.0,0.0,0.0,0.0,4.3137,4.2808,4.2861,4.3112,4.3664,4.3489,4.3539,4.407,4.3843,4.3768,4.3994,4.4267,4.4207,4.3477,4.3825,4.3813,4.3094,4.3164,4.3127,4.2711,4.324,4.387,4.4487,4.4731,4.5146,4.5895,4.6045,4.6075,4.6075,4.61,4.6075,4.5985,4.5388,4.4872,4.4817,4.415,4.3324,4.2426,4.2238,4.2055,4.1392,4.1444,4.1757,4.1879,4.1552,4.1452,4.208,4.1479,4.0899,4.3951,4.3841,4.3355,4.2249,4.0951,4.1615,4.1933,4.1999,4.2065,4.2043,4.2033,4.2181,4.2412,4.251,4.1254,4.1614,4.2988,4.0124,3.9825,4.1482,4.0099,3.9687,4.0156,4.0566,4.0957,4.1348,4.1699,4.207,4.2382,4.2382,4.2382,4.2382,4.2382,4.2382,4.2323,4.0898,4.0293,4.0605,4.0626,4.0625,4.0489,4.0176,3.957,3.8809,3.9043,3.9794,4.106,4.1532,4.2718,4.4864,4.555,4.5728,4.5388,4.4877,4.4025,0.0,4.1731,0.0,0.0,0.0,0.0,0.0,0.0,0.0,0.0,4.4016,4.4614,4.469,4.4292,4.4242,4.4794,4.4392,4.4406,4.5126,4.5246,4.5361,4.5567,4.566,4.4939,4.2938,4.3098,4.2774,4.1553,4.1491,4.1881,4.1994,4.2105,4.2568,4.3775,4.4366,4.5174,4.7012,4.717,4.649,4.6634,4.6914,4.6858,4.6844,4.5742,4.4951,4.4825,4.3687,4.2516,4.2215,4.2049,4.197,4.1837,4.1669,4.1713,4.1533,4.0571,4.0277,4.1492,4.1505,4.1748,4.0569,4.0228,4.0091,3.9689,3.9116,3.9262,3.949,3.9851,4.0195,4.0135,3.9899,4.103,4.0936,4.0076,4.1178,4.1338,4.0595,3.9965,4.0051,4.0767,4.0778,4.1035,4.1445,4.1835,4.2109,4.2187,4.2226,4.2304,4.2382,4.2382,4.2382,4.2382,4.2382,4.2382,4.2343,0.0,0.0,0.0,4.1387,4.123,4.0547,4.0449,4.0156,3.9668,3.9355,0.0,4.008,4.1203,4.1997,4.2423,4.3894,0.0,0.0,0.0,0.0,0.0,0.0,0.0,0.0,0.0,0.0,0.0,4.4088,4.3862,4.3689,4.4213,4.479,4.5271,4.5221,4.5397,4.5924,4.5869,4.5305,4.4034,4.3897,4.334,4.2083,4.2267,4.2279,4.192,4.2294,4.2488,4.2059,4.2237,4.1727,4.0639,4.0655,4.0984,4.1422,4.2359,4.3068,4.3408,4.3805,4.3562,4.3441,4.3674,4.394,4.3398,4.3574,4.3522,4.3545,4.3533,4.2689,4.1327,4.0853,4.0306,3.8786,3.8543,3.9096,3.8803,3.8855,3.916,4.0095,3.9247,3.8262,4.1016,4.0743,4.0566,4.0371,0.0,3.9999,4.0018,4.0137,3.9512,3.9101,3.8941,3.9666,3.9681,3.9236,4.0191,4.0461,4.0215,4.043,4.0762,4.1172,4.1601,4.1914,4.2109,4.2324,4.2382,4.2382,4.2382,4.2382,4.2382,4.2382,4.2382,4.2382,4.2382,4.2382,4.2382,4.2187,4.1797,4.1211,4.1426,4.1289,4.0859,4.0587,4.043,4.0195,3.9766,0.0,0.0,0.0,0.0,0.0,0.0,0.0,0.0,0.0,0.0,4.3349,4.401,4.4469,4.4618,4.4644,4.5095,4.612,4.544,4.482,4.4632,4.5372,4.5969,4.625,4.6271,4.6527,4.6998,4.6063,4.5098,4.4381,4.3514,4.2558,4.18,4.1815,4.1673,4.094,4.1173,4.1169,4.0297,4.0424,4.0284,3.9683,3.9728,3.9986,4.0329,4.1179,4.2096,4.305,4.3253,4.3342,4.3475,4.352,4.3597,4.3808,4.3302,4.2894,4.2845,4.2435,4.1747,4.0707,4.0682,4.0395,3.9574,3.9394,3.9531,3.9551,3.9744,3.9989,4.0415,3.9291,3.8242,4.2226,4.2168,4.1836,4.1641,4.1543,4.1172,4.0937,4.0898,3.9512,0.0,0.0,3.8848,3.9043,3.9434,3.9434,3.9883,4.0644,4.1054,4.1348,4.1719,4.2089,4.2284,4.2324,4.2343,4.2382,4.2382,4.25,4.2539,4.2539,4.2617,4.2656,4.2656,4.2656,4.2617,4.2499,4.2539,4.2168,4.1426,4.1308,4.125,4.1211,4.082,4.0606,4.0644,4.0234,4.0012,4.0011,4.0264,4.0557,4.09,4.1182,4.1324,4.1403,4.2556,4.3086,4.2747,4.3838,4.4866,4.5558,4.5189,4.5515,4.6844,4.5725,4.5255,4.5845,4.6123,4.6427,4.6731,4.6489,4.6419,4.6869,4.5238,4.4144,4.4342,4.3072,4.21,4.185,4.1925,4.1336,4.0195,4.0232,3.9887,3.8662,3.8776,3.8926,3.9256,3.9426,3.9434,3.9894,4.0541,4.1492,4.2675,4.2816,4.3262,4.3673,4.3562,4.3993,4.3817,4.2946,4.2306,4.2072,4.1354,4.0681,4.0562,4.0859,4.1073,4.1074,4.0937,4.1211,4.1211,4.1211,4.1211,4.1132,4.0391,3.9687,4.168,4.1348,4.1328,4.1055,4.0626,4.0254,4.0078,4.0098,4.0195,4.0254,4.0196,3.9863,3.9941,4.0332,4.0332,4.0605,4.1074,4.1191,4.125,4.1289,4.1699,4.1894,4.1914,4.2226,4.2382,4.2421,4.2812,4.2988,4.3068,4.334,4.3535,4.3496,4.3516,4.332,4.3048,4.2988,4.2734,4.2266,4.1855,4.1543,4.123,4.1152,4.1074,4.1055,4.0664,4.0601,4.0882,4.0601,4.0606,4.0955,4.1029,4.0754,4.0181,4.1289,4.166,4.1002,4.2038,4.2839,4.2973,4.2872,4.2917,4.3177,4.3736,4.5053,4.7246,4.4774,4.3709,4.5181,4.417,4.3086,4.3144,4.2979,4.2393,4.1474,4.1325,4.0951,3.9956,4.0118,4.0264,3.9969,3.9924,3.9961,3.9604,3.9609,3.9668,3.9766,3.9844,3.9863,3.9959,4.001,4.0174,4.0415,4.0489,4.0529,4.0958,4.0626,4.0965,4.0669,4.097,4.0999,4.1057,4.1069,4.0937,4.0605,4.0976,4.1074,4.082,4.0937,4.1269,4.1367,4.1387,4.1367,4.1426,4.1348,4.1289,4.2031,4.1836,4.1621,4.1406,4.1191,4.0762,4.0624,4.0605,4.0801,4.0605,4.0176,3.998,4.0,4.0176,4.0176,4.041,4.082,4.1113,4.1308,4.1543,4.1953,4.2266,4.25,4.2695,4.2773,4.2793,4.3009,4.2969,4.2754,4.2889,4.3008,4.3008,4.3008,4.291,4.2734,4.2715,4.2637,4.2382,4.248,4.2402,4.2247,4.1973,4.1855,4.1836,4.123,4.0839,4.0795,4.0541,4.0458,4.0429,4.0409,4.0235,3.9926,4.1043,4.1584,4.1282,4.2422,4.3094,4.3094,4.3429,4.3585,4.3608,4.3324,4.414,4.6352,4.4743,4.3961,4.4765,4.4289,4.4033,4.3964,4.3132,4.2258,4.171,4.1006,4.0261,3.9737,3.9746,3.9883,3.9883,3.9883,3.9883,3.9883,3.9883,4.0,4.0176,4.041,4.0605,4.0586,4.0624,4.0448,4.0038,3.9883,4.0,4.0195,4.0234,4.0332,4.0566,4.0742,4.0859,4.0898,4.1211,4.1367,4.1289,4.1562,4.1738,4.1504,4.1914,4.2188,4.2266,4.2462,4.2519,4.2578,4.2715,4.2578,4.2538,4.2499,4.2226,4.2031,4.1914,4.1582,4.1465,4.1465,4.1445,4.1094,4.0488,4.0273,4.0176,4.0176,4.0195,4.041,4.082,4.1172,4.1543,4.1953,4.2245,4.2617,4.291,4.293,4.293,4.299,4.3068,4.291,4.2577,4.2676,4.2715,4.2674,4.2715,4.2674,4.2674,4.2715,4.2674,4.2694,4.3047,4.3125,4.293,4.2598,4.2382,4.2343,4.1797,4.1308,4.0976,4.0918,4.0762,4.0351,4.0332,4.0234,4.0077,4.0952,4.1476,4.1498,4.2294,4.2859,4.2881,4.3276,4.3528,4.3514,4.2679,4.2732,4.404,4.4005,4.3902,4.4126,4.3967,4.399,4.3731,4.2815,4.1998,4.1908,4.0881,4.0133,4.0039,4.0117,4.0195,4.0176,4.0195,4.0215,4.0176,4.0176,4.0332,4.0644,4.0957,4.1191,4.1211,4.1211,4.0859,4.043,4.0176,4.0312,4.0625,4.0684,4.0801,4.1172,4.1191,4.1172,4.123,4.1445,4.1601,4.1601,4.1933,4.2109,4.2245,4.2578,4.2871,4.3047,4.332,4.3652,4.3887,4.3945,4.3691,4.3008,4.3048,4.293,4.2734,4.2363,4.2265,4.2266,4.2285,4.2305,4.2245,4.2031,4.1406,4.1093,4.1093,4.1055,4.1289,4.1641,4.1719,4.1953,4.2324,4.2362,4.2461,4.2539,4.25,4.248,4.2578,4.291,4.3086,4.3047,4.3359,4.3555,4.3594,4.3594,4.3555,4.3555,4.3574,4.3574,4.3574,4.3633,4.3281,4.2499,4.2401,4.2382,4.2382,4.2323,4.2265,4.2168,4.2226,4.2051,4.168,4.1601,4.1269,4.0586,4.0563,4.048,4.0184,4.0253,4.0233,4.0308,4.033,4.0499,4.0369,4.0726,4.0907,4.1135,4.1414,4.192,4.2426,4.1431,4.0823,4.0427,4.0373,4.0413,4.0528,4.0482,4.0469,4.0508,4.082,4.1093,4.1093,4.0996,4.1093,4.0996,4.1015,4.1035,4.1094,4.123,4.1367,4.1308,4.1348,4.1328,4.1152,4.1093,4.1074,4.1132,4.1113,4.1152,4.125,4.125,4.1308,4.1348,4.1328,4.1269,4.1641,4.168,4.1973,4.2031,4.2207,4.2793,4.332,4.3652,4.3945,4.4648,4.4824,4.4473,4.2695,4.2695,4.2695,4.2598,4.2401,4.2382,4.2382,4.2382,4.2382,4.2382,4.2343,4.2051,4.1914,4.1914,4.1914,4.2012,4.2168,4.2168,4.2266,4.2382,4.2382,4.2558,4.2793,4.2812,4.293,4.3164,4.3359,4.3437,4.3476,4.3613,4.3691,4.3691,4.3691,4.3691,4.3691,4.3691,4.3691,4.3691,4.3691,4.3535,4.3203,4.293,4.2812,4.2793,4.2558,4.2382,4.2382,4.2382,4.2344,4.2187,4.2168,4.2012,4.1621,4.1406,4.1191,4.1016,4.0781,4.0683,4.0683,4.0683,4.0664,4.0644,4.0801,4.0898,4.0937,4.1289,4.1738,4.1923,4.1223,4.0644,4.0644,4.0683,4.0644,4.0664,4.082,4.0918,4.0918,4.1055,4.1211,4.1211,4.1211,4.1211,4.125,4.1445,4.1523,4.1582,4.1719,4.1855,4.1894,4.1914,4.1914,4.1914,4.1914,4.168,4.1387,4.1445,4.1504,4.1582,4.1758,4.1914,4.1875,4.1914,4.1914,4.1894,4.2012,4.2129,4.2207,4.25,4.2969,4.3437,4.3906,4.4316,4.486,4.5019,4.4824,4.2733,4.2733,4.2733,4.2733,4.2773,4.2773,4.2773,4.2773,4.2773,4.2733,4.2733,4.2733,4.2773,4.2754,4.2499,4.248,4.2598,4.2617,4.2635,4.2754,4.2733,4.2949,4.3263,4.3242,4.3398,4.3672,4.3691,4.3691,4.3691,4.3691,4.3691,4.3691,4.3691,4.3691,4.3691,4.3691,4.3691,4.3691,4.3691,4.3691,4.3652,4.3398,4.3262,4.3223,4.2949,4.2733,4.2733,4.2773,4.2674,4.2617,4.2557,4.2499,4.2382,4.2089,4.1973,4.1953,4.168,4.1504,4.1523,4.1523,4.1523,4.1504,4.1523,4.1523,4.1562,4.1797,4.1953,4.1973,4.1699,4.1523,4.1523,4.1523,4.1523,4.1523,4.1563,4.1523,4.1523,4.1504,4.1543,4.1523,4.1601,4.1523,4.1562,4.1797,4.1973,4.2012,4.2167,4.2382,4.2382,4.2362,4.2343,4.2382,4.2362,4.2148,4.166,4.1758,4.1953,4.2012,4.2226,4.2304,4.2382,4.2382,4.2362,4.2187,4.2323,4.2362,4.2344,4.2676,4.3183,4.3555,4.416,4.4883,4.541,4.5391,4.541,4.3652,4.3633,4.3633,4.3594,4.3633,4.3594,4.3633,4.3555,4.3594,4.3613,4.3574,4.3594,4.3633,4.3555,4.2832,4.2676,4.3008,4.3087,4.3242,4.3555,4.3594,4.3633,4.3672,4.3672,4.3672,4.3691,4.3691,4.3691,4.3691,4.3691,4.3691,4.3691,4.3691,4.3691,4.3691,4.3691,4.3691,4.3691,4.3691,4.3691,4.3691,4.3672,4.3652,4.3633,4.3633,4.3574,4.3594,4.3633,4.3457,4.3107,4.3047,4.2871,4.246,4.2382,4.2362,4.2323,4.2304,4.2304,4.2284,4.2285,4.2265,4.2284,4.2226,4.2324,4.2246,4.2344,4.2402,4.2362,4.2402,4.2383,4.2323,4.2266,4.2266,4.2226,4.2265,4.2265,4.2284,4.2226,4.2304,4.2265,4.2206,4.2226,4.2305,4.2343,4.2362,4.2402,4.2401,4.246,4.2518,4.246,4.2479,4.2499,4.2479,4.2382,4.2343,4.2363,4.2383,4.2461,4.2519,4.2479,4.2401,4.2382,4.2421,4.244,4.2557,4.2557,4.246,4.2734,4.3281,4.3945,4.5,4.5703,4.5859,4.6133,4.6113,4.3691,4.3691,4.3691,4.3691,4.3691,4.3691,4.3691,4.3691,4.3691,4.3691,4.3691,4.3691,4.3691,4.3691,4.3379,4.332,4.3476,4.3476,4.3555,4.3691,4.3691,4.3691,4.3691,4.3691,4.3691,4.3691,4.3691,4.3691,4.3691,4.3691,4.3691,4.3691,4.3691,4.3691,4.3691,4.3691,4.3691,4.3691,4.3691,4.3691,4.3691,4.3691,4.3691,4.3691,4.3691,4.3691,4.3691,4.3691,4.3633,4.3476,4.3476,4.3398,4.3242,4.2988,4.2715,4.2421,4.2382,4.2382,4.2382,4.2382,4.2382,4.2382,4.2382,4.2401,4.2421,4.2676,4.2851,4.2871,4.3105,4.3223,4.3084,4.2733,4.2382,4.2382,4.2382,4.2421,4.2382,4.2382,4.2382,4.2382,4.2382,4.2382,4.2539,4.2676,4.2832,4.2871,4.3066,4.3183,4.3223,4.3242,4.3203,4.3223,4.3242,4.3242,4.3242,4.2988,4.2871,4.2949,4.3008,4.3183,4.3203,4.3144,4.3164,4.3125,4.3105,4.3144,4.3144,4.332,4.3789,4.4492,4.5547,4.5976,4.6191,4.6269,4.6308,4.3691,4.3691,4.3691,4.3691,4.3691,4.3691,4.3691,4.3691,4.3691,4.3691,4.3691,4.3691,4.3691,4.3691,4.3691,4.3691,4.3691,4.3691,4.3691,4.3691,4.3691,4.3691,4.3691,4.3691,4.3691,4.3691,4.3691,4.3691,4.3691,4.3691,4.3691,4.3691,4.3691,4.3691,4.3691,4.3691,4.3691,4.3691,4.3691,4.3691,4.3691,4.3691,4.3691,4.3691,4.3691,4.3691,4.3691,4.3691,4.3691,4.3691,4.3691,4.3691,4.3672,4.3437,4.3144,4.2891,4.2811,4.2791,4.2832,4.2832,4.2811,4.2791,4.2851,4.2832,4.2871,4.3105,4.3302,4.3359,4.3496,4.3691,4.3594,4.3143,4.2791,4.2832,4.2791,4.2791,4.2791,4.2851,4.2871,4.285,4.2891,4.2871,4.2871,4.3105,4.3242,4.3281,4.3535,4.3691,4.3691,4.3691,4.3691,4.3691,4.3652,4.3613,4.3574,4.3359,4.3262,4.332,4.332,4.3574,4.3691,4.3691,4.3691,4.3691,4.373,4.3789,4.3887,4.4023,4.4473,4.5058,4.5566,4.6055,4.6191,4.6289,4.6308,4.3691,4.3691,4.3691,4.3691,4.3691,4.3691,4.3691,4.3691,4.3691,4.3691,4.3691,4.3691,4.3691,4.3691,4.3691,4.3691,4.3691,4.3691,4.3691,4.3691,4.3691,4.3691,4.3691,4.3691,4.3691,4.3691,4.3691,4.3691,4.3691,4.3691,4.3691,4.3691,4.3691,4.3691,4.3691,4.3691,4.3691,4.3691,4.3691,4.3691,4.3691,4.3691,4.3691,4.3691,4.3691,4.3691,4.3691,4.3691,4.3691,4.3691,4.3691,4.3691,4.3691,4.3652,4.3652,4.3594,4.3652,4.3652,4.3633,4.3613,4.3555,4.3555,4.3633,4.3555,4.3535,4.3594,4.3633,4.3633,4.3672,4.3691,4.3691,4.3613,4.3574,4.3672,4.3555,4.3555,4.3613,4.3652,4.3672,4.3613,4.3555,4.3672,4.3672,4.3613,4.3613,4.3633,4.3672,4.3691,4.3691,4.3691,4.3691,4.3691,4.3691,4.3691,4.3691,4.3691,4.3672,4.3672,4.3633,4.3691,4.3691,4.3691,4.3691,4.3711,4.3887,4.3965,4.4199,4.4375,4.4863,4.541,4.5801,4.6074,4.6211,4.6308,4.6308,4.3691,4.3691,4.3691,4.3691,4.3691,4.3691,4.3691,4.3691,4.3691,4.3691,4.3691,4.3691,4.3691,4.3691,4.3691,4.3691,4.3691,4.3691,4.3691,4.3691,4.3691,4.3691,4.3691,4.3691,4.3691,4.3691,4.3691,4.3691,4.3691,4.3691,4.3691,4.3691,4.3691,4.3691,4.3691,4.3691,4.3691,4.3691,4.3691,4.3691,4.3691,4.3691,4.3691,4.3691,4.3691,4.3691,4.3691,4.3691,4.3691,4.3691,4.3691,4.3691,4.3691,4.3691,4.3691,4.3691,4.3691,4.3691,4.3691,4.3691,4.3691,4.3691,4.3691,4.3691,4.3691,4.3691,4.3691,4.3691,4.3691,4.3691,4.3691,4.3691,4.3691,4.3691,4.3691,4.3691,4.3691,4.3691,4.3691,4.3691,4.3691,4.3691,4.3691,4.3691,4.3691,4.3691,4.3691,4.3691,4.3691,4.3691,4.3691,4.3691,4.3691,4.3691,4.3691,4.3691,4.3691,4.3691,4.3691,4.3691,4.3691,4.3691,4.3691,4.375,4.3945,4.418,4.4433,4.4746,4.5156,4.5508,4.5801,4.6016,4.623,4.6308,4.6308,4.3691,4.3691,4.3691,4.3691,4.3691,4.3691,4.3691,4.3691,4.3691,4.3691,4.3691,4.3691,4.3691,4.3691,4.3691,4.3691,4.3691,4.3691,4.3691,4.3691,4.3691,4.3691,4.3691,4.3691,4.3691,4.3691,4.3691,4.3691,4.3691,4.3691,4.3691,4.3691,4.3691,4.3691,4.3691,4.3691,4.3691,4.3691,4.3691,4.3691,4.3691,4.3691,4.3691,4.3691,4.3691,4.3691,4.3691,4.3691,4.3691,4.3691,4.3691,4.3691,4.3691,4.3691,4.3691,4.3691,4.3691,4.3691,4.3691,4.3691,4.3691,4.3691,4.3691,4.3691,4.3691,4.3691,4.3691,4.3691,4.3691,4.3691,4.3691,4.3691,4.3691,4.3691,4.3691,4.3691,4.3691,4.3691,4.3691,4.3691,4.3691,4.3691,4.3691,4.3691,4.3691,4.3691,4.3691,4.3691,4.3691,4.3691,4.3691,4.3691,4.3691,4.3691,4.3691,4.3691,4.3691,4.3691,4.3691,4.3691,4.3691,4.3691,4.3691,4.373,4.3848,4.4258,4.4531,4.4805,4.5156,4.5449,4.5879,4.6074,4.6308,4.6308,4.6308,4.3691,4.3691,4.3691,4.3691,4.3691,4.3691,4.3691,4.3691,4.3691,4.3691,4.3691,4.3691,4.3691,4.3691,4.3691,4.3691,4.3691,4.3691,4.3691,4.3691,4.3691,4.3691,4.3691,4.3691,4.3691,4.3691,4.3691,4.3691,4.3691,4.3691,4.3691,4.3691,4.3691,4.3691,4.3691,4.3691,4.3691,4.3691,4.3691,4.3691,4.3691,4.3691,4.3691,4.3691,4.3691,4.3691,4.3691,4.3691,4.3691,4.3691,4.3691,4.3691,4.3691,4.3691,4.3691,4.3691,4.3691,4.3691,4.3691,4.3691,4.3691,4.3691,4.3691,4.3691,4.3691,4.3691,4.3691,4.3691,4.3691,4.3691,4.3691,4.3691,4.3691,4.3691,4.3691,4.3691,4.3691,4.3691,4.3691,4.3691,4.3691,4.3691,4.3691,4.3691,4.3691,4.3691,4.3691,4.3691,4.3691,4.3691,4.3691,4.3691,4.3691,4.3691,4.3691,4.3691,4.3691,4.3691,4.3691,4.3691,4.3691,4.3691,4.3691,4.373,4.3848,4.4258,4.4668,4.498,4.541,4.5898,4.6172,4.6269,4.6308,4.6308,4.6308,4.3691,4.3691,4.3691,4.3691,4.3691,4.3691,4.3691,4.3691,4.3691,4.3691,4.3691,4.3691,4.3691,4.3691,4.3691,4.3691,4.3691,4.3691,4.3691,4.3691,4.3691,4.3691,4.3691,4.3691,4.3691,4.3691,4.3691,4.3691,4.3691,4.3691,4.3691,4.3691,4.3691,4.3691,4.3691,4.3691,4.3691,4.3691,4.3691,4.3691,4.3691,4.3691,4.3691,4.3691,4.3691,4.3691,4.3691,4.3691,4.3691,4.3691,4.3691,4.3691,4.3691,4.3691,4.3691,4.3691,4.3691,4.3691,4.3691,4.3691,4.3691,4.3691,4.3691,4.3691,4.3691,4.3691,4.3691,4.3691,4.3691,4.3691,4.3691,4.3691,4.3691,4.3691,4.3691,4.3691,4.3691,4.3691,4.3691,4.3691,4.3691,4.3691,4.3691,4.3691,4.3691,4.3691,4.3691,4.3691,4.3691,4.3691,4.3691,4.3691,4.3691,4.3691,4.3691,4.3691,4.3691,4.3691,4.3691,4.3691,4.3691,4.3691,4.3691,4.3711,4.3906,4.4258,4.4805,4.5234,4.5781,4.6172,4.6289,4.6308,4.6308,4.6308,4.6308,4.3691,4.3691,4.3691,4.3691,4.3691,4.3691,4.3691,4.3691,4.3691,4.3691,4.3691,4.3691,4.3691,4.3691,4.3691,4.3691,4.3691,4.3691,4.3691,4.3691,4.3691,4.3691,4.3691,4.3691,4.3691,4.3691,4.3691,4.3691,4.3691,4.3691,4.3691,4.3691,4.3691,4.3691,4.3691,4.3691,4.3691,4.3691,4.3691,4.3691,4.3691,4.3691,4.3691,4.3691,4.3691,4.3691,4.3691,4.3691,4.3691,4.3691,4.3691,4.3691,4.3691,4.3691,4.3691,4.3691,4.3691,4.3691,4.3691,4.3691,4.3691,4.3691,4.3691,4.3691,4.3691,4.3691,4.3691,4.3691,4.3691,4.3691,4.3691,4.3691,4.3691,4.3691,4.3691,4.3691,4.3691,4.3691,4.3691,4.3691,4.3691,4.3691,4.3691,4.3691,4.3691,4.3691,4.3691,4.3691,4.3691,4.3691,4.3691,4.3691,4.3691,4.3691,4.3691,4.3691,4.3691,4.3691,4.3691,4.3691,4.3691,4.3691,4.3691,4.375,4.3984,4.4297,4.4805,4.5273,4.5625,4.5937,4.6152,4.6289,4.6289,4.6308,4.6308,4.3691,4.3691,4.3691,4.3691,4.3691,4.3691,4.3691,4.3691,4.3691,4.3691,4.3691,4.3691,4.3691,4.3691,4.3691,4.3691,4.3691,4.3691,4.3691,4.3691,4.3691,4.3691,4.3691,4.3691,4.3691,4.3691,4.3691,4.3691,4.3691,4.3691,4.3691,4.3691,4.3691,4.3691,4.3691,4.3691,4.3691,4.3691,4.3691,4.3691,4.3691,4.3691,4.3691,4.3691,4.3691,4.3691,4.3691,4.3691,4.3691,4.3691,4.3691,4.3691,4.3691,4.3691,4.3691,4.3691,4.3691,4.3691,4.3691,4.3691,4.3691,4.3691,4.3691,4.3691,4.3691,4.3691,4.3691,4.3691,4.3691,4.3691,4.3691,4.3691,4.3691,4.3691,4.3691,4.3691,4.3691,4.3691,4.3691,4.3691,4.3691,4.3691,4.3691,4.3691,4.3691,4.3691,4.3691,4.3691,4.3691,4.3691,4.3691,4.3691,4.3691,4.3691,4.3691,4.3691,4.3691,4.3691,4.3691,4.3691,4.3691,4.3691,4.3691,4.3769,4.3887,4.4199,4.4707,4.5117,4.541,4.5762,4.6016,4.6172,4.6269,4.6289,4.6308,4.3691,4.3691,4.3691,4.3691,4.3691,4.3691,4.3691,4.3691,4.3691,4.3691,4.3691,4.3691,4.3691,4.3691,4.3691,4.3691,4.3691,4.3691,4.3691,4.3691,4.3691,4.3691,4.3691,4.3691,4.3691,4.3691,4.3691,4.3691,4.3691,4.3691,4.3691,4.3691,4.3691,4.3691,4.3691,4.3691,4.3691,4.3691,4.3691,4.3691,4.3691,4.3691,4.3691,4.3691,4.3691,4.3691,4.3691,4.3691,4.3691,4.3691,4.3691,4.3691,4.3691,4.3691,4.3691,4.3691,4.3691,4.3691,4.3691,4.3691,4.3691,4.3691,4.3691,4.3691,4.3691,4.3691,4.3691,4.3691,4.3691,4.3691,4.3691,4.3691,4.3691,4.3691,4.3691,4.3691,4.3691,4.3691,4.3691,4.3691,4.3691,4.3691,4.3691,4.3691,4.3691,4.3691,4.3691,4.3691,4.3691,4.3691,4.3691,4.3691,4.3691,4.3691,4.3691,4.3691,4.3691,4.3691,4.3691,4.3691,4.3691,4.3691,4.3691,4.3691,4.3711,4.4121,4.457,4.4668,4.4883,4.5371,4.5922,4.6035,4.6172,4.623,4.6308,4.1118,4.2057,4.2118,4.27,4.3609,4.3691,4.3691,4.3691,4.3691,4.3691,4.3691,4.3691,4.3691,4.3691,4.3691,4.3691,4.3691,4.3691,4.3691,4.3691,4.3691,4.3691,4.3691,4.3691,4.3691,4.3691,4.3691,4.3691,4.3691,4.3691,4.3691,4.3691,4.3691,4.3691,4.3691,4.3691,4.3691,4.3691,4.3691,4.3691,4.3691,4.3691,4.3691,4.3691,4.3691,4.3691,4.3691,4.3691,4.3691,4.3691,4.3691,4.3691,4.3691,4.3691,4.3691,4.3691,4.3691,4.3691,4.3691,4.3691,4.3691,4.3691,4.3691,4.3691,4.3691,4.3691,4.3691,4.3691,4.3691,4.3691,4.3691,4.3691,4.3691,4.3691,4.3691,4.3691,4.3691,4.3691,4.3691,4.3691,4.3691,4.3691,4.3691,4.3691,4.3691,4.3691,4.3691,4.3691,4.3691,4.3691,4.3691,4.3691,4.3691,4.3691,4.3691,4.3691,4.3691,4.3691,4.3691,4.3691,4.3691,4.3691,4.3691,4.3691,4.3711,4.3965,4.4336,4.4375,4.4629,4.5312,4.5844,4.5957,4.6094,4.623,4.6289,3.799,3.9776,3.9794,4.0908,4.2493,4.2493,4.2368,4.2493,4.2617,4.2368,4.2969,4.2886,4.2243,4.2927,4.2409,4.2678,4.3051,4.3093,4.2927,4.365,4.3691,4.3691,4.3691,4.3691,4.3691,4.3691,4.3691,4.3691,4.3691,4.3691,4.3691,4.3691,4.3691,4.3691,4.3691,4.3691,4.3691,4.3691,4.3691,4.3691,4.3691,4.3691,4.3691,4.3691,4.3691,4.3691,4.3691,4.3691,4.3691,4.3691,4.3691,4.3691,4.3691,4.3691,4.3691,4.3691,4.3691,4.3691,4.3691,4.3691,4.3691,4.3691,4.3691,4.3691,4.3691,4.3691,4.3691,4.3691,4.3691,4.3691,4.3691,4.3691,4.3691,4.3691,4.3691,4.3691,4.3691,4.3691,4.3691,4.3691,4.3691,4.3691,4.3691,4.3691,4.3691,4.3691,4.3691,4.3691,4.3691,4.3691,4.3691,4.3691,4.3691,4.3691,4.3691,4.3691,4.3691,4.3691,4.3691,4.3691,4.3691,4.3691,4.3691,4.3691,4.3769,4.3984,4.4082,4.4121,4.4551,4.5336,4.5605,4.5644,4.5879,4.6211,4.6269,3.7046,3.739,3.739,3.7647,3.7947,3.799,3.8203,3.7947,3.8289,3.9098,4.0511,3.8928,3.937,4.0048,3.8673,3.9055,4.0554,4.089,4.1681,4.2886,4.3093,4.3093,4.2927,4.2803,4.3176,4.3691,4.3402,4.3134,4.365,4.3691,4.3691,4.3691,4.3691,4.3691,4.3691,4.3691,4.3691,4.3691,4.3691,4.3691,4.3691,4.3691,4.3691,4.3691,4.3691,4.3691,4.3691,4.3691,4.3691,4.3691,4.3691,4.3691,4.3691,4.3691,4.3691,4.3691,4.3691,4.3691,4.3691,4.3691,4.3691,4.3691,4.3691,4.3691,4.3691,4.3691,4.3691,4.3691,4.3691,4.3691,4.3691,4.3691,4.3691,4.3691,4.3691,4.3691,4.3691,4.3691,4.3691,4.3691,4.3691,4.3691,4.3691,4.3691,4.3691,4.3691,4.3691,4.3691,4.3691,4.3691,4.3691,4.3691,4.3691,4.3691,4.3691,4.3691,4.3691,4.3691,4.3691,4.3691,4.3691,4.3691,4.3691,4.3691,4.3691,4.3789,4.3848,4.3906,4.4219,4.4785,4.5039,4.5273,4.5605,4.5918,4.6172,3.3951,3.5027,3.5027,3.575,3.6701,3.6787,3.6787,3.6787,3.683,3.7432,3.7904,3.7347,3.7347,3.799,3.7475,3.7561,3.8203,3.8502,3.914,4.009,4.0132,4.0132,4.0259,4.0259,4.0132,4.0048,4.0132,4.1681,4.3485,4.3691,4.3485,4.3691,4.3691,4.3691,4.3691,4.3691,4.3567,4.3567,4.3567,4.3567,4.3609,4.3609,4.3609,4.365,4.365,4.3691,4.3691,4.3691,4.3691,4.3691,4.3691,4.3691,4.3691,4.3691,4.3691,4.3691,4.3691,4.3691,4.3691,4.3691,4.3691,4.3691,4.3691,4.3691,4.3691,4.3691,4.3691,4.3691,4.3691,4.3691,4.3691,4.3691,4.3691,4.3691,4.3609,4.3609,4.3609,4.3567,4.3402,4.3259,4.3361,4.3361,4.3691,4.3691,4.3691,4.3691,4.365,4.3609,4.3526,4.3691,4.3691,4.3691,4.3691,4.3691,4.3691,4.3691,4.3691,4.3691,4.3691,4.3691,4.3691,4.3691,4.3691,4.3691,4.3691,4.3691,4.3711,4.3808,4.4043,4.4258,4.457,4.4922,4.5273,4.5605,4.5859,3.1003,3.269,3.269,3.3731,3.5273,3.5403,3.5316,3.5403,3.5245,3.5533,3.6053,3.5593,3.549,3.5837,3.562,3.549,3.601,3.6097,3.6529,3.7218,3.7261,3.7003,3.6874,3.6787,3.7218,3.769,3.7475,3.8715,4.1034,4.1723,4.2118,4.1765,4.2099,4.2326,4.1974,4.1556,4.2284,4.2326,4.2326,4.2326,4.2326,4.2326,4.2617,4.2969,4.301,4.3093,4.3609,4.3691,4.3691,4.3691,4.3691,4.3691,4.3691,4.3691,4.3691,4.3691,4.3691,4.3691,4.3691,4.3691,4.3691,4.3691,4.3691,4.3691,4.3691,4.3691,4.3691,4.3691,4.3691,4.3691,4.3691,4.3691,4.3361,4.2844,4.2803,4.2719,4.1932,4.1556,4.1346,4.1598,4.2326,4.2844,4.3051,4.3485,4.3485,4.2886,4.2783,4.27,4.2742,4.3526,4.3711,4.3691,4.3691,4.3691,4.3691,4.3691,4.3691,4.3691,4.3691,4.3691,4.3691,4.3691,4.3691,4.3691,4.3691,4.3691,4.3691,4.3711,4.3887,4.4062,4.4277,4.4531,4.4883,4.5234,4.5547,3.0048,3.0348,3.0348,3.0482,3.087,3.1003,3.087,3.0959,3.1137,3.1953,3.3644,3.1953,3.2174,3.3087,3.1776,3.2174,3.3263,3.3863,3.4591,3.5707,3.601,3.601,3.6485,3.6787,3.601,3.5793,3.614,3.696,3.7775,3.7861,3.799,3.8161,3.8374,3.7818,3.8587,3.8715,3.7604,3.7733,3.7861,3.7904,3.799,3.8075,3.9098,4.0174,4.0806,4.137,4.2576,4.2803,4.3051,4.3443,4.3567,4.365,4.3691,4.3691,4.3691,4.3691,4.3691,4.3691,4.3691,4.3691,4.3691,4.3691,4.3691,4.3691,4.3691,4.367,4.367,4.3691,4.3691,4.3176,4.301,4.3443,4.2576,4.1472,4.068,3.9649,3.8758,3.954,3.9328,3.903,3.954,4.116,4.2159,4.2761,4.3134,4.2451,4.189,4.1681,4.1807,4.2368,4.2969,4.2803,4.3567,4.3691,4.3691,4.3691,4.3609,4.3609,4.365,4.365,4.3691,4.3691,4.3691,4.3691,4.3691,4.3691,4.3691,4.3711,4.375,4.3867,4.4062,4.4238,4.4453,4.4824,4.5195,2.9913,2.9913,2.9913,2.9913,2.9913,2.9913,2.9913,2.9913,2.9913,3.0437,3.1137,3.0482,3.0526,3.1137,3.0169,3.0482,3.1301,3.1523,3.1864,3.2852,3.3116,3.3028,3.2778,3.2867,3.2896,3.3204,3.2896,3.2558,3.3512,3.5549,3.6787,3.6615,3.6701,3.7003,3.6313,3.6701,3.6874,3.6917,3.6874,3.683,3.6787,3.683,3.7218,3.8246,3.8331,3.9098,3.9794,3.9794,4.0614,4.1286,4.1807,4.2493,4.3361,4.3691,4.3691,4.3691,4.3691,4.3691,4.3691,4.365,4.3691,4.3691,4.3691,4.3691,4.3691,4.3485,4.2844,4.1848,4.301,4.2534,4.0908,4.1095,4.0174,3.9183,3.8374,3.769,3.683,3.7003,3.7261,3.6917,3.6744,3.8161,3.9225,3.9268,3.9437,3.9437,3.914,3.914,3.9564,4.0385,4.0992,4.1495,4.2576,4.3691,4.3691,4.3691,4.3443,4.3443,4.3526,4.3567,4.365,4.3691,4.3691,4.3691,4.3691,4.3691,4.3691,4.3711,4.373,4.3789,4.3867,4.4004,4.4141,4.4414,4.4844,2.9913,2.9913,2.9913,2.9913,2.9913,2.9913,2.9913,2.9913,2.9913,2.9913,2.9913,2.9913,2.9913,2.9913,2.9958,3.0003,3.0003,2.9913,2.9913,2.9913,2.9913,3.0169,3.0482,3.0213,3.0213,2.9913,3.0557,3.0482,3.1301,3.2867,3.4591,3.5071,3.4373,3.4679,3.4897,3.4635,3.446,3.446,3.4548,3.4591,3.4663,3.4766,3.5245,3.588,3.6485,3.7089,3.7647,3.88,4.009,4.095,4.0764,4.1328,4.2326,4.1765,4.137,4.1286,4.1244,4.1328,4.189,4.2493,4.3443,4.3526,4.2803,4.2201,4.1556,4.1951,4.1556,3.948,4.0469,3.9582,3.8203,3.8647,3.7861,3.696,3.5967,3.562,3.5245,3.4809,3.4329,3.3775,3.3688,3.4154,3.4925,3.5012,3.536,3.5967,3.6269,3.6572,3.739,3.8314,3.8885,3.9437,4.009,4.116,4.1328,4.1723,4.2141,4.2742,4.2803,4.3361,4.3402,4.3567,4.3691,4.3691,4.3691,4.3691,4.3691,4.3691,4.3711,4.375,4.3769,4.373,4.3867,4.4141,4.4453,2.9913,2.9913,2.9913,2.9913,2.9913,2.9913,2.9913,2.9913,2.9913,2.9913,2.9913,2.9913,2.9913,2.9913,2.9913,2.9913,2.9913,2.9913,2.9913,2.9913,2.9913,2.9913,2.9913,2.9913,2.9913,2.9913,2.9913,2.9913,3.0003,3.0647,3.1003,3.0437,3.1568,3.087,3.0914,3.1612,3.1479,3.1435,3.1435,3.1212,3.1123,3.1257,3.1864,3.3731,3.562,3.775,3.9812,4.0259,4.1016,4.1453,4.0072,3.9734,4.0048,3.914,3.8587,3.8502,3.8459,3.8459,3.8885,4.0992,4.3093,4.2927,4.1742,3.9854,3.8732,3.7733,3.7218,3.7304,3.8118,3.7475,3.6787,3.6744,3.5923,3.4504,3.3468,3.2984,3.2469,3.1731,3.1212,3.0616,3.0914,3.1864,3.2041,3.2425,3.2867,3.3512,3.4286,3.4635,3.536,3.6226,3.6701,3.7089,3.7304,3.769,3.7604,3.8203,3.9437,4.0216,4.0469,4.1807,4.2969,4.3176,4.2927,4.3691,4.3691,4.3691,4.3691,4.3691,4.3691,4.3691,4.3691,4.3691,4.3769,4.4004,4.4219,2.9913,2.9913,2.9913,2.9913,2.9913,2.9913,2.9913,2.9913,2.9913,2.9913,2.9913,2.9913,2.9913,2.9913,2.9913,2.9913,2.9913,2.9913,2.9913,2.9913,2.9913,2.9913,2.9913,2.9913,2.9913,2.9913,2.9913,2.9913,2.9913,2.9913,2.9913,2.9913,2.9913,2.9958,2.9958,2.9913,2.9913,2.9913,2.9913,2.9913,2.9913,2.9913,3.0348,3.1226,3.1731,3.2911,3.3731,3.4591,3.5907,3.6986,3.6744,3.7201,3.7844,3.6917,3.6485,3.6356,3.6313,3.6356,3.6529,3.8417,3.9353,3.937,3.8562,3.7664,3.6399,3.6615,3.5837,3.5707,3.5793,3.5577,3.294,3.3688,3.3907,3.2086,3.1093,3.0736,3.0437,3.0048,2.9913,3.0137,3.0093,3.0392,3.0348,3.0213,3.0647,3.1182,3.1997,3.2778,3.3468,3.4023,3.446,3.494,3.5186,3.575,3.5793,3.6399,3.7003,3.7604,3.8186,3.9607,4.1034,4.1453,4.1495,4.2576,4.365,4.3691,4.3691,4.3691,4.3691,4.3691,4.3691,4.3691,4.3789,4.3887,4.4043,2.9913,2.9913,2.9913,2.9913,2.9913,2.9913,2.9913,2.9913,2.9913,2.9913,2.9913,2.9913,2.9913,2.9913,2.9913,2.9913,2.9913,2.9913,2.9913,2.9913,2.9913,2.9913,2.9913,2.9913,2.9913,2.9913,2.9913,2.9913,2.9913,2.9913,2.9913,2.9913,2.9913,2.9913,2.9913,2.9913,2.9913,2.9913,2.9913,2.9913,2.9913,2.9913,2.9913,3.0303,3.1048,3.1701,3.2396,3.3336,3.4154,3.4679,3.4591,3.4504,3.4984,3.5186,3.4809,3.4766,3.4809,3.4837,3.4968,3.6226,3.6313,3.6226,3.5967,3.5419,3.4984,3.4766,3.338,3.2778,3.3644,3.3424,2.9958,3.1435,3.2041,3.0616,3.0482,3.0169,3.0169,2.9913,2.9913,2.9958,2.9913,2.9913,2.9913,2.9913,3.0093,3.0392,3.0781,3.1212,3.1301,3.182,3.2174,3.269,3.316,3.3863,3.4548,3.4154,3.4023,3.536,3.6097,3.7175,3.8289,3.9013,4.0216,4.1495,4.2534,4.3361,4.3691,4.3691,4.3691,4.3691,4.3691,4.3691,4.3711,4.3808,4.3867,2.9913,2.9913,2.9913,2.9913,2.9913,2.9913,2.9913,2.9913,2.9913,2.9913,2.9913,2.9913,2.9913,2.9913,2.9913,2.9913,2.9913,2.9913,2.9913,2.9913,2.9913,2.9913,2.9913,2.9913,2.9913,2.9913,2.9913,2.9913,2.9913,2.9913,2.9913,2.9913,2.9913,2.9913,2.9913,2.9913,2.9913,2.9913,2.9913,2.9913,2.9913,2.9913,2.9913,3.0258,3.1257,3.1909,3.2174,3.316,3.4023,3.4329,3.338,3.3175,3.3248,3.182,3.1093,3.0914,3.0736,3.0557,3.0526,3.4373,3.4897,3.3731,3.3424,3.2823,3.1003,3.0437,3.087,3.0914,3.0959,3.0736,2.9958,3.0048,3.0093,3.0048,2.9958,2.9913,2.9913,2.9913,2.9913,2.9913,2.9913,2.9913,2.9913,2.9913,2.9913,3.0003,2.9958,2.9913,2.9958,3.0213,3.0825,3.1093,3.1657,3.1776,3.213,3.1093,3.1123,3.2602,3.3863,3.4809,3.6226,3.7501,3.8843,4.0301,4.1537,4.2576,4.3217,4.3691,4.3691,4.3691,4.3691,4.3691,4.3691,4.3711,4.3789,2.9913,2.9913,2.9913,2.9913,2.9913,2.9913,2.9913,2.9913,2.9913,2.9913,2.9913,2.9913,2.9913,2.9913,2.9913,2.9913,2.9913,2.9913,2.9913,2.9913,2.9913,2.9913,2.9913,2.9913,2.9913,2.9913,2.9913,2.9913,2.9913,2.9913,2.9913,2.9913,2.9913,2.9913,2.9913,2.9913,2.9913,2.9913,2.9913,2.9913,2.9913,2.9913,2.9913,2.9913,3.087,3.1257,3.136,3.2558,3.2778,3.2823,3.1568,3.1435,3.1346,3.0003,2.9958,2.9913,2.9913,2.9913,3.0003,3.1612,3.1776,3.1346,3.1182,3.0914,2.9958,2.9913,2.9913,2.9913,2.9913,2.9913,2.9958,2.9958,2.9958,2.9958,2.9913,2.9913,2.9913,2.9913,2.9913,2.9913,2.9913,2.9913,2.9913,2.9913,2.9913,2.9913,2.9913,2.9913,2.9958,2.9958,3.0258,3.0213,3.0392,3.0169,2.9913,2.9913,2.9913,3.1123,3.1776,3.2219,3.376,3.562,3.7373,3.8843,4.0385,4.1807,4.2493,4.3093,4.3567,4.3691,4.3691,4.3691,4.3691,4.3691,4.3711,2.9913,2.9913,2.9913,2.9913,2.9913,2.9913,2.9913,2.9913,2.9913,2.9913,2.9913,2.9913,2.9913,2.9913,2.9913,2.9913,2.9913,2.9913,2.9913,2.9913,2.9913,2.9913,2.9913,2.9913,2.9913,2.9913,2.9913,2.9913,2.9913,2.9913,2.9913,2.9913,2.9913,2.9913,2.9913,2.9913,2.9913,2.9913,2.9913,2.9913,2.9913,2.9913,2.9913,2.9913,3.0048,3.0048,2.9958,2.9913,2.9913,2.9913,2.9913,2.9913,2.9913,2.9913,2.9913,2.9913,2.9913,2.9913,3.0003,3.0048,3.0392,3.0169,2.9913,2.9913,2.9913,2.9913,2.9913,2.9913,2.9913,2.9913,2.9913,2.9913,2.9913,2.9913,2.9913,2.9913,2.9913,2.9913,2.9913,2.9913,2.9913,2.9913,2.9913,2.9913,2.9913,2.9913,2.9913,2.9913,2.9913,2.9913,2.9913,2.9913,2.9913,2.9913,2.9913,2.9913,2.9913,2.9913,3.0303,3.0736,3.1657,3.3556,3.549,3.7201,3.8374,3.9734,4.1495,4.2409,4.2451,4.301,4.3691,4.3691,4.3691,4.3691,4.3691,2.9913,2.9913,2.9913,2.9913,2.9913,2.9913,2.9913,2.9913,2.9913,2.9913,2.9913,2.9913,2.9913,2.9913,2.9913,2.9913,2.9913,2.9913,2.9913,2.9913,2.9913,2.9913,2.9913,2.9913,2.9913,2.9913,2.9913,2.9913,2.9913,2.9913,2.9913,2.9913,2.9913,2.9913,2.9913,2.9913,2.9913,2.9913,2.9913,2.9913,2.9913,2.9913,2.9913,2.9913,2.9913,2.9913,2.9913,2.9913,2.9913,2.9913,2.9913,2.9913,2.9913,2.9913,2.9913,2.9913,2.9913,2.9913,2.9913,2.9913,2.9913,2.9913,2.9913,2.9913,2.9913,2.9913,2.9913,2.9913,2.9913,2.9913,2.9913,2.9913,2.9913,2.9913,2.9913,2.9913,2.9913,2.9913,2.9913,2.9913,2.9913,2.9913,2.9913,2.9913,2.9913,2.9913,2.9913,2.9913,2.9913,2.9913,2.9913,2.9913,2.9913,2.9913,2.9913,2.9913,2.9913,2.9913,2.9913,3.0303,3.1003,3.1701,3.338,3.4968,3.6053,3.7518,3.9437,4.0469,4.0848,4.1537,4.1765,4.3176,4.301,4.3567,4.3691,2.9913,2.9913,2.9913,2.9913,2.9913,2.9913,2.9913,2.9913,2.9913,2.9913,2.9913,2.9913,2.9913,2.9913,2.9913,2.9913,2.9913,2.9913,2.9913,2.9913,2.9913,2.9913,2.9913,2.9913,2.9913,2.9913,2.9913,2.9913,2.9913,2.9913,2.9913,2.9913,2.9913,2.9913,2.9913,2.9913,2.9913,2.9913,2.9913,2.9913,2.9913,2.9913,2.9913,2.9913,2.9913,2.9913,2.9913,2.9913,2.9913,2.9913,2.9913,2.9913,2.9913,2.9913,2.9913,2.9913,2.9913,2.9913,2.9913,2.9913,2.9913,2.9913,2.9913,2.9913,2.9913,2.9913,2.9913,2.9913,2.9913,2.9913,2.9913,2.9913,2.9913,2.9913,2.9913,2.9913,2.9913,2.9913,2.9913,2.9913,2.9913,2.9913,2.9913,2.9913,2.9913,2.9913,2.9913,2.9913,2.9913,2.9913,2.9913,2.9913,2.9913,2.9913,2.9913,2.9913,2.9913,2.9913,2.9913,2.9913,3.0258,3.0959,3.1834,3.2955,3.4286,3.5793,3.7432,3.8118,3.8459,3.8289,3.863,4.074,4.2409,4.2742,4.3443,2.9913,2.9913,2.9913,2.9913,2.9913,2.9913,2.9913,2.9913,2.9913,2.9913,2.9913,2.9913,2.9913,2.9913,2.9913,2.9913,2.9913,2.9913,2.9913,2.9913,2.9913,2.9913,2.9913,2.9913,2.9913,2.9913,2.9913,2.9913,2.9913,2.9913,2.9913,2.9913,2.9913,2.9913,2.9913,2.9913,2.9913,2.9913,2.9913,2.9913,2.9913,2.9913,2.9913,2.9913,2.9913,2.9913,2.9913,2.9913,2.9913,2.9913,2.9913,2.9913,2.9913,2.9913,2.9913,2.9913,2.9913,2.9913,2.9913,2.9913,2.9913,2.9913,2.9913,2.9913,2.9913,2.9913,2.9913,2.9913,2.9913,2.9913,2.9913,2.9913,2.9913,2.9913,2.9913,2.9913,2.9913,2.9913,2.9913,2.9913,2.9913,2.9913,2.9913,2.9913,2.9913,2.9913,2.9913,2.9913,2.9913,2.9913,2.9913,2.9913,2.9913,2.9913,2.9913,2.9913,2.9913,2.9913,2.9913,2.9913,2.9913,3.0124,3.087,3.1745,3.2734,3.4067,3.5186,3.5462,3.5723,3.5766,3.6356,3.8161,4.0048,4.1076,4.1974,2.9993,3.0007,2.9967,2.9993,2.998,2.9993,2.9967,2.9953,2.998,2.994,2.9927,2.9913,2.9913,2.9913,2.9913,2.9913,2.9913,2.9913,2.9913,2.9913,2.9913,2.9913,2.9913,2.9913,2.9913,2.9913,2.9913,2.9913,2.9913,2.9913,2.9913,2.9913,2.9913,2.9913,2.9913,2.9913,2.9913,2.9913,2.9913,2.9913,2.9913,2.9913,2.9913,2.9913,2.9913,2.9913,2.9913,2.9913,2.9913,2.9913,2.9913,2.9913,2.9913,2.9913,2.9913,2.9913,2.9913,2.9913,2.9913,2.9913,2.9913,2.9913,2.9913,2.9913,2.9913,2.9913,2.9913,2.9913,2.9913,2.9913,2.9913,2.9913,2.9913,2.9913,2.9913,2.9913,2.9913,2.9913,2.9913,2.9913,2.9913,2.9913,2.9913,2.9913,2.9913,2.9913,2.9913,2.9913,2.9913,2.9913,2.9913,2.9913,2.9913,2.9913,2.9913,2.9913,2.9913,2.9913,2.9913,2.9913,2.9913,2.9913,2.9913,3.0736,3.1568,3.182,3.2558,3.338,3.4213,3.4417,3.5114,3.6053,3.7432,3.88,4.0343,3.0581,3.0555,3.0341,3.0381,3.0541,3.0341,3.0261,3.0293,3.0306,3.0127,2.994,2.9913,2.9913,2.9913,2.994,2.9953,2.994,3.002,2.9927,2.994,2.9953,2.998,2.994,2.9967,2.994,2.9913,2.9913,2.9953,2.9967,2.9953,2.994,2.994,2.9953,2.9953,2.9953,2.9953,2.9913,2.9913,2.9913,2.9913,2.9913,2.9913,2.9913,2.9913,2.9913,2.9913,2.9913,2.9913,2.9913,2.9913,2.9913,2.9913,2.9913,2.9913,2.9913,2.9913,2.9913,2.9913,2.9913,2.9913,2.9913,2.9913,2.9913,2.9913,2.9913,2.9913,2.9913,2.9913,2.9913,2.9913,2.9913,2.9913,2.9913,2.9913,2.9913,2.9913,2.9913,2.9913,2.9913,2.9913,2.9913,2.9913,2.9913,2.9913,2.9913,2.9913,2.9913,2.9913,2.9913,2.9913,2.9913,2.9913,2.9913,2.9913,2.9913,2.9913,2.9913,2.9913,2.9913,2.9913,2.9913,2.9913,2.9913,2.9913,3.0303,3.1168,3.2086,3.2734,3.3336,3.3951,3.4417,3.562,3.549,3.6442,3.8186,3.0795,3.0768,3.0621,3.0614,3.0581,3.06,3.06,3.0574,3.0467,3.0319,3.01,2.998,2.9913,2.9967,3.0047,3.0087,3.0127,3.0261,3.0234,3.0167,3.0114,3.0127,3.0114,3.0114,3.0127,3.0114,3.0114,3.0127,3.0127,3.0287,3.0341,3.0261,3.0207,3.01,3.0087,3.002,2.9927,2.9913,2.9927,2.9913,2.9913,2.9913,2.9913,2.9913,2.9913,2.9913,2.9913,2.9913,2.9913,2.9913,2.9913,2.9913,2.9913,2.9913,2.9913,2.9913,2.9913,2.9913,2.9913,2.9913,2.9913,2.9913,2.9913,2.9913,2.9913,2.9913,2.9913,2.9913,2.9913,2.9913,2.9913,2.9913,2.9913,2.9913,2.9913,2.9913,2.9913,2.9913,2.9913,2.9913,2.9913,2.9913,2.9913,2.9913,2.9913,2.9913,2.9913,2.9913,2.9913,2.9913,2.9913,2.9913,2.9913,2.9913,2.9913,2.9913,2.9913,2.9913,2.9913,2.9913,2.9913,2.9913,2.9913,2.9958,3.0526,3.1745,3.2528,3.3175,3.4198,3.5201,3.5229,3.536,3.5055,3.5229,3.763,3.0929,3.0902,3.0862,3.0742,3.0627,3.0742,3.0849,3.0808,3.0595,3.0507,3.044,3.0167,3.002,3.002,3.0199,3.0319,3.0413,3.0421,3.0493,3.0507,3.0421,3.0408,3.0408,3.0467,3.0467,3.0421,3.0467,3.0453,3.0421,3.0568,3.0662,3.0715,3.0595,3.0453,3.0327,3.0167,3.0007,3.0007,2.998,2.9927,2.9913,2.9913,2.9913,2.9913,2.9913,2.9913,2.9913,2.9913,2.9913,2.9913,2.9913,2.9913,2.9913,2.9913,2.9913,2.9913,2.9913,2.9913,2.9913,2.9913,2.9913,2.9913,2.9913,2.9913,2.9913,2.9913,2.9913,2.9913,2.9913,2.9913,2.9913,2.9913,2.9913,2.9913,2.9913,2.9913,2.9913,2.9913,2.9913,2.9913,2.9913,2.9913,2.9913,2.9913,2.9913,2.9913,2.9913,2.9913,2.9913,2.9913,2.9913,2.9913,2.9913,2.9913,2.9913,2.9913,2.9913,2.9913,2.9913,2.9913,2.9913,2.9913,2.9958,3.0137,3.087,3.1612,3.3131,3.417,3.5245,3.5923,3.7046,3.7029,3.6183,3.6701,3.8527,3.155,3.149,3.1249,3.1236,3.1403,3.1223,3.1142,3.1142,3.1076,3.0942,3.0728,3.0635,3.0408,2.9927,2.9953,3.0154,3.056,3.0595,3.0662,3.0688,3.0702,3.0715,3.0715,3.0715,3.0715,3.0715,3.0715,3.0715,3.0742,3.0795,3.0808,3.0835,3.0808,3.0702,3.0662,3.0461,3.0306,3.0221,3.006,2.9967,2.994,2.9927,2.9913,2.9913,2.9913,2.9913,2.9913,2.9913,2.9913,2.9913,2.9913,2.9913,2.9913,2.9913,2.9913,2.9913,2.9913,2.9913,2.9913,2.9913,2.9913,2.9913,2.9913,2.9913,2.9913,2.9913,2.9913,2.9913,2.9913,2.9913,2.9913,2.9913,2.9913,2.9913,2.9913,2.9913,2.9913,2.9913,2.9913,2.9913,2.9913,2.9913,2.9913,2.9913,2.9913,2.9913,2.9913,2.9913,2.9913,2.9913,2.9913,2.9913,2.9913,2.9913,2.9913,2.9913,2.9913,2.9913,2.9913,2.9913,2.9913,2.9913,3.0003,3.0093,3.0272,3.0781,3.2425,3.4635,3.5027,3.588,3.8417,3.914,3.8075,3.8118,3.9921]},{"header":{"parameterUnit":"m.s-1","parameterCategory":1,"la1":31.0,"la2":29.5877,"lo1":-88.7671,"lo2":-86.6584,"dx":0.0162,"dy":0.0185,"nx":115,"ny":88,"refTime":"2022-11-09T18:00:00:Z","depth":0,"parameterNumber":3,"parameterNumberName":"V-component_of_WINDS"},"data":[0.0,0.0,0.0,0.0,0.0,0.0,0.0,0.0,0.0,0.0,0.0,0.0,0.0,0.0,0.0,0.0,0.0,0.0,0.0,0.0,0.0,0.0,0.0,0.0,0.0,0.0,0.0,0.0,0.0,0.0,0.0,0.0,0.0,0.0,0.0,0.0,0.0,0.0,0.0,0.0,0.0,0.0,0.0,0.0,0.0,0.0,0.0,0.0,0.0,0.0,0.0,0.0,0.0,0.0,0.0,0.0,0.0,0.0,0.0,0.0,0.0,0.0,0.0,0.0,0.0,0.0,0.0,0.0,0.0,0.0,0.0,0.0,0.0,0.0,0.0,0.0,0.0,0.0,0.0,0.0,0.0,0.0,0.0,0.0,0.0,0.0,0.0,0.0,0.0,0.0,0.0,0.0,0.0,0.0,0.0,0.0,0.0,0.0,0.0,0.0,0.0,0.0,0.0,0.0,0.0,0.0,0.0,0.0,0.0,0.0,0.0,0.0,0.0,0.0,0.0,0.0,0.0,0.0,0.0,0.0,0.0,0.0,0.0,0.0,0.0,0.0,0.0,0.0,0.0,0.0,0.0,0.0,0.0,0.0,0.0,0.0,0.0,0.0,0.0,0.0,0.0,0.0,0.0,0.0,0.0,0.0,0.0,0.0,0.0,0.0,0.0,0.0,0.0,0.0,0.0,0.0,0.0,0.0,0.0,0.0,0.0,0.0,0.0,0.0,0.0,0.0,0.0,0.0,0.0,0.0,0.0,0.0,0.0,0.0,0.0,0.0,0.0,0.0,0.0,0.0,0.0,0.0,0.0,0.0,0.0,0.0,0.0,0.0,0.0,0.0,0.0,0.0,0.0,0.0,0.0,0.0,0.0,0.0,0.0,0.0,0.0,0.0,0.0,0.0,0.0,0.0,0.0,0.0,0.0,0.0,0.0,0.0,0.0,0.0,0.0,0.0,0.0,0.0,0.0,0.0,0.0,0.0,0.0,0.0,0.0,0.0,0.0,0.0,0.0,0.0,0.0,0.0,0.0,0.0,0.0,0.0,0.0,0.0,0.0,0.0,0.0,0.0,0.0,0.0,0.0,0.0,0.0,0.0,0.0,0.0,0.0,0.0,0.0,0.0,0.0,0.0,0.0,0.0,0.0,0.0,0.0,0.0,0.0,0.0,0.0,0.0,0.0,0.0,0.0,0.0,0.0,0.0,0.0,0.0,0.0,0.0,0.0,0.0,0.0,0.0,0.0,0.0,0.0,0.0,0.0,0.0,0.0,0.0,0.0,0.0,0.0,0.0,0.0,0.0,0.0,0.0,0.0,0.0,0.0,0.0,0.0,0.0,0.0,0.0,0.0,0.0,0.0,0.0,0.0,0.0,0.0,0.0,0.0,0.0,0.0,0.0,0.0,0.0,0.0,0.0,0.0,0.0,0.0,0.0,0.0,0.0,0.0,0.0,0.0,0.0,0.0,0.0,0.0,0.0,0.0,0.0,0.0,0.0,0.0,0.0,0.0,0.0,0.0,0.0,0.0,0.0,0.0,0.0,0.0,0.0,0.0,0.0,0.0,0.0,0.0,0.0,0.0,0.0,0.0,0.0,0.0,0.0,0.0,0.0,0.0,0.0,0.0,0.0,0.0,0.0,0.0,0.0,0.0,0.0,0.0,0.0,0.0,0.0,0.0,0.0,0.0,0.0,0.0,0.0,0.0,0.0,0.0,0.0,0.0,0.0,0.0,0.0,0.0,0.0,0.0,0.0,0.0,0.0,0.0,0.0,0.0,0.0,0.0,0.0,0.0,0.0,0.0,0.0,0.0,0.0,0.0,0.0,0.0,0.0,0.0,0.0,0.0,0.0,0.0,0.0,0.0,0.0,0.0,0.0,0.0,0.0,0.0,0.0,0.0,0.0,0.0,0.0,0.0,0.0,0.0,0.0,0.0,0.0,0.0,0.0,0.0,0.0,0.0,0.0,0.0,0.0,0.0,0.0,0.0,0.0,0.0,0.0,0.0,0.0,0.0,0.0,0.0,0.0,0.0,0.0,0.0,0.0,0.0,0.0,0.0,0.0,0.0,0.0,0.0,0.0,0.0,0.0,0.0,0.0,0.0,0.0,0.0,0.0,0.0,0.0,0.0,0.0,0.0,0.0,0.0,0.0,0.0,0.0,0.0,0.0,0.0,0.0,0.0,0.0,0.0,0.0,0.0,0.0,0.0,0.0,0.0,0.0,0.0,0.0,0.0,0.0,0.0,0.0,0.0,0.0,0.0,0.0,0.0,0.0,0.0,0.0,0.0,0.0,0.0,0.0,0.0,0.0,0.0,0.0,0.0,0.0,0.0,0.0,0.0,0.0,0.0,0.0,0.0,0.0,0.0,0.0,0.0,0.0,0.0,0.0,0.0,0.0,0.0,0.0,0.0,0.0,0.0,0.0,0.0,0.0,0.0,0.0,0.0,0.0,0.0,0.0,0.0,0.0,0.0,0.0,0.0,0.0,0.0,0.0,0.0,0.0,0.0,0.0,0.0,0.0,0.0,0.0,0.0,0.0,0.0,0.0,0.0,0.0,0.0,0.0,0.0,0.0,0.0,0.0,0.0,0.0,0.0,0.0,0.0,0.0,0.0,0.0,0.0,0.0,0.0,0.0,0.0,0.0,0.0,0.0,0.0,0.0,0.0,0.0,0.0,0.0,0.0,0.0,0.0,0.0,0.0,0.0,0.0,0.0,0.0,0.0,0.0,0.0,0.0,0.0,0.0,0.0,0.0,0.0,0.0,0.0,0.0,0.0,0.0,0.0,0.0,0.0,0.0,0.0,0.0,0.0,0.0,0.0,0.0,0.0,0.0,0.0,0.0,0.0,0.0,0.0,0.0,0.0,0.0,0.0,0.0,0.0,0.0,0.0,0.0,0.0,0.0,0.0,0.0,0.0,0.0,0.0,0.0,0.0,0.0,0.0,0.0,0.0,0.0,0.0,0.0,0.0,0.0,0.0,0.0,0.0,0.0,0.0,0.0,0.0,0.0,0.0,0.0,0.0,0.0,0.0,0.0,0.0,0.0,0.0,0.0,0.0,0.0,0.0,0.0,0.0,0.0,0.0,0.0,0.0,0.0,0.0,0.0,0.0,0.0,0.0,0.0,0.0,0.0,0.0,0.0,0.0,0.0,0.0,0.0,0.0,0.0,0.0,0.0,0.0,0.0,0.0,0.0,0.0,0.0,0.0,0.0,0.0,0.0,0.0,0.0,0.0,0.0,0.0,0.0,0.0,0.0,0.0,0.0,0.0,0.0,0.0,0.0,0.0,0.0,0.0,0.0,0.0,0.0,0.0,0.0,0.0,0.0,0.0,0.0,0.0,0.0,0.0,0.0,0.0,0.0,0.0,0.0,0.0,0.0,0.0,0.0,0.0,0.0,0.0,0.0,0.0,0.0,0.0,0.0,0.0,0.0,0.0,0.0,0.0,0.0,0.0,0.0,0.0,0.0,0.0,0.0,0.0,0.0,0.0,0.0,0.0,0.0,0.0,0.0,0.0,0.0,0.0,0.0,0.0,0.0,0.0,0.0,0.0,0.0,0.0,0.0,0.0,0.0,0.0,0.0,0.0,0.0,0.0,0.0,0.0,0.0,0.0,0.0,0.0,0.0,0.0,0.0,0.0,0.0,0.0,0.0,0.0,0.0,0.0,0.0,0.0,0.0,0.0,0.0,0.0,0.0,0.0,0.0,0.0,0.0,0.0,0.0,0.0,0.0,0.0,0.0,0.0,0.0,0.0,0.0,0.0,0.0,0.0,0.0,0.0,0.0,0.0,0.0,0.0,0.0,0.0,0.0,0.0,0.0,0.0,0.0,0.0,0.0,0.0,0.0,0.0,0.0,0.0,0.0,0.0,0.0,0.0,0.0,0.0,0.0,0.0,0.0,0.0,0.0,0.0,0.0,0.0,0.0,0.0,0.0,0.0,0.0,0.0,0.0,0.0,0.0,0.0,0.0,0.0,0.0,0.0,0.0,0.0,0.0,0.0,0.0,0.0,0.0,0.0,0.0,0.0,0.0,0.0,0.0,0.0,0.0,0.0,0.0,0.0,0.0,0.0,0.0,0.0,0.0,0.0,0.0,0.0,0.0,0.0,0.0,0.0,0.0,0.0,0.0,0.0,0.0,0.0,0.0,0.0,0.0,0.0,0.0,0.0,0.0,0.0,0.0,0.0,0.0,0.0,0.0,0.0,0.0,0.0,0.0,0.0,0.0,0.0,0.0,0.0,0.0,0.0,1.6385,0.0,0.0,0.0,1.7146,0.0,0.0,0.0,0.0,0.0,0.0,0.0,0.0,0.0,0.0,0.0,0.0,0.0,0.0,0.0,0.0,0.0,0.0,0.0,0.0,0.0,0.0,0.0,0.0,0.0,0.0,0.0,0.0,0.0,0.0,0.0,0.0,0.0,0.0,0.0,0.0,0.0,0.0,0.0,0.0,0.0,0.0,0.0,0.0,0.0,0.0,0.0,0.0,0.0,0.0,0.0,0.0,0.0,0.0,0.0,0.0,0.0,0.0,0.0,0.0,0.0,0.0,0.0,0.0,0.0,0.0,0.0,0.0,0.0,0.0,0.0,0.0,0.0,0.0,0.0,0.0,0.0,0.0,0.0,0.0,0.0,0.0,0.0,0.0,0.0,0.0,0.0,0.0,0.0,0.0,0.0,0.0,0.0,0.0,0.0,0.0,0.0,0.0,0.0,0.0,0.0,0.0,0.0,0.0,0.0,0.0,0.0,0.0,0.0,0.0,1.65,1.65,1.6575,1.6748,1.6986,0.0,0.0,0.0,0.0,0.0,0.0,0.0,0.0,0.0,0.0,0.0,0.0,0.0,0.0,0.0,0.0,0.0,0.0,0.0,0.0,0.0,0.0,0.0,0.0,0.0,0.0,0.0,0.0,0.0,0.0,0.0,0.0,0.0,0.0,0.0,0.0,0.0,0.0,0.0,0.0,0.0,0.0,0.0,0.0,0.0,0.0,0.0,0.0,0.0,0.0,0.0,0.0,0.0,0.0,0.0,0.0,0.0,0.0,0.0,0.0,0.0,0.0,0.0,0.0,0.0,0.0,0.0,0.0,0.0,0.0,0.0,0.0,0.0,0.0,0.0,0.0,0.0,0.0,0.0,0.0,0.0,0.0,0.0,0.0,0.0,0.0,0.0,0.0,0.0,0.0,0.0,0.0,0.0,0.0,0.0,0.0,0.0,0.0,0.0,0.0,0.0,0.0,0.0,0.0,0.0,0.0,0.0,0.0,0.0,0.0,0.0,0.0,1.6968,1.7044,1.7029,0.0,0.0,0.0,0.0,0.0,0.0,0.0,0.0,0.0,0.0,0.0,0.0,0.0,0.0,0.0,0.0,0.0,0.0,0.0,0.0,0.0,0.0,0.0,0.0,0.0,0.0,0.0,0.0,0.0,0.0,0.0,0.0,0.0,0.0,0.0,0.0,0.0,0.0,0.0,0.0,0.0,0.0,0.0,0.0,0.0,0.0,0.0,0.0,0.0,0.0,0.0,0.0,0.0,0.0,0.0,0.0,0.0,0.0,0.0,0.0,0.0,0.0,0.0,0.0,0.0,0.0,0.0,0.0,0.0,0.0,0.0,0.0,0.0,0.0,0.0,0.0,0.0,0.0,0.0,0.0,0.0,0.0,0.0,0.0,0.0,0.0,0.0,0.0,0.0,0.0,0.0,0.0,0.0,0.0,0.0,0.0,0.0,0.0,0.0,0.0,0.0,0.0,0.0,0.0,0.0,0.0,0.0,0.0,0.0,0.0,1.7379,1.7502,1.7996,0.0,1.798,0.0,0.0,0.0,0.0,0.0,0.0,0.0,0.0,0.0,0.0,0.0,0.0,0.0,0.0,0.0,0.0,0.0,0.0,0.0,0.0,0.0,0.0,0.0,0.0,0.0,0.0,0.0,0.0,0.0,0.0,0.0,0.0,0.0,0.0,0.0,0.0,0.0,0.0,0.0,0.0,0.0,0.0,0.0,0.0,0.0,0.0,0.0,0.0,0.0,0.0,0.0,0.0,0.0,0.0,0.0,0.0,0.0,0.0,0.0,0.0,0.0,0.0,0.0,0.0,0.0,0.0,0.0,0.0,0.0,0.0,0.0,0.0,0.0,0.0,0.0,0.0,0.0,0.0,0.0,0.0,0.0,0.0,0.0,0.0,0.0,0.0,0.0,0.0,0.0,0.0,0.0,0.0,0.0,0.0,0.0,0.0,0.0,0.0,0.0,0.0,0.0,0.0,0.0,0.0,0.0,0.0,0.0,0.0,0.0,0.0,1.8141,1.821,1.8648,1.8719,0.0,0.0,0.0,0.0,0.0,0.0,0.0,0.0,0.0,0.0,0.0,0.0,0.0,0.0,0.0,0.0,0.0,0.0,0.0,0.0,0.0,0.0,0.0,0.0,0.0,0.0,0.0,0.0,0.0,0.0,0.0,0.0,0.0,0.0,0.0,0.0,0.0,0.0,0.0,0.0,0.0,0.0,0.0,0.0,0.0,0.0,0.0,0.0,0.0,0.0,0.0,0.0,0.0,0.0,0.0,0.0,0.0,0.0,0.0,0.0,0.0,0.0,0.0,0.0,0.0,0.0,0.0,0.0,0.0,0.0,0.0,0.0,0.0,0.0,0.0,0.0,0.0,0.0,0.0,0.0,0.0,0.0,0.0,0.0,0.0,0.0,0.0,0.0,0.0,0.0,0.0,0.0,0.0,0.0,0.0,0.0,0.0,0.0,0.0,0.0,0.0,0.0,0.0,0.0,0.0,0.0,0.0,0.0,0.0,0.0,1.8653,1.9001,1.9215,1.9423,1.9454,1.9244,0.0,0.0,0.0,0.0,0.0,0.0,0.0,0.0,0.0,0.0,0.0,0.0,0.0,0.0,0.0,0.0,0.0,0.0,0.0,0.0,0.0,0.0,0.0,0.0,0.0,0.0,0.0,0.0,0.0,0.0,0.0,0.0,0.0,0.0,0.0,0.0,0.0,0.0,0.0,0.0,0.0,0.0,0.0,0.0,0.0,0.0,0.0,0.0,0.0,0.0,0.0,0.0,0.0,0.0,0.0,0.0,0.0,0.0,0.0,0.0,0.0,0.0,0.0,0.0,0.0,0.0,0.0,0.0,0.0,0.0,0.0,0.0,0.0,0.0,0.0,0.0,0.0,0.0,0.0,0.0,0.0,0.0,0.0,0.0,0.0,0.0,0.0,0.0,0.0,0.0,0.0,0.0,0.0,0.0,0.0,0.0,0.0,0.0,0.0,0.0,0.0,0.0,0.0,0.0,0.0,0.0,0.0,0.0,1.9125,1.9526,2.0054,2.0639,2.0538,2.0568,0.0,0.0,0.0,0.0,0.0,0.0,0.0,0.0,0.0,0.0,0.0,0.0,0.0,0.0,0.0,0.0,0.0,0.0,0.0,0.0,0.0,0.0,0.0,0.0,0.0,0.0,0.0,0.0,0.0,0.0,0.0,0.0,0.0,0.0,0.0,0.0,0.0,0.0,0.0,0.0,0.0,0.0,0.0,0.0,0.0,0.0,0.0,0.0,0.0,0.0,0.0,0.0,0.0,0.0,0.0,0.0,0.0,0.0,0.0,0.0,0.0,0.0,0.0,0.0,0.0,0.0,0.0,0.0,0.0,0.0,0.0,0.0,0.0,0.0,0.0,0.0,0.0,0.0,0.0,0.0,0.0,0.0,0.0,0.0,0.0,0.0,0.0,0.0,0.0,0.0,0.0,0.0,0.0,0.0,0.0,0.0,0.0,0.0,0.0,0.0,0.0,0.0,0.0,0.0,0.0,0.0,0.0,0.0,0.0,2.0001,2.043,2.0855,2.1164,2.1348,2.1377,0.0,0.0,0.0,0.0,0.0,0.0,0.0,0.0,0.0,0.0,0.0,0.0,0.0,0.0,0.0,0.0,0.0,0.0,0.0,0.0,0.0,0.0,0.0,0.0,0.0,0.0,0.0,0.0,0.0,0.0,0.0,0.0,0.0,0.0,0.0,0.0,0.0,0.0,0.0,0.0,0.0,0.0,0.0,0.0,0.0,0.0,0.0,0.0,0.0,0.0,0.0,0.0,0.0,0.0,0.0,0.0,0.0,0.0,0.0,0.0,0.0,0.0,0.0,0.0,0.0,0.0,0.0,0.0,0.0,0.0,0.0,0.0,0.0,0.0,0.0,0.0,0.0,0.0,0.0,0.0,0.0,0.0,0.0,0.0,0.0,0.0,0.0,0.0,0.0,0.0,0.0,0.0,0.0,0.0,0.0,0.0,0.0,0.0,0.0,0.0,0.0,0.0,0.0,0.0,0.0,0.0,0.0,0.0,0.0,2.147,2.1841,2.2069,2.2217,2.2511,2.2519,0.0,0.0,0.0,0.0,0.0,0.0,0.0,0.0,0.0,0.0,0.0,0.0,0.0,0.0,0.0,0.0,0.0,0.0,0.0,0.0,0.0,0.0,0.0,0.0,0.0,0.0,0.0,0.0,0.0,0.0,0.0,0.0,0.0,0.0,0.0,0.0,0.0,0.0,0.0,0.0,0.0,0.0,0.0,0.0,0.0,0.0,0.0,0.0,0.0,0.0,0.0,0.0,0.0,0.0,0.0,0.0,0.0,0.0,0.0,0.0,0.0,0.0,0.0,0.0,0.0,0.0,0.0,0.0,0.0,0.0,0.0,0.0,0.0,0.0,0.0,0.0,0.0,0.0,0.0,0.0,0.0,0.0,0.0,0.0,0.0,0.0,0.0,0.0,0.0,0.0,0.0,0.0,0.0,0.0,0.0,0.0,0.0,0.0,0.0,0.0,0.0,0.0,0.0,0.0,0.0,0.0,0.0,0.0,2.2627,2.3638,2.3695,2.3787,2.3915,2.4028,2.3968,0.0,0.0,0.0,0.0,0.0,0.0,0.0,0.0,0.0,0.0,0.0,0.0,0.0,0.0,0.0,0.0,0.0,0.0,0.0,0.0,0.0,0.0,0.0,0.0,0.0,0.0,0.0,0.0,0.0,0.0,0.0,0.0,0.0,0.0,0.0,0.0,0.0,0.0,0.0,0.0,0.0,0.0,0.0,0.0,0.0,0.0,0.0,0.0,0.0,0.0,0.0,0.0,0.0,0.0,0.0,0.0,0.0,0.0,0.0,0.0,0.0,0.0,0.0,0.0,0.0,0.0,0.0,0.0,0.0,0.0,0.0,0.0,0.0,0.0,0.0,0.0,0.0,0.0,0.0,0.0,0.0,0.0,0.0,0.0,0.0,0.0,0.0,0.0,0.0,0.0,0.0,0.0,0.0,0.0,0.0,0.0,0.0,0.0,0.0,0.0,0.0,0.0,0.0,0.0,0.0,0.0,0.0,0.0,0.0,2.4749,2.5185,2.5465,2.5477,2.5337,2.5023,0.0,0.0,0.0,0.0,0.0,0.0,0.0,0.0,0.0,0.0,0.0,0.0,0.0,0.0,0.0,0.0,0.0,0.0,0.0,0.0,0.0,0.0,0.0,0.0,0.0,0.0,0.0,0.0,0.0,0.0,0.0,0.0,0.0,0.0,0.0,0.0,0.0,0.0,0.0,0.0,0.0,0.0,0.0,0.0,0.0,0.0,0.0,0.0,0.0,0.0,0.0,0.0,0.0,0.0,0.0,0.0,0.0,0.0,0.0,0.0,0.0,0.0,0.0,0.0,0.0,0.0,0.0,0.0,0.0,0.0,0.0,0.0,0.0,0.0,0.0,0.0,0.0,0.0,0.0,0.0,0.0,0.0,0.0,0.0,0.0,0.0,0.0,0.0,0.0,0.0,0.0,0.0,0.0,0.0,0.0,0.0,0.0,0.0,0.0,0.0,0.0,0.0,0.0,0.0,0.0,0.0,0.0,0.0,0.0,2.851,2.8339,2.8282,2.8324,2.7926,2.7214,2.6193,0.0,0.0,0.0,0.0,0.0,0.0,0.0,0.0,0.0,0.0,0.0,0.0,0.0,0.0,0.0,0.0,0.0,0.0,0.0,0.0,0.0,0.0,0.0,0.0,0.0,0.0,0.0,0.0,0.0,0.0,0.0,0.0,0.0,0.0,0.0,0.0,0.0,0.0,0.0,0.0,0.0,0.0,0.0,0.0,0.0,0.0,0.0,0.0,0.0,0.0,0.0,0.0,0.0,0.0,0.0,0.0,0.0,0.0,0.0,0.0,0.0,0.0,0.0,0.0,0.0,0.0,0.0,0.0,0.0,0.0,0.0,0.0,0.0,0.0,0.0,0.0,0.0,0.0,0.0,0.0,0.0,0.0,0.0,0.0,0.0,0.0,0.0,0.0,0.0,0.0,0.0,0.0,0.0,0.0,0.0,0.0,0.0,0.0,0.0,0.0,0.0,0.0,0.0,0.0,0.0,0.0,0.0,0.0,3.4252,3.2907,3.2183,3.21,3.1439,3.0248,0.0,0.0,0.0,0.0,0.0,0.0,0.0,0.0,0.0,0.0,0.0,0.0,0.0,0.0,0.0,0.0,0.0,0.0,0.0,0.0,0.0,0.0,0.0,0.0,0.0,0.0,0.0,0.0,0.0,0.0,0.0,0.0,0.0,0.0,0.0,0.0,0.0,0.0,0.0,0.0,0.0,0.0,0.0,0.0,0.0,0.0,0.0,0.0,0.0,0.0,0.0,0.0,0.0,0.0,0.0,0.0,0.0,0.0,0.0,0.0,0.0,0.0,0.0,0.0,0.0,0.0,0.0,0.0,0.0,0.0,0.0,0.0,0.0,0.0,0.0,0.0,0.0,0.0,0.0,0.0,0.0,0.0,0.0,0.0,0.0,0.0,0.0,0.0,0.0,0.0,0.0,0.0,0.0,0.0,0.0,0.0,0.0,0.0,0.0,0.0,0.0,0.0,0.0,0.0,0.0,0.0,0.0,0.0,0.0,3.7182,3.7828,3.7112,3.5014,3.3897,3.2212,0.0,0.0,0.0,0.0,0.0,0.0,0.0,0.0,0.0,0.0,0.0,0.0,0.0,0.0,0.0,0.0,0.0,0.0,0.0,0.0,0.0,0.0,0.0,0.0,0.0,0.0,0.0,0.0,0.0,0.0,0.0,0.0,0.0,0.0,0.0,0.0,0.0,0.0,0.0,0.0,0.0,0.0,0.0,0.0,0.0,0.0,0.0,0.0,0.0,0.0,0.0,0.0,0.0,0.0,0.0,0.0,0.0,0.0,0.0,0.0,0.0,0.0,0.0,0.0,0.0,0.0,0.0,0.0,0.0,0.0,0.0,0.0,0.0,0.0,0.0,0.0,0.0,0.0,0.0,0.0,0.0,0.0,0.0,0.0,0.0,0.0,0.0,0.0,0.0,0.0,0.0,0.0,0.0,0.0,0.0,0.0,0.0,0.0,0.0,0.0,0.0,0.0,0.0,0.0,0.0,0.0,0.0,0.0,3.7255,3.92,4.0565,4.0412,3.8728,3.6667,3.4449,0.0,0.0,0.0,0.0,0.0,0.0,0.0,0.0,0.0,0.0,0.0,0.0,0.0,0.0,0.0,0.0,0.0,0.0,0.0,0.0,0.0,0.0,0.0,0.0,0.0,0.0,0.0,0.0,0.0,0.0,0.0,0.0,0.0,0.0,0.0,0.0,0.0,0.0,0.0,0.0,0.0,0.0,0.0,0.0,0.0,0.0,0.0,0.0,0.0,0.0,0.0,0.0,0.0,0.0,0.0,0.0,0.0,0.0,0.0,0.0,0.0,0.0,0.0,0.0,0.0,0.0,0.0,0.0,0.0,0.0,0.0,0.0,0.0,0.0,0.0,0.0,0.0,0.0,0.0,0.0,0.0,0.0,0.0,0.0,0.0,0.0,0.0,0.0,0.0,0.0,0.0,0.0,0.0,0.0,0.0,0.0,0.0,0.0,0.0,0.0,0.0,0.0,0.0,0.0,0.0,0.0,0.0,0.0,3.8721,4.0756,4.1972,4.262,4.2481,3.9409,3.6776,0.0,0.0,0.0,0.0,0.0,0.0,0.0,0.0,0.0,0.0,0.0,0.0,0.0,0.0,0.0,0.0,0.0,0.0,0.0,0.0,0.0,0.0,0.0,0.0,0.0,0.0,0.0,0.0,0.0,0.0,0.0,0.0,0.0,0.0,0.0,0.0,0.0,0.0,0.0,0.0,0.0,0.0,0.0,0.0,0.0,0.0,0.0,0.0,0.0,0.0,0.0,0.0,0.0,0.0,0.0,0.0,0.0,0.0,0.0,0.0,0.0,0.0,0.0,0.0,0.0,0.0,0.0,0.0,0.0,0.0,0.0,0.0,0.0,0.0,0.0,0.0,0.0,0.0,0.0,0.0,0.0,0.0,0.0,0.0,0.0,0.0,0.0,0.0,0.0,0.0,0.0,0.0,0.0,0.0,0.0,0.0,0.0,0.0,0.0,0.0,0.0,0.0,0.0,0.0,0.0,0.0,0.0,0.0,4.0965,4.3399,4.3748,4.3898,4.3898,4.1205,3.8601,0.0,0.0,0.0,0.0,0.0,0.0,0.0,0.0,0.0,0.0,0.0,0.0,0.0,0.0,0.0,0.0,0.0,0.0,0.0,0.0,0.0,0.0,0.0,0.0,0.0,0.0,0.0,0.0,0.0,0.0,0.0,0.0,0.0,0.0,0.0,0.0,0.0,0.0,0.0,0.0,0.0,0.0,0.0,0.0,0.0,0.0,0.0,0.0,2.3016,0.0,0.0,0.0,0.0,0.0,0.0,0.0,0.0,0.0,0.0,0.0,0.0,0.0,0.0,0.0,0.0,0.0,0.0,0.0,0.0,0.0,0.0,0.0,0.0,0.0,0.0,0.0,0.0,0.0,0.0,0.0,0.0,0.0,0.0,0.0,0.0,0.0,0.0,0.0,0.0,0.0,0.0,0.0,0.0,0.0,0.0,0.0,0.0,0.0,0.0,0.0,0.0,0.0,0.0,0.0,0.0,0.0,0.0,0.0,4.1983,4.4207,4.4616,4.4616,4.4267,4.297,4.0696,0.0,0.0,0.0,0.0,0.0,0.0,0.0,0.0,0.0,0.0,0.0,0.0,0.0,0.0,0.0,0.0,0.0,0.0,0.0,0.0,0.0,0.0,0.0,0.0,0.0,0.0,0.0,0.0,0.0,0.0,0.0,0.0,0.0,0.0,0.0,0.0,0.0,0.0,0.0,0.0,0.0,0.0,0.0,0.0,0.0,0.0,0.0,0.0,0.0,0.0,0.0,0.0,0.0,0.0,0.0,0.0,0.0,0.0,0.0,0.0,0.0,0.0,0.0,0.0,0.0,0.0,0.0,0.0,0.0,0.0,0.0,0.0,0.0,0.0,0.0,0.0,0.0,0.0,0.0,0.0,0.0,0.0,0.0,0.0,0.0,0.0,0.0,0.0,0.0,0.0,0.0,0.0,0.0,0.0,0.0,0.0,0.0,0.0,0.0,0.0,0.0,0.0,0.0,0.0,0.0,0.0,0.0,4.0804,4.2731,4.4825,4.5274,4.5164,4.4625,4.4596,4.2701,3.8721,0.0,0.0,0.0,0.0,0.0,0.0,0.0,0.0,0.0,0.0,0.0,0.0,0.0,0.0,0.0,0.0,0.0,0.0,0.0,0.0,0.0,0.0,0.0,0.0,0.0,0.0,0.0,0.0,0.0,0.0,0.0,0.0,0.0,0.0,0.0,0.0,0.0,0.0,1.9783,2.2255,0.0,0.0,0.0,0.0,0.0,0.0,0.0,0.0,2.9073,0.0,0.0,0.0,0.0,0.0,0.0,0.0,0.0,0.0,0.0,0.0,0.0,0.0,0.0,0.0,0.0,0.0,0.0,0.0,0.0,0.0,0.0,0.0,0.0,0.0,0.0,0.0,0.0,0.0,0.0,0.0,0.0,0.0,0.0,0.0,0.0,0.0,0.0,0.0,0.0,0.0,0.0,0.0,0.0,0.0,0.0,0.0,0.0,0.0,0.0,0.0,0.0,0.0,0.0,0.0,0.0,4.1692,4.2581,4.4476,4.7519,4.6651,4.6091,4.5971,4.5971,4.3848,3.9499,0.0,0.0,0.0,0.0,0.0,0.0,0.0,0.0,0.0,0.0,0.0,0.0,0.0,0.0,0.0,0.0,0.0,0.0,0.0,0.0,0.0,0.0,0.0,0.0,0.0,0.0,0.0,0.0,0.0,0.0,0.0,0.0,0.0,0.0,0.0,0.0,0.0,0.0,0.0,2.5198,2.7228,0.0,0.0,0.0,0.0,0.0,0.0,0.0,0.0,3.1131,0.0,0.0,0.0,0.0,0.0,0.0,0.0,0.0,0.0,0.0,0.0,0.0,0.0,0.0,0.0,0.0,0.0,0.0,0.0,0.0,0.0,0.0,0.0,0.0,0.0,0.0,0.0,0.0,0.0,0.0,0.0,0.0,0.0,0.0,0.0,0.0,0.0,0.0,0.0,0.0,0.0,0.0,0.0,0.0,0.0,0.0,0.0,0.0,0.0,0.0,0.0,0.0,0.0,0.0,0.0,4.2701,4.4177,4.6121,4.8678,4.8177,4.7519,4.6839,4.683,4.4805,0.0,0.0,0.0,0.0,0.0,0.0,0.0,0.0,0.0,0.0,0.0,0.0,0.0,0.0,0.0,0.0,0.0,0.0,0.0,0.0,0.0,0.0,0.0,0.0,0.0,0.0,0.0,0.0,0.0,0.0,0.0,0.0,0.0,0.0,0.0,0.0,0.0,0.0,0.0,0.0,2.7732,3.0102,3.2219,0.0,0.0,0.0,0.0,0.0,0.0,3.4629,3.4092,0.0,0.0,0.0,0.0,0.0,0.0,0.0,0.0,0.0,0.0,0.0,0.0,0.0,0.0,0.0,0.0,0.0,0.0,0.0,0.0,0.0,0.0,0.0,0.0,0.0,0.0,0.0,0.0,0.0,0.0,0.0,0.0,0.0,0.0,0.0,0.0,0.0,0.0,0.0,0.0,0.0,0.0,0.0,0.0,0.0,0.0,0.0,0.0,0.0,0.0,0.0,0.0,0.0,0.0,0.0,4.3638,4.5553,4.7549,4.9546,4.9426,4.8798,4.7728,4.7309,4.5304,0.0,0.0,0.0,0.0,0.0,0.0,0.0,0.0,0.0,0.0,0.0,0.0,0.0,0.0,0.0,0.0,0.0,0.0,0.0,0.0,0.0,0.0,0.0,0.0,0.0,0.0,0.0,0.0,0.0,0.0,0.0,0.0,0.0,0.0,0.0,0.0,0.0,0.0,0.0,0.0,0.0,3.2809,3.5293,3.5791,0.0,0.0,0.0,0.0,3.7742,3.7458,0.0,0.0,0.0,0.0,0.0,0.0,0.0,0.0,0.0,0.0,0.0,0.0,0.0,0.0,0.0,0.0,0.0,0.0,0.0,0.0,0.0,0.0,0.0,0.0,0.0,0.0,0.0,0.0,0.0,0.0,0.0,0.0,0.0,0.0,0.0,0.0,0.0,0.0,0.0,0.0,0.0,0.0,0.0,0.0,0.0,0.0,0.0,0.0,0.0,0.0,0.0,0.0,0.0,0.0,0.0,0.0,4.4945,4.6471,4.8424,5.078,4.9875,4.9217,4.9037,4.7339,4.4855,0.0,0.0,0.0,0.0,0.0,0.0,0.0,0.0,0.0,0.0,0.0,0.0,0.0,0.0,0.0,0.0,0.0,0.0,0.0,0.0,0.0,0.0,0.0,0.0,0.0,0.0,0.0,0.0,0.0,0.0,0.0,0.0,0.0,0.0,0.0,0.0,0.0,0.0,0.0,0.0,0.0,3.5039,3.729,3.7941,3.83,0.0,0.0,3.9914,4.0534,4.0081,0.0,0.0,0.0,0.0,0.0,0.0,0.0,0.0,0.0,0.0,0.0,0.0,0.0,0.0,0.0,0.0,0.0,0.0,0.0,0.0,0.0,0.0,0.0,0.0,0.0,0.0,0.0,0.0,0.0,0.0,0.0,0.0,0.0,0.0,0.0,0.0,0.0,0.0,0.0,0.0,0.0,0.0,0.0,0.0,0.0,0.0,0.0,0.0,0.0,0.0,0.0,0.0,0.0,0.0,0.0,4.319,4.6381,4.8476,5.0421,5.2247,5.1791,5.1163,5.0391,4.8835,4.6441,0.0,0.0,0.0,0.0,0.0,0.0,0.0,0.0,0.0,0.0,0.0,0.0,0.0,0.0,0.0,0.0,0.0,0.0,0.0,0.0,0.0,0.0,0.0,0.0,0.0,0.0,0.0,0.0,0.0,0.0,0.0,0.0,0.0,0.0,0.0,0.0,0.0,0.0,0.0,0.0,0.0,0.0,3.8712,4.0017,0.0,0.0,0.0,4.1379,4.127,0.0,0.0,0.0,0.0,0.0,0.0,0.0,0.0,0.0,0.0,0.0,0.0,0.0,0.0,0.0,0.0,0.0,0.0,0.0,0.0,0.0,0.0,0.0,0.0,0.0,0.0,0.0,0.0,0.0,0.0,0.0,0.0,0.0,0.0,0.0,0.0,0.0,0.0,0.0,0.0,0.0,0.0,0.0,0.0,0.0,0.0,0.0,0.0,0.0,0.0,0.0,0.0,0.0,0.0,0.0,0.0,0.0,4.7758,5.0212,5.2073,5.3384,5.3288,5.2636,5.1445,5.0182,0.0,0.0,0.0,0.0,0.0,0.0,0.0,0.0,0.0,0.0,0.0,0.0,0.0,0.0,0.0,0.0,0.0,0.0,0.0,0.0,0.0,0.0,0.0,0.0,0.0,0.0,0.0,2.3058,0.0,0.0,0.0,0.0,0.0,0.0,0.0,0.0,0.0,0.0,0.0,0.0,0.0,0.0,3.8379,4.0121,4.1671,4.2631,0.0,0.0,4.2451,4.1972,4.2301,4.2002,0.0,0.0,0.0,0.0,0.0,0.0,0.0,0.0,0.0,0.0,0.0,0.0,0.0,0.0,0.0,0.0,0.0,0.0,0.0,0.0,0.0,0.0,0.0,0.0,0.0,0.0,0.0,0.0,0.0,0.0,0.0,0.0,0.0,0.0,0.0,0.0,0.0,0.0,0.0,0.0,0.0,0.0,0.0,0.0,0.0,0.0,0.0,0.0,0.0,0.0,0.0,0.0,0.0,0.0,4.5873,4.9097,5.1133,5.2785,5.4072,5.3528,5.2845,5.2157,5.0847,4.8903,0.0,0.0,0.0,0.0,0.0,0.0,0.0,0.0,0.0,0.0,0.0,0.0,0.0,0.0,0.0,0.0,0.0,0.0,0.0,0.0,0.0,0.0,0.0,0.0,0.0,0.0,0.0,0.0,0.0,0.0,0.0,0.0,0.0,0.0,0.0,0.0,0.0,0.0,0.0,0.0,0.0,4.0047,4.1724,4.2713,4.325,0.0,4.323,4.322,4.319,4.322,4.2801,4.1474,0.0,0.0,0.0,0.0,0.0,0.0,0.0,0.0,0.0,0.0,0.0,0.0,0.0,0.0,0.0,0.0,0.0,0.0,0.0,0.0,0.0,0.0,0.0,0.0,0.0,0.0,0.0,0.0,0.0,0.0,0.0,0.0,0.0,0.0,0.0,0.0,0.0,0.0,0.0,0.0,0.0,0.0,0.0,0.0,0.0,0.0,0.0,0.0,0.0,0.0,0.0,0.0,0.0,4.7557,5.0451,5.2426,5.4072,5.5329,5.4785,5.4102,5.3443,5.2546,5.102,0.0,0.0,0.0,0.0,0.0,0.0,0.0,0.0,0.0,0.0,0.0,0.0,0.0,0.0,0.0,0.0,0.0,0.0,0.0,0.0,0.0,0.0,0.0,0.0,0.0,0.0,0.0,0.0,3.3281,3.4697,3.4496,0.0,0.0,0.0,0.0,0.0,0.0,0.0,0.0,0.0,0.0,4.1499,4.304,4.3986,0.0,0.0,4.4526,4.4506,4.4556,4.4506,4.4107,4.2771,4.1833,0.0,0.0,0.0,0.0,0.0,0.0,0.0,0.0,0.0,0.0,0.0,0.0,0.0,0.0,0.0,0.0,0.0,0.0,0.0,0.0,0.0,0.0,0.0,0.0,0.0,0.0,0.0,0.0,0.0,0.0,0.0,0.0,0.0,0.0,0.0,0.0,0.0,0.0,0.0,0.0,0.0,0.0,0.0,0.0,0.0,0.0,0.0,0.0,0.0,0.0,0.0,0.0,4.9307,5.1892,5.3618,5.5029,5.6192,5.5564,5.488,5.4221,5.3743,5.2636,0.0,0.0,0.0,0.0,0.0,0.0,0.0,0.0,0.0,0.0,0.0,0.0,0.0,0.0,0.0,0.0,0.0,0.0,0.0,0.0,0.0,0.0,0.0,0.0,0.0,0.0,0.0,0.0,3.5857,3.6874,3.6255,0.0,0.0,0.0,0.0,0.0,0.0,0.0,0.0,0.0,0.0,4.301,4.448,4.5042,4.5274,4.5274,4.5274,4.5274,4.5274,4.5274,4.5035,4.4306,0.0,0.0,0.0,0.0,0.0,0.0,0.0,0.0,0.0,0.0,0.0,0.0,0.0,0.0,0.0,0.0,0.0,0.0,0.0,0.0,0.0,0.0,0.0,0.0,0.0,0.0,0.0,2.367,0.0,0.0,2.0307,0.0,0.0,0.0,0.0,0.0,0.0,0.0,0.0,0.0,0.0,0.0,0.0,0.0,0.0,0.0,0.0,0.0,0.0,0.0,0.0,0.0,0.0,5.0932,5.3531,5.469,5.5559,5.6218,5.5564,5.491,5.4256,5.4192,5.3539,5.2157,0.0,0.0,0.0,0.0,0.0,0.0,0.0,0.0,0.0,0.0,0.0,0.0,0.0,0.0,0.0,0.0,0.0,0.0,0.0,0.0,0.0,0.0,0.0,0.0,0.0,0.0,3.5004,3.6441,3.711,0.0,0.0,0.0,0.0,0.0,0.0,0.0,0.0,0.0,4.2644,4.3586,4.4539,4.6019,4.5753,4.5424,4.5364,4.5364,4.5334,4.5364,4.5364,4.5514,0.0,0.0,0.0,0.0,0.0,0.0,0.0,0.0,0.0,0.0,0.0,0.0,0.0,0.0,0.0,0.0,0.0,0.0,0.0,0.0,0.0,0.0,0.0,0.0,0.0,0.0,0.0,3.0311,2.7788,0.0,0.0,0.0,0.0,0.0,0.0,0.0,0.0,0.0,0.0,0.0,4.3351,4.4971,0.0,0.0,0.0,0.0,0.0,0.0,0.0,0.0,0.0,0.0,0.0,0.0,5.4055,5.5883,5.7142,5.7837,5.7951,5.7019,5.6166,5.5564,5.5508,5.4695,5.2929,0.0,0.0,0.0,0.0,0.0,0.0,0.0,0.0,0.0,0.0,0.0,0.0,0.0,0.0,0.0,0.0,0.0,0.0,0.0,0.0,0.0,0.0,0.0,0.0,0.0,3.6785,0.0,0.0,0.0,0.0,0.0,0.0,0.0,0.0,0.0,0.0,0.0,4.2555,4.4911,4.5798,4.6706,4.8087,4.8109,4.7959,0.0,0.0,0.0,0.0,0.0,0.0,0.0,0.0,0.0,0.0,0.0,0.0,0.0,0.0,4.2521,4.1014,4.0715,4.0715,4.0715,0.0,0.0,0.0,0.0,0.0,0.0,0.0,0.0,0.0,0.0,0.0,0.0,0.0,0.0,3.5383,3.2006,3.2429,0.0,0.0,0.0,0.0,0.0,0.0,0.0,0.0,4.2408,4.5531,4.8179,4.9596,5.0608,0.0,5.0885,4.9462,0.0,0.0,0.0,0.0,0.0,0.0,0.0,0.0,5.6566,5.8042,5.9184,5.9833,5.993,5.9006,5.8048,5.7203,5.6569,5.5474,5.3947,5.2187,5.0249,0.0,0.0,0.0,0.0,0.0,0.0,0.0,0.0,0.0,0.0,0.0,0.0,0.0,0.0,0.0,0.0,0.0,0.0,0.0,0.0,0.0,0.0,0.0,4.0256,0.0,0.0,0.0,0.0,0.0,0.0,0.0,0.0,0.0,4.0804,4.2723,4.498,4.7078,4.7728,4.8386,4.9434,0.0,0.0,0.0,0.0,0.0,0.0,0.0,4.9097,4.8416,4.8506,4.8498,4.8079,4.7638,4.7339,4.7339,0.0,0.0,4.4547,4.4277,4.4477,4.4457,4.4277,4.4397,4.5214,4.5244,4.5415,0.0,0.0,0.0,0.0,4.0606,0.0,0.0,0.0,4.2449,4.0354,0.0,3.7739,0.0,0.0,0.0,0.0,3.5039,3.9074,0.0,0.0,5.0685,5.2919,5.2556,5.4256,5.5154,5.5115,5.4148,5.475,5.6514,5.4147,0.0,0.0,0.0,0.0,0.0,0.0,5.8489,6.0005,6.0789,6.144,6.2034,6.137,6.044,5.9111,5.7284,5.5999,5.5234,5.3977,5.2636,5.1265,4.8215,0.0,0.0,0.0,0.0,0.0,0.0,0.0,0.0,0.0,0.0,0.0,0.0,0.0,0.0,0.0,0.0,0.0,0.0,0.0,0.0,4.2851,0.0,0.0,0.0,0.0,0.0,0.0,0.0,0.0,0.0,0.0,4.3678,4.5164,4.71,4.9037,0.0,0.0,0.0,0.0,4.9366,4.9366,4.9366,4.9366,4.9337,4.9337,4.9553,5.0069,0.0,0.0,4.9366,4.9337,4.9337,4.9366,4.9763,4.965,4.7818,4.7848,4.8207,4.8237,4.8588,4.9187,4.9247,4.8528,4.8409,4.66,0.0,0.0,0.0,0.0,4.4805,4.5734,4.711,4.7718,4.6855,4.5037,4.5482,0.0,0.0,0.0,0.0,0.0,0.0,4.658,4.9418,5.2799,5.5295,5.7017,5.8004,5.8787,5.9255,5.8965,5.9848,6.1709,6.1012,5.9088,5.6129,0.0,0.0,0.0,0.0,6.151,6.2713,6.3417,6.389,6.4064,6.2989,6.159,5.9849,5.8831,5.7511,5.5974,5.5534,5.4516,5.2719,5.1289,0.0,0.0,0.0,0.0,0.0,0.0,0.0,0.0,0.0,0.0,0.0,0.0,0.0,0.0,0.0,0.0,0.0,0.0,0.0,4.2921,4.4715,4.5544,0.0,0.0,0.0,0.0,0.0,0.0,0.0,0.0,0.0,4.757,4.7638,4.8267,0.0,0.0,5.0159,5.0817,5.078,5.0661,5.0661,5.0661,0.0,5.0009,5.0361,5.0548,5.0226,5.0428,5.0661,5.0661,5.0661,5.0661,5.0661,5.0787,5.0847,5.0787,5.0152,4.971,4.965,4.9494,4.9486,4.9823,4.977,4.9979,5.1236,4.965,4.7587,4.7138,4.7856,4.8155,4.9404,5.1312,5.1917,5.1259,4.9809,5.0588,4.862,4.4592,4.4311,0.0,0.0,0.0,5.1031,5.4152,5.5952,5.7981,6.0111,6.1071,6.1685,6.2152,6.2175,6.3338,6.5457,6.4763,6.3319,6.121,0.0,0.0,6.1084,6.258,6.3851,6.4917,6.5688,6.6235,6.6546,6.5288,6.3651,6.1695,6.1,5.9501,5.7031,5.6945,5.6174,5.4451,5.3503,5.1678,0.0,0.0,0.0,0.0,0.0,0.0,0.0,0.0,0.0,0.0,0.0,3.8362,3.914,0.0,0.0,0.0,4.2701,4.4027,4.6779,4.7527,0.0,0.0,0.0,0.0,0.0,0.0,0.0,4.7459,4.8416,4.9314,4.9965,4.9703,4.9853,5.0847,5.0996,5.1236,5.1917,0.0,5.2007,5.2007,5.1977,5.1858,5.1468,5.1714,5.1858,5.1445,5.1738,5.1953,5.2007,5.2007,5.2007,5.2007,5.2007,5.2127,5.2516,5.1947,5.1475,5.1744,5.1708,5.1791,5.2133,5.1983,5.2043,5.5682,5.523,5.0457,4.9343,5.0799,5.146,5.2852,5.4693,5.538,5.43,5.2243,5.3948,5.2127,4.7773,4.7707,0.0,5.0592,5.2908,5.5978,5.951,6.0076,6.1101,6.25,6.3688,6.4255,6.4322,6.4388,6.5644,6.7809,6.6323,6.6257,6.7639,6.61,6.4869,6.4021,6.4781,6.5697,6.6684,6.7551,6.8301,6.8956,6.7834,6.6182,6.4046,6.3492,6.1687,5.8543,5.8297,5.7678,5.6418,5.5075,5.3743,5.2366,0.0,0.0,0.0,0.0,0.0,0.0,0.0,0.0,0.0,0.0,0.0,0.0,0.0,0.0,4.5603,4.7361,0.0,5.1026,5.0637,0.0,0.0,0.0,4.9366,4.9389,4.9912,5.0069,4.9576,0.0,0.0,5.1265,5.1355,5.1642,5.239,5.2378,5.2486,5.3109,5.3139,5.3198,5.3109,5.3169,5.3169,5.2989,5.3079,5.3049,5.3019,5.3198,5.3139,5.3109,5.3109,5.3169,5.3327,5.3338,5.3465,5.3543,5.3736,5.3869,5.4599,5.4819,5.5075,5.4945,5.4611,5.4365,5.9633,5.9507,5.828,5.6831,5.5445,5.6146,5.7275,5.856,5.9325,5.927,5.8735,5.9192,5.8704,5.7511,5.6574,5.6943,5.8349,5.9831,6.1305,6.2782,6.3856,6.5072,6.6477,6.6827,6.7293,6.7831,6.7887,6.8198,6.8787,6.8366,6.8345,6.8688,6.834,6.7637,6.6714,6.6892,6.7459,6.8451,6.8719,6.8605,6.8199,6.8479,6.7357,6.4738,6.4521,6.3386,6.1146,6.0125,5.9024,5.7715,5.6416,5.5144,5.3803,5.1558,0.0,0.0,0.0,0.0,0.0,0.0,0.0,0.0,0.0,4.5074,4.5553,0.0,4.8843,0.0,4.9194,5.0159,5.1086,5.1056,0.0,0.0,5.0368,4.9979,4.9979,5.0578,5.1086,5.1468,5.2091,5.2546,5.2695,5.2749,5.3344,5.4826,5.3856,5.3019,5.3198,5.3198,5.3198,5.3258,5.3288,5.3198,5.3288,5.3198,5.3258,5.3198,5.3228,5.3198,5.3198,5.3198,5.3459,5.4326,5.4583,5.5086,5.6432,5.7177,5.7732,5.8199,5.6716,5.5052,5.5052,5.564,5.632,6.2411,6.2402,6.2105,6.141,6.0488,5.9736,5.9773,6.0408,6.0839,6.1023,6.1023,6.1023,6.1192,6.1448,6.1317,6.15,6.2093,6.3771,6.4695,6.4949,6.6122,6.7286,6.8436,6.8774,6.9316,7.0094,7.0432,7.0737,7.1041,7.1041,7.1041,7.1075,7.1075,7.0771,7.0186,6.8938,6.8712,6.9586,6.9586,6.9383,6.8944,6.9045,6.7998,6.5856,6.6068,6.5104,6.2682,6.1877,6.0738,5.9245,5.8433,5.7249,5.5695,5.4274,5.2396,0.0,0.0,0.0,0.0,0.0,0.0,0.0,0.0,0.0,0.0,0.0,5.1409,5.1073,5.1079,5.1379,5.2037,5.1828,5.1887,5.2462,5.2193,5.2103,5.2372,5.2755,5.3212,5.381,5.4483,5.5143,5.5657,5.5998,5.6715,5.8051,5.7316,5.6341,5.5554,5.5609,5.5626,5.506,5.4935,5.491,5.491,5.494,5.491,5.4985,5.5428,5.5847,5.5841,5.632,5.6909,5.7533,5.7671,5.795,5.9046,5.9534,5.9982,6.0088,5.9411,5.8382,5.7786,5.8219,5.8819,6.4778,6.4617,6.405,6.4364,6.506,6.2724,6.1804,6.1901,6.1998,6.1966,6.1879,6.1589,6.1999,6.2876,6.3754,6.408,6.4109,6.6122,6.694,6.6709,6.7821,6.8741,6.9553,7.0263,7.0939,7.1616,7.2225,7.2868,7.35,7.35,7.35,7.35,7.35,7.35,7.3398,7.0838,6.9789,7.0331,7.0454,7.0364,7.0217,6.9586,6.8538,6.7218,6.7624,6.664,6.4065,6.3573,6.2593,6.0977,6.0515,5.9594,5.8029,5.6991,5.5224,0.0,5.0849,0.0,0.0,0.0,0.0,0.0,0.0,0.0,0.0,5.2456,5.3228,5.3318,5.2785,5.2725,5.3384,5.2905,5.3097,5.4379,5.4584,5.4844,5.5585,5.5761,5.5993,5.6466,5.7129,5.8004,5.8933,5.9739,6.0372,6.0959,6.112,6.0512,5.9159,5.901,5.8739,5.7733,5.7604,5.7603,5.7588,5.7612,5.7607,5.7719,5.8547,5.945,5.935,6.0337,6.1215,6.128,6.1253,6.1354,6.1445,6.1559,6.1624,6.1792,6.2474,6.2618,6.1443,6.1245,6.1458,6.7769,6.7199,6.7054,6.6793,6.6406,6.5911,6.6048,6.6651,6.731,6.721,6.6486,6.4871,6.5115,6.6698,6.5978,6.6476,6.7981,6.8444,6.8936,6.9468,7.0276,7.1075,7.1785,7.2552,7.2935,7.3071,7.3229,7.3364,7.35,7.35,7.35,7.35,7.35,7.35,7.3432,0.0,0.0,0.0,7.1684,7.1413,7.0229,7.006,6.9553,6.8707,6.8166,0.0,6.6787,6.5224,6.3829,6.2747,6.1679,0.0,0.0,0.0,0.0,0.0,0.0,0.0,0.0,0.0,0.0,0.0,5.26,5.233,5.2067,5.2749,5.3438,5.3952,5.3892,5.4102,5.473,5.4725,5.5143,5.6361,5.6567,5.6995,5.8122,5.8712,5.9136,5.9247,5.9844,6.0329,6.0628,6.0743,6.1284,6.243,6.2978,6.3185,6.2805,6.1561,6.0588,6.0297,6.0154,6.0234,6.0274,6.025,6.0201,6.0353,6.0947,6.1511,6.1686,6.2316,6.2991,6.3334,6.3362,6.3573,6.3918,6.4384,6.4826,6.482,6.5471,6.5335,6.3013,6.3268,6.3915,7.1041,7.0657,7.0263,6.9925,0.0,6.9192,6.9226,6.9519,6.8436,6.7726,6.7277,6.6261,6.6616,6.7873,6.7221,6.7925,6.9654,7.0026,7.0601,7.1312,7.2056,7.2597,7.2935,7.3308,7.35,7.35,7.35,7.35,7.35,7.35,7.35,7.35,7.35,7.35,7.35,7.3161,7.2394,7.1289,7.1661,7.1515,7.077,7.0387,7.0026,6.962,6.8876,0.0,0.0,0.0,0.0,0.0,0.0,0.0,0.0,0.0,0.0,5.7331,5.4835,5.335,5.3174,5.3204,5.3743,5.5025,5.5739,5.5286,5.3367,5.4072,5.4845,5.5119,5.5204,5.5448,5.6072,5.6441,5.7015,5.7969,5.8672,5.9321,5.9905,6.0275,6.0705,6.1343,6.1985,6.2644,6.3254,6.3683,6.4233,6.5155,6.5631,6.5977,6.6134,6.4406,6.2778,6.2128,6.1987,6.2115,6.2451,6.2515,6.2699,6.3076,6.3897,6.45,6.4579,6.5735,6.6728,6.7001,6.7291,6.7646,6.7858,6.8233,6.847,6.8504,6.8753,6.8656,6.7178,6.662,6.6237,7.3229,7.3037,7.2462,7.2124,7.1954,7.1222,7.0906,7.0748,6.8436,0.0,0.0,6.7286,6.7624,6.8301,6.8301,6.9079,7.0398,7.1019,7.1616,7.2259,7.2992,7.3331,7.3308,7.3432,7.35,7.35,7.3612,7.368,7.368,7.3815,7.3883,7.3883,7.3883,7.3815,7.3703,7.368,7.3037,7.1751,7.1548,7.1447,7.1289,7.0703,7.042,7.0398,6.9688,6.8869,6.801,6.7678,6.7001,6.6013,6.5745,6.5101,6.3984,6.2137,6.0335,5.8702,5.681,5.5902,5.6197,5.5742,5.6081,5.7719,5.9054,5.8381,5.5,5.6139,5.695,5.6752,5.69,5.7259,5.7749,5.8295,5.8982,5.9857,6.1016,6.1833,6.2191,6.2376,6.3048,6.3782,6.4542,6.5169,6.6129,6.6741,6.7421,6.7907,6.7944,6.8301,6.8666,6.7057,6.5365,6.4552,6.4458,6.4442,6.4825,6.5041,6.5222,6.581,6.6846,6.7622,6.7905,6.9166,7.0196,6.9814,7.077,7.0962,7.1052,7.0906,7.1289,7.1289,7.1289,7.1289,7.1154,6.9958,6.8741,7.2191,7.1616,7.1492,7.1109,7.0454,6.9722,6.9417,6.9451,6.962,6.9722,6.971,6.9045,6.918,6.9857,6.9857,7.0331,7.1142,7.1255,7.1357,7.1515,7.2225,7.2563,7.2597,7.3229,7.35,7.3567,7.4153,7.4458,7.4502,7.5067,7.5405,7.5337,7.5371,7.5033,7.4468,7.4458,7.4018,7.3206,7.2586,7.1954,7.1323,7.1188,7.1142,7.1109,7.0432,6.9882,6.9491,6.8841,6.8338,6.7993,6.7948,6.7658,6.6954,6.5123,6.377,6.2986,6.1165,6.0128,6.0176,6.0104,6.0168,6.0463,6.1743,6.0886,5.7187,5.8947,5.9886,5.8882,5.9693,6.0335,6.0486,6.0604,6.1395,6.2958,6.3941,6.506,6.6497,6.7265,6.7678,6.7853,6.8287,6.8265,6.8338,6.8605,6.8707,6.8876,6.9011,6.9045,6.9125,6.8779,6.8457,6.827,6.8226,6.8293,6.8082,6.8372,6.8261,6.8528,6.9122,6.9603,6.9615,7.0423,7.0906,7.0331,7.0973,7.1142,7.0703,7.0906,7.1391,7.156,7.1594,7.156,7.1661,7.1616,7.1515,7.28,7.2462,7.209,7.1718,7.1345,7.0601,7.0275,7.0331,7.0669,7.0331,6.9586,6.9248,6.9282,6.9586,6.9586,6.9992,7.0703,7.112,7.1548,7.1954,7.2665,7.3206,7.3612,7.395,7.4086,7.4119,7.44,7.4424,7.4052,7.438,7.4492,7.4492,7.4492,7.4322,7.4018,7.3984,7.3849,7.35,7.3578,7.3443,7.3082,7.2699,7.2496,7.2462,7.1413,7.0557,7.004,6.9691,6.9287,6.8806,6.8772,6.8648,6.8376,6.6567,6.5352,6.5035,6.3265,6.2193,6.2193,6.253,6.2755,6.2787,6.4306,6.4224,6.172,6.2224,6.2492,6.1968,6.274,6.3252,6.33,6.3871,6.4685,6.555,6.659,6.7589,6.8396,6.8842,6.9079,6.9079,6.9079,6.9079,6.9079,6.9079,6.9282,6.9586,6.9992,7.0241,7.0297,7.0275,6.997,6.926,6.9079,6.9282,6.962,6.9688,6.9857,7.0173,7.0567,7.077,7.0838,7.1379,7.165,7.1515,7.1988,7.2293,7.1977,7.2597,7.298,7.3115,7.3454,7.3646,7.3747,7.3984,7.3747,7.3771,7.3703,7.3138,7.28,7.2597,7.2022,7.1819,7.1819,7.1785,7.1176,7.0128,6.9755,6.9586,6.9586,6.962,6.9992,7.0703,7.1312,7.1954,7.2665,7.3263,7.3815,7.4322,7.4356,7.4356,7.4367,7.4502,7.4322,7.3838,7.3916,7.3984,7.4007,7.3984,7.4007,7.4007,7.3984,7.4007,7.4041,7.4559,7.4695,7.4356,7.3781,7.35,7.3432,7.2394,7.1548,7.0973,7.0962,7.0601,6.9891,6.9857,6.9688,6.9328,6.7904,6.6942,6.6653,6.5361,6.4523,6.4556,6.4997,6.5298,6.5354,6.6832,6.74,6.6459,6.6013,6.5471,6.5037,6.5569,6.607,6.6148,6.6884,6.7538,6.764,6.8629,6.925,6.935,6.9485,6.962,6.9586,6.962,6.9654,6.9586,6.9586,6.9857,7.0398,7.0939,7.1255,7.1289,7.1289,7.077,7.0026,6.9586,6.9823,7.0364,7.0466,7.0669,7.1222,7.1255,7.1222,7.1323,7.1785,7.2056,7.2056,7.2631,7.2935,7.3263,7.3747,7.4255,7.4559,7.5033,7.5608,7.6014,7.6115,7.5676,7.4492,7.4468,7.4356,7.4018,7.3375,7.3297,7.3206,7.324,7.3274,7.3263,7.28,7.1718,7.1086,7.1086,7.1109,7.1515,7.2124,7.2259,7.2665,7.3308,7.3466,7.3544,7.368,7.3612,7.3578,7.3747,7.4322,7.4627,7.4559,7.51,7.5439,7.5506,7.5506,7.5439,7.5439,7.5473,7.5473,7.5473,7.5574,7.4965,7.3703,7.3534,7.35,7.35,7.3398,7.3297,7.3037,7.3229,7.2834,7.2191,7.2056,7.1481,7.0297,6.9904,6.95,6.8904,6.8592,6.8559,6.8515,6.8638,6.8583,6.8705,6.9311,6.9794,6.9659,7.022,6.9509,6.7731,6.8025,6.8618,6.8717,6.8884,6.8951,6.8974,6.959,7.0094,7.0161,7.0703,7.1086,7.1086,7.0917,7.1086,7.0917,7.0951,7.1075,7.1176,7.1413,7.156,7.1548,7.1526,7.1492,7.1188,7.1086,7.1052,7.1154,7.121,7.1278,7.1357,7.1357,7.1458,7.1616,7.1582,7.1481,7.2124,7.2191,7.2699,7.28,7.3105,7.4119,7.5033,7.5608,7.6115,7.7333,7.7638,7.7029,7.395,7.395,7.395,7.3781,7.3534,7.35,7.35,7.35,7.35,7.35,7.3432,7.2834,7.2597,7.2597,7.2597,7.2766,7.3037,7.3037,7.3206,7.35,7.35,7.3713,7.4119,7.4153,7.4356,7.4762,7.51,7.5236,7.5303,7.554,7.5676,7.5676,7.5676,7.5676,7.5676,7.5676,7.5676,7.5676,7.5676,7.5405,7.483,7.4356,7.4153,7.4119,7.3713,7.35,7.35,7.35,7.3341,7.3071,7.3037,7.2766,7.218,7.1718,7.1345,7.1041,7.0635,7.0376,7.0376,7.0376,7.0432,7.0398,7.0669,7.0838,7.0906,7.1515,7.1389,7.0554,7.0333,7.0398,7.0398,7.0376,7.0398,7.0432,7.0703,7.0872,7.0872,7.1109,7.1289,7.1289,7.1289,7.1289,7.1357,7.1695,7.1921,7.2022,7.2259,7.2496,7.2563,7.2597,7.2597,7.2597,7.2597,7.2191,7.1594,7.1695,7.1887,7.2022,7.2326,7.2597,7.2529,7.2597,7.2597,7.2563,7.2766,7.2969,7.3105,7.3612,7.4424,7.5236,7.6048,7.6758,7.7797,7.7976,7.7638,7.4109,7.4109,7.4109,7.4109,7.4086,7.4086,7.4086,7.4086,7.4086,7.4109,7.4109,7.4109,7.4086,7.4052,7.3703,7.3578,7.3781,7.3815,7.394,7.4052,7.4109,7.439,7.484,7.4897,7.5168,7.5642,7.5676,7.5676,7.5676,7.5676,7.5676,7.5676,7.5676,7.5676,7.5676,7.5676,7.5676,7.5676,7.5676,7.5676,7.5608,7.5168,7.4931,7.4864,7.439,7.4109,7.4109,7.4086,7.4007,7.3815,7.3804,7.3703,7.35,7.2992,7.2699,7.2665,7.2191,7.1887,7.1921,7.1921,7.1921,7.1887,7.1921,7.1921,7.1988,7.2394,7.2665,7.2608,7.2225,7.1921,7.1921,7.1921,7.1921,7.1921,7.1898,7.1921,7.1921,7.1887,7.1954,7.1921,7.2056,7.1921,7.1988,7.2394,7.2699,7.2766,7.3128,7.35,7.35,7.3466,7.3432,7.35,7.3466,7.3094,7.2157,7.2326,7.2665,7.2766,7.3138,7.3364,7.35,7.35,7.3466,7.3071,7.3398,7.3466,7.3341,7.3916,7.4796,7.5439,7.6487,7.7739,7.8653,7.8619,7.8653,7.5608,7.5574,7.5574,7.5506,7.5574,7.5506,7.5574,7.5439,7.5506,7.554,7.5473,7.5506,7.5574,7.5439,7.4187,7.3916,7.4492,7.4536,7.4897,7.5439,7.5506,7.5574,7.5642,7.5642,7.5642,7.5676,7.5676,7.5676,7.5676,7.5676,7.5676,7.5676,7.5676,7.5676,7.5676,7.5676,7.5676,7.5676,7.5676,7.5676,7.5676,7.5642,7.5608,7.5574,7.5574,7.5473,7.5506,7.5574,7.527,7.457,7.4559,7.4255,7.3635,7.35,7.3466,7.3398,7.3364,7.3364,7.3331,7.324,7.3297,7.3331,7.3229,7.3308,7.3172,7.3341,7.3443,7.3466,7.3443,7.3409,7.3398,7.3206,7.3206,7.3229,7.3297,7.3297,7.3331,7.3138,7.3364,7.3297,7.3195,7.3138,7.3274,7.3432,7.3466,7.3443,7.3534,7.3635,7.3737,7.3635,7.3669,7.3703,7.3669,7.35,7.3432,7.3375,7.3409,7.3544,7.3646,7.3669,7.3534,7.35,7.3567,7.3601,7.3804,7.3804,7.3635,7.4018,7.4965,7.6115,7.7942,7.916,7.9431,7.9904,7.987,7.5676,7.5676,7.5676,7.5676,7.5676,7.5676,7.5676,7.5676,7.5676,7.5676,7.5676,7.5676,7.5676,7.5676,7.5134,7.5033,7.5303,7.5303,7.5439,7.5676,7.5676,7.5676,7.5676,7.5676,7.5676,7.5676,7.5676,7.5676,7.5676,7.5676,7.5676,7.5676,7.5676,7.5676,7.5676,7.5676,7.5676,7.5676,7.5676,7.5676,7.5676,7.5676,7.5676,7.5676,7.5676,7.5676,7.5676,7.5676,7.5574,7.5303,7.5303,7.5168,7.4897,7.4458,7.3984,7.3567,7.35,7.35,7.35,7.35,7.35,7.35,7.35,7.3534,7.3567,7.3916,7.4221,7.4255,7.4661,7.4864,7.4718,7.4109,7.35,7.35,7.35,7.3567,7.35,7.35,7.35,7.35,7.35,7.35,7.368,7.3916,7.4187,7.4255,7.4593,7.4796,7.4864,7.4897,7.483,7.4864,7.4897,7.4897,7.4897,7.4458,7.4255,7.439,7.4492,7.4796,7.483,7.4728,7.4762,7.4695,7.4661,7.4728,7.4728,7.5033,7.5845,7.7063,7.8889,7.9634,8.0006,8.0141,8.0209,7.5676,7.5676,7.5676,7.5676,7.5676,7.5676,7.5676,7.5676,7.5676,7.5676,7.5676,7.5676,7.5676,7.5676,7.5676,7.5676,7.5676,7.5676,7.5676,7.5676,7.5676,7.5676,7.5676,7.5676,7.5676,7.5676,7.5676,7.5676,7.5676,7.5676,7.5676,7.5676,7.5676,7.5676,7.5676,7.5676,7.5676,7.5676,7.5676,7.5676,7.5676,7.5676,7.5676,7.5676,7.5676,7.5676,7.5676,7.5676,7.5676,7.5676,7.5676,7.5676,7.5642,7.5236,7.4728,7.4289,7.4244,7.421,7.4187,7.4187,7.4244,7.421,7.4221,7.4187,7.4255,7.4661,7.4908,7.51,7.5337,7.5676,7.5506,7.482,7.421,7.4187,7.421,7.421,7.421,7.4221,7.4255,7.4312,7.4289,7.4255,7.4255,7.4661,7.4897,7.4965,7.5405,7.5676,7.5676,7.5676,7.5676,7.5676,7.5608,7.554,7.5473,7.51,7.4931,7.5033,7.5033,7.5473,7.5676,7.5676,7.5676,7.5676,7.5743,7.5845,7.6014,7.6251,7.7029,7.8044,7.8923,7.9769,8.0006,8.0175,8.0209,7.5676,7.5676,7.5676,7.5676,7.5676,7.5676,7.5676,7.5676,7.5676,7.5676,7.5676,7.5676,7.5676,7.5676,7.5676,7.5676,7.5676,7.5676,7.5676,7.5676,7.5676,7.5676,7.5676,7.5676,7.5676,7.5676,7.5676,7.5676,7.5676,7.5676,7.5676,7.5676,7.5676,7.5676,7.5676,7.5676,7.5676,7.5676,7.5676,7.5676,7.5676,7.5676,7.5676,7.5676,7.5676,7.5676,7.5676,7.5676,7.5676,7.5676,7.5676,7.5676,7.5676,7.5608,7.5608,7.5506,7.5608,7.5608,7.5574,7.554,7.5439,7.5439,7.5574,7.5439,7.5405,7.5506,7.5574,7.5574,7.5642,7.5676,7.5676,7.554,7.5473,7.5642,7.5439,7.5439,7.554,7.5608,7.5642,7.554,7.5439,7.5642,7.5642,7.554,7.554,7.5574,7.5642,7.5676,7.5676,7.5676,7.5676,7.5676,7.5676,7.5676,7.5676,7.5676,7.5642,7.5642,7.5574,7.5676,7.5676,7.5676,7.5676,7.5709,7.6014,7.6149,7.6555,7.686,7.7705,7.8653,7.9329,7.9803,8.004,8.0209,8.0209,7.5676,7.5676,7.5676,7.5676,7.5676,7.5676,7.5676,7.5676,7.5676,7.5676,7.5676,7.5676,7.5676,7.5676,7.5676,7.5676,7.5676,7.5676,7.5676,7.5676,7.5676,7.5676,7.5676,7.5676,7.5676,7.5676,7.5676,7.5676,7.5676,7.5676,7.5676,7.5676,7.5676,7.5676,7.5676,7.5676,7.5676,7.5676,7.5676,7.5676,7.5676,7.5676,7.5676,7.5676,7.5676,7.5676,7.5676,7.5676,7.5676,7.5676,7.5676,7.5676,7.5676,7.5676,7.5676,7.5676,7.5676,7.5676,7.5676,7.5676,7.5676,7.5676,7.5676,7.5676,7.5676,7.5676,7.5676,7.5676,7.5676,7.5676,7.5676,7.5676,7.5676,7.5676,7.5676,7.5676,7.5676,7.5676,7.5676,7.5676,7.5676,7.5676,7.5676,7.5676,7.5676,7.5676,7.5676,7.5676,7.5676,7.5676,7.5676,7.5676,7.5676,7.5676,7.5676,7.5676,7.5676,7.5676,7.5676,7.5676,7.5676,7.5676,7.5676,7.5777,7.6115,7.6521,7.6961,7.7502,7.8213,7.8822,7.9329,7.9701,8.0073,8.0209,8.0209,7.5676,7.5676,7.5676,7.5676,7.5676,7.5676,7.5676,7.5676,7.5676,7.5676,7.5676,7.5676,7.5676,7.5676,7.5676,7.5676,7.5676,7.5676,7.5676,7.5676,7.5676,7.5676,7.5676,7.5676,7.5676,7.5676,7.5676,7.5676,7.5676,7.5676,7.5676,7.5676,7.5676,7.5676,7.5676,7.5676,7.5676,7.5676,7.5676,7.5676,7.5676,7.5676,7.5676,7.5676,7.5676,7.5676,7.5676,7.5676,7.5676,7.5676,7.5676,7.5676,7.5676,7.5676,7.5676,7.5676,7.5676,7.5676,7.5676,7.5676,7.5676,7.5676,7.5676,7.5676,7.5676,7.5676,7.5676,7.5676,7.5676,7.5676,7.5676,7.5676,7.5676,7.5676,7.5676,7.5676,7.5676,7.5676,7.5676,7.5676,7.5676,7.5676,7.5676,7.5676,7.5676,7.5676,7.5676,7.5676,7.5676,7.5676,7.5676,7.5676,7.5676,7.5676,7.5676,7.5676,7.5676,7.5676,7.5676,7.5676,7.5676,7.5676,7.5676,7.5743,7.5946,7.6657,7.713,7.7604,7.8213,7.872,7.9464,7.9803,8.0209,8.0209,8.0209,7.5676,7.5676,7.5676,7.5676,7.5676,7.5676,7.5676,7.5676,7.5676,7.5676,7.5676,7.5676,7.5676,7.5676,7.5676,7.5676,7.5676,7.5676,7.5676,7.5676,7.5676,7.5676,7.5676,7.5676,7.5676,7.5676,7.5676,7.5676,7.5676,7.5676,7.5676,7.5676,7.5676,7.5676,7.5676,7.5676,7.5676,7.5676,7.5676,7.5676,7.5676,7.5676,7.5676,7.5676,7.5676,7.5676,7.5676,7.5676,7.5676,7.5676,7.5676,7.5676,7.5676,7.5676,7.5676,7.5676,7.5676,7.5676,7.5676,7.5676,7.5676,7.5676,7.5676,7.5676,7.5676,7.5676,7.5676,7.5676,7.5676,7.5676,7.5676,7.5676,7.5676,7.5676,7.5676,7.5676,7.5676,7.5676,7.5676,7.5676,7.5676,7.5676,7.5676,7.5676,7.5676,7.5676,7.5676,7.5676,7.5676,7.5676,7.5676,7.5676,7.5676,7.5676,7.5676,7.5676,7.5676,7.5676,7.5676,7.5676,7.5676,7.5676,7.5676,7.5743,7.5946,7.6657,7.7367,7.7908,7.8653,7.9498,7.9972,8.0141,8.0209,8.0209,8.0209,7.5676,7.5676,7.5676,7.5676,7.5676,7.5676,7.5676,7.5676,7.5676,7.5676,7.5676,7.5676,7.5676,7.5676,7.5676,7.5676,7.5676,7.5676,7.5676,7.5676,7.5676,7.5676,7.5676,7.5676,7.5676,7.5676,7.5676,7.5676,7.5676,7.5676,7.5676,7.5676,7.5676,7.5676,7.5676,7.5676,7.5676,7.5676,7.5676,7.5676,7.5676,7.5676,7.5676,7.5676,7.5676,7.5676,7.5676,7.5676,7.5676,7.5676,7.5676,7.5676,7.5676,7.5676,7.5676,7.5676,7.5676,7.5676,7.5676,7.5676,7.5676,7.5676,7.5676,7.5676,7.5676,7.5676,7.5676,7.5676,7.5676,7.5676,7.5676,7.5676,7.5676,7.5676,7.5676,7.5676,7.5676,7.5676,7.5676,7.5676,7.5676,7.5676,7.5676,7.5676,7.5676,7.5676,7.5676,7.5676,7.5676,7.5676,7.5676,7.5676,7.5676,7.5676,7.5676,7.5676,7.5676,7.5676,7.5676,7.5676,7.5676,7.5676,7.5676,7.5709,7.6048,7.6657,7.7604,7.8348,7.9295,7.9972,8.0175,8.0209,8.0209,8.0209,8.0209,7.5676,7.5676,7.5676,7.5676,7.5676,7.5676,7.5676,7.5676,7.5676,7.5676,7.5676,7.5676,7.5676,7.5676,7.5676,7.5676,7.5676,7.5676,7.5676,7.5676,7.5676,7.5676,7.5676,7.5676,7.5676,7.5676,7.5676,7.5676,7.5676,7.5676,7.5676,7.5676,7.5676,7.5676,7.5676,7.5676,7.5676,7.5676,7.5676,7.5676,7.5676,7.5676,7.5676,7.5676,7.5676,7.5676,7.5676,7.5676,7.5676,7.5676,7.5676,7.5676,7.5676,7.5676,7.5676,7.5676,7.5676,7.5676,7.5676,7.5676,7.5676,7.5676,7.5676,7.5676,7.5676,7.5676,7.5676,7.5676,7.5676,7.5676,7.5676,7.5676,7.5676,7.5676,7.5676,7.5676,7.5676,7.5676,7.5676,7.5676,7.5676,7.5676,7.5676,7.5676,7.5676,7.5676,7.5676,7.5676,7.5676,7.5676,7.5676,7.5676,7.5676,7.5676,7.5676,7.5676,7.5676,7.5676,7.5676,7.5676,7.5676,7.5676,7.5676,7.5777,7.6183,7.6724,7.7604,7.8416,7.9025,7.9566,7.9938,8.0175,8.0175,8.0209,8.0209,7.5676,7.5676,7.5676,7.5676,7.5676,7.5676,7.5676,7.5676,7.5676,7.5676,7.5676,7.5676,7.5676,7.5676,7.5676,7.5676,7.5676,7.5676,7.5676,7.5676,7.5676,7.5676,7.5676,7.5676,7.5676,7.5676,7.5676,7.5676,7.5676,7.5676,7.5676,7.5676,7.5676,7.5676,7.5676,7.5676,7.5676,7.5676,7.5676,7.5676,7.5676,7.5676,7.5676,7.5676,7.5676,7.5676,7.5676,7.5676,7.5676,7.5676,7.5676,7.5676,7.5676,7.5676,7.5676,7.5676,7.5676,7.5676,7.5676,7.5676,7.5676,7.5676,7.5676,7.5676,7.5676,7.5676,7.5676,7.5676,7.5676,7.5676,7.5676,7.5676,7.5676,7.5676,7.5676,7.5676,7.5676,7.5676,7.5676,7.5676,7.5676,7.5676,7.5676,7.5676,7.5676,7.5676,7.5676,7.5676,7.5676,7.5676,7.5676,7.5676,7.5676,7.5676,7.5676,7.5676,7.5676,7.5676,7.5676,7.5676,7.5676,7.5676,7.5676,7.5811,7.6014,7.6555,7.7435,7.8145,7.8653,7.9261,7.9701,7.9972,8.0141,8.0175,8.0209,7.5676,7.5676,7.5676,7.5676,7.5676,7.5676,7.5676,7.5676,7.5676,7.5676,7.5676,7.5676,7.5676,7.5676,7.5676,7.5676,7.5676,7.5676,7.5676,7.5676,7.5676,7.5676,7.5676,7.5676,7.5676,7.5676,7.5676,7.5676,7.5676,7.5676,7.5676,7.5676,7.5676,7.5676,7.5676,7.5676,7.5676,7.5676,7.5676,7.5676,7.5676,7.5676,7.5676,7.5676,7.5676,7.5676,7.5676,7.5676,7.5676,7.5676,7.5676,7.5676,7.5676,7.5676,7.5676,7.5676,7.5676,7.5676,7.5676,7.5676,7.5676,7.5676,7.5676,7.5676,7.5676,7.5676,7.5676,7.5676,7.5676,7.5676,7.5676,7.5676,7.5676,7.5676,7.5676,7.5676,7.5676,7.5676,7.5676,7.5676,7.5676,7.5676,7.5676,7.5676,7.5676,7.5676,7.5676,7.5676,7.5676,7.5676,7.5676,7.5676,7.5676,7.5676,7.5676,7.5676,7.5676,7.5676,7.5676,7.5676,7.5676,7.5676,7.5676,7.5676,7.5709,7.642,7.7198,7.7367,7.7739,7.8585,7.9439,7.9735,7.9972,8.0073,8.0209,7.6927,7.6462,7.6473,7.615,7.5723,7.5676,7.5676,7.5676,7.5676,7.5676,7.5676,7.5676,7.5676,7.5676,7.5676,7.5676,7.5676,7.5676,7.5676,7.5676,7.5676,7.5676,7.5676,7.5676,7.5676,7.5676,7.5676,7.5676,7.5676,7.5676,7.5676,7.5676,7.5676,7.5676,7.5676,7.5676,7.5676,7.5676,7.5676,7.5676,7.5676,7.5676,7.5676,7.5676,7.5676,7.5676,7.5676,7.5676,7.5676,7.5676,7.5676,7.5676,7.5676,7.5676,7.5676,7.5676,7.5676,7.5676,7.5676,7.5676,7.5676,7.5676,7.5676,7.5676,7.5676,7.5676,7.5676,7.5676,7.5676,7.5676,7.5676,7.5676,7.5676,7.5676,7.5676,7.5676,7.5676,7.5676,7.5676,7.5676,7.5676,7.5676,7.5676,7.5676,7.5676,7.5676,7.5676,7.5676,7.5676,7.5676,7.5676,7.5676,7.5676,7.5676,7.5676,7.5676,7.5676,7.5676,7.5676,7.5676,7.5676,7.5676,7.5676,7.5676,7.5709,7.6149,7.6792,7.686,7.7299,7.8483,7.9304,7.96,7.9837,8.0073,8.0175,7.8432,7.7541,7.7576,7.7039,7.6266,7.6266,7.6335,7.6266,7.6196,7.6335,7.6043,7.609,7.6404,7.6067,7.6312,7.6207,7.5996,7.5973,7.6067,7.5699,7.5676,7.5676,7.5676,7.5676,7.5676,7.5676,7.5676,7.5676,7.5676,7.5676,7.5676,7.5676,7.5676,7.5676,7.5676,7.5676,7.5676,7.5676,7.5676,7.5676,7.5676,7.5676,7.5676,7.5676,7.5676,7.5676,7.5676,7.5676,7.5676,7.5676,7.5676,7.5676,7.5676,7.5676,7.5676,7.5676,7.5676,7.5676,7.5676,7.5676,7.5676,7.5676,7.5676,7.5676,7.5676,7.5676,7.5676,7.5676,7.5676,7.5676,7.5676,7.5676,7.5676,7.5676,7.5676,7.5676,7.5676,7.5676,7.5676,7.5676,7.5676,7.5676,7.5676,7.5676,7.5676,7.5676,7.5676,7.5676,7.5676,7.5676,7.5676,7.5676,7.5676,7.5676,7.5676,7.5676,7.5676,7.5676,7.5676,7.5676,7.5676,7.5676,7.5676,7.5676,7.5811,7.6183,7.6352,7.642,7.7164,7.8425,7.8991,7.9058,7.9464,8.004,8.0141,7.8882,7.872,7.872,7.8597,7.8453,7.8432,7.8328,7.8453,7.8287,7.7886,7.7204,7.7971,7.7792,7.7446,7.8098,7.7907,7.7182,7.7004,7.6668,7.609,7.5973,7.5973,7.6067,7.6137,7.5926,7.5676,7.5842,7.5949,7.5699,7.5676,7.5676,7.5676,7.5676,7.5676,7.5676,7.5676,7.5676,7.5676,7.5676,7.5676,7.5676,7.5676,7.5676,7.5676,7.5676,7.5676,7.5676,7.5676,7.5676,7.5676,7.5676,7.5676,7.5676,7.5676,7.5676,7.5676,7.5676,7.5676,7.5676,7.5676,7.5676,7.5676,7.5676,7.5676,7.5676,7.5676,7.5676,7.5676,7.5676,7.5676,7.5676,7.5676,7.5676,7.5676,7.5676,7.5676,7.5676,7.5676,7.5676,7.5676,7.5676,7.5676,7.5676,7.5676,7.5676,7.5676,7.5676,7.5676,7.5676,7.5676,7.5676,7.5676,7.5676,7.5676,7.5676,7.5676,7.5676,7.5676,7.5676,7.5676,7.5676,7.5676,7.5676,7.5676,7.5676,7.5845,7.5946,7.6048,7.6589,7.757,7.801,7.8416,7.8991,7.9532,7.9972,8.0348,7.9842,7.9842,7.9478,7.9043,7.9003,7.9003,7.9003,7.8983,7.87,7.8474,7.874,7.874,7.8432,7.8679,7.8638,7.8328,7.8182,7.7864,7.7424,7.7402,7.7402,7.7336,7.7336,7.7402,7.7446,7.7402,7.6668,7.5794,7.5676,7.5794,7.5676,7.5676,7.5676,7.5676,7.5676,7.5747,7.5747,7.5747,7.5747,7.5723,7.5723,7.5723,7.5699,7.5699,7.5676,7.5676,7.5676,7.5676,7.5676,7.5676,7.5676,7.5676,7.5676,7.5676,7.5676,7.5676,7.5676,7.5676,7.5676,7.5676,7.5676,7.5676,7.5676,7.5676,7.5676,7.5676,7.5676,7.5676,7.5676,7.5676,7.5676,7.5676,7.5676,7.5723,7.5723,7.5723,7.5747,7.5842,7.5879,7.5865,7.5865,7.5676,7.5676,7.5676,7.5676,7.5699,7.5723,7.5771,7.5676,7.5676,7.5676,7.5676,7.5676,7.5676,7.5676,7.5676,7.5676,7.5676,7.5676,7.5676,7.5676,7.5676,7.5676,7.5676,7.5676,7.5709,7.5879,7.6284,7.6657,7.7198,7.7807,7.8416,7.8991,7.9431,8.1698,8.0911,8.0911,8.044,7.9691,7.9633,7.9672,7.9633,7.9746,7.9575,7.9341,7.9591,7.9595,7.9439,7.9536,7.9595,7.9361,7.9321,7.9123,7.8801,7.8781,7.8903,7.8963,7.9003,7.8801,7.8577,7.8679,7.8077,7.6972,7.6645,7.6473,7.6622,7.6439,7.6358,7.6508,7.6736,7.6381,7.6358,7.6358,7.6358,7.6358,7.6358,7.6196,7.6043,7.602,7.5973,7.5723,7.5676,7.5676,7.5676,7.5676,7.5676,7.5676,7.5676,7.5676,7.5676,7.5676,7.5676,7.5676,7.5676,7.5676,7.5676,7.5676,7.5676,7.5676,7.5676,7.5676,7.5676,7.5676,7.5676,7.5676,7.5676,7.5865,7.6114,7.6137,7.6184,7.6531,7.6736,7.6849,7.6713,7.6358,7.6114,7.5996,7.5794,7.5794,7.609,7.6103,7.615,7.6126,7.5771,7.5709,7.5676,7.5676,7.5676,7.5676,7.5676,7.5676,7.5676,7.5676,7.5676,7.5676,7.5676,7.5676,7.5676,7.5676,7.5676,7.5676,7.5709,7.6014,7.6318,7.669,7.713,7.7739,7.8348,7.8889,8.2137,8.1985,8.1985,8.1935,8.1748,8.1698,8.1748,8.1715,8.1647,8.1247,8.0477,8.1247,8.116,8.075,8.1317,8.116,8.0677,8.0385,8.0032,7.9497,7.9361,7.9361,7.9143,7.9003,7.9361,7.9458,7.9302,7.8923,7.8536,7.8494,7.8432,7.8349,7.8245,7.8515,7.814,7.8077,7.8618,7.8556,7.8494,7.8474,7.8432,7.8391,7.7886,7.738,7.7049,7.6792,7.6219,7.6137,7.5996,7.5818,7.5747,7.5699,7.5676,7.5676,7.5676,7.5676,7.5676,7.5676,7.5676,7.5676,7.5676,7.5676,7.5676,7.5676,7.5676,7.5733,7.5733,7.5676,7.5676,7.5926,7.602,7.5818,7.6219,7.6781,7.7115,7.7606,7.8055,7.7706,7.7814,7.7963,7.7706,7.6904,7.645,7.616,7.5949,7.6289,7.6554,7.6668,7.6599,7.6335,7.6043,7.6137,7.5747,7.5676,7.5676,7.5676,7.5723,7.5723,7.5699,7.5699,7.5676,7.5676,7.5676,7.5676,7.5676,7.5676,7.5676,7.5709,7.5777,7.598,7.6318,7.6623,7.6995,7.7638,7.828,8.2186,8.2186,8.2186,8.2186,8.2186,8.2186,8.2186,8.2186,8.2186,8.1952,8.1647,8.1935,8.1919,8.1647,8.2051,8.1935,8.1542,8.1457,8.1282,8.0803,8.0695,8.0732,8.0875,8.084,8.0785,8.0659,8.0785,8.0964,8.0532,7.9611,7.9003,7.9083,7.9043,7.8903,7.9222,7.9043,7.8963,7.8943,7.8963,7.8983,7.9003,7.8983,7.8801,7.8307,7.8266,7.7886,7.7576,7.7576,7.7194,7.6837,7.6599,7.6266,7.5865,7.5676,7.5676,7.5676,7.5676,7.5676,7.5676,7.5699,7.5676,7.5676,7.5676,7.5676,7.5676,7.5794,7.6114,7.6577,7.602,7.6243,7.7039,7.6984,7.738,7.7843,7.8245,7.8577,7.8983,7.8903,7.8781,7.8943,7.9023,7.8349,7.7822,7.78,7.7714,7.7714,7.7864,7.7864,7.765,7.727,7.6994,7.6724,7.6219,7.5676,7.5676,7.5676,7.5818,7.5818,7.5771,7.5747,7.5699,7.5676,7.5676,7.5676,7.5676,7.5676,7.5676,7.5709,7.5743,7.5845,7.598,7.6217,7.6454,7.6927,7.7671,8.2186,8.2186,8.2186,8.2186,8.2186,8.2186,8.2186,8.2186,8.2186,8.2186,8.2186,8.2186,8.2186,8.2186,8.217,8.2154,8.2154,8.2186,8.2186,8.2186,8.2186,8.2051,8.1935,8.2035,8.2035,8.2186,8.1866,8.1935,8.1542,8.084,8.0032,7.9823,8.0126,7.9994,7.9899,8.0013,8.0088,8.0088,8.0051,8.0032,7.9958,7.9956,7.9746,7.9419,7.9143,7.8862,7.8597,7.8034,7.7424,7.7016,7.7071,7.6814,7.6358,7.6622,7.6792,7.6837,7.6859,7.6814,7.6554,7.6266,7.5818,7.5771,7.6137,7.6427,7.6736,7.6565,7.6736,7.7693,7.7226,7.7684,7.8328,7.8154,7.8494,7.8923,7.938,7.9536,7.9746,7.9937,8.0144,8.0422,8.0459,8.0219,7.9844,7.9806,7.9652,7.938,7.9242,7.9103,7.872,7.8231,7.7992,7.7714,7.7424,7.6904,7.6814,7.6645,7.6416,7.6126,7.6137,7.5865,7.5842,7.5747,7.5676,7.5676,7.5676,7.5676,7.5676,7.5676,7.5709,7.5777,7.5811,7.5743,7.598,7.6454,7.6995,8.2186,8.2186,8.2186,8.2186,8.2186,8.2186,8.2186,8.2186,8.2186,8.2186,8.2186,8.2186,8.2186,8.2186,8.2186,8.2186,8.2186,8.2186,8.2186,8.2186,8.2186,8.2186,8.2186,8.2186,8.2186,8.2186,8.2186,8.2186,8.2154,8.1832,8.1698,8.1952,8.1439,8.1748,8.1731,8.1422,8.1474,8.1491,8.1491,8.1576,8.161,8.1559,8.1282,8.044,7.9536,7.8591,7.7611,7.7336,7.6937,7.6747,7.7389,7.7563,7.7446,7.7864,7.814,7.8182,7.8203,7.8203,7.7992,7.6994,7.5973,7.6067,7.6679,7.7589,7.8112,7.8556,7.8801,7.8761,7.837,7.8679,7.9003,7.9023,7.94,8.0069,8.055,8.075,8.1,8.1334,8.1576,8.1885,8.1731,8.1282,8.1212,8.1018,8.084,8.0532,8.0163,8.0013,7.9652,7.9262,7.9043,7.8862,7.8761,7.8577,7.8618,7.8328,7.7714,7.7358,7.7226,7.6599,7.6043,7.5926,7.6067,7.5676,7.5676,7.5676,7.5676,7.5676,7.5676,7.5676,7.5676,7.5676,7.5811,7.6217,7.6589,8.2186,8.2186,8.2186,8.2186,8.2186,8.2186,8.2186,8.2186,8.2186,8.2186,8.2186,8.2186,8.2186,8.2186,8.2186,8.2186,8.2186,8.2186,8.2186,8.2186,8.2186,8.2186,8.2186,8.2186,8.2186,8.2186,8.2186,8.2186,8.2186,8.2186,8.2186,8.2186,8.2186,8.217,8.217,8.2186,8.2186,8.2186,8.2186,8.2186,8.2186,8.2186,8.1985,8.1613,8.1334,8.0822,8.044,8.0032,7.9364,7.8867,7.9023,7.8766,7.8459,7.8943,7.9143,7.9203,7.9222,7.9203,7.9123,7.8224,7.7757,7.7792,7.8196,7.8632,7.9183,7.9083,7.9439,7.9497,7.9458,7.9556,8.0768,8.0459,8.0366,8.1195,8.1664,8.1799,8.1952,8.2137,8.2186,8.2104,8.2121,8.1969,8.1985,8.2035,8.1832,8.163,8.123,8.0875,8.055,8.0275,8.0088,7.988,7.9729,7.9478,7.9458,7.9183,7.8903,7.8618,7.8293,7.7628,7.6972,7.6747,7.6724,7.6219,7.5699,7.5676,7.5676,7.5676,7.5676,7.5676,7.5676,7.5676,7.5845,7.6014,7.6284,8.2186,8.2186,8.2186,8.2186,8.2186,8.2186,8.2186,8.2186,8.2186,8.2186,8.2186,8.2186,8.2186,8.2186,8.2186,8.2186,8.2186,8.2186,8.2186,8.2186,8.2186,8.2186,8.2186,8.2186,8.2186,8.2186,8.2186,8.2186,8.2186,8.2186,8.2186,8.2186,8.2186,8.2186,8.2186,8.2186,8.2186,8.2186,8.2186,8.2186,8.2186,8.2186,8.2186,8.2002,8.1681,8.1388,8.1072,8.0605,8.0219,7.9994,8.0032,8.0069,7.9861,7.9729,7.9937,7.9956,7.9937,7.9882,7.9825,7.9262,7.9222,7.9262,7.938,7.9669,7.9861,7.9956,8.0587,8.0875,8.0477,8.0568,8.217,8.1491,8.1212,8.1885,8.1935,8.2051,8.2051,8.2186,8.2186,8.217,8.2186,8.2186,8.2186,8.2186,8.2121,8.1969,8.1782,8.1576,8.1542,8.1299,8.116,8.0911,8.0677,8.0385,8.0051,8.0219,8.0275,7.9652,7.9321,7.8822,7.8287,7.7928,7.7358,7.6724,7.6243,7.5865,7.5676,7.5676,7.5676,7.5676,7.5676,7.5676,7.5709,7.5879,7.598,8.2186,8.2186,8.2186,8.2186,8.2186,8.2186,8.2186,8.2186,8.2186,8.2186,8.2186,8.2186,8.2186,8.2186,8.2186,8.2186,8.2186,8.2186,8.2186,8.2186,8.2186,8.2186,8.2186,8.2186,8.2186,8.2186,8.2186,8.2186,8.2186,8.2186,8.2186,8.2186,8.2186,8.2186,8.2186,8.2186,8.2186,8.2186,8.2186,8.2186,8.2186,8.2186,8.2186,8.2018,8.1559,8.1264,8.116,8.0677,8.0275,8.0144,8.0587,8.0714,8.0641,8.1299,8.1664,8.1731,8.1799,8.1866,8.1919,8.0126,7.9899,8.044,8.0568,8.0857,8.1698,8.1952,8.1748,8.1731,8.1715,8.1799,8.217,8.2137,8.2121,8.2137,8.217,8.2186,8.2186,8.2186,8.2186,8.2186,8.2186,8.2186,8.2186,8.2186,8.2186,8.2154,8.217,8.2186,8.217,8.2035,8.1765,8.1664,8.1405,8.1317,8.1177,8.1664,8.161,8.0947,8.0385,7.9937,7.9262,7.8623,7.8013,7.7314,7.6701,7.6219,7.5902,7.5676,7.5676,7.5676,7.5676,7.5676,7.5676,7.5709,7.5845,8.2186,8.2186,8.2186,8.2186,8.2186,8.2186,8.2186,8.2186,8.2186,8.2186,8.2186,8.2186,8.2186,8.2186,8.2186,8.2186,8.2186,8.2186,8.2186,8.2186,8.2186,8.2186,8.2186,8.2186,8.2186,8.2186,8.2186,8.2186,8.2186,8.2186,8.2186,8.2186,8.2186,8.2186,8.2186,8.2186,8.2186,8.2186,8.2186,8.2186,8.2186,8.2186,8.2186,8.2186,8.1748,8.1559,8.1562,8.0964,8.0875,8.0857,8.1439,8.1491,8.1525,8.2154,8.217,8.2186,8.2186,8.2186,8.2154,8.1422,8.1317,8.1525,8.163,8.1731,8.217,8.2186,8.2186,8.2186,8.2186,8.2186,8.217,8.217,8.217,8.217,8.2186,8.2186,8.2186,8.2186,8.2186,8.2186,8.2186,8.2186,8.2186,8.2186,8.2186,8.2186,8.2186,8.2186,8.217,8.217,8.2018,8.2035,8.1969,8.2051,8.2186,8.2186,8.2186,8.161,8.1317,8.1142,8.0386,7.9536,7.8685,7.8013,7.727,7.6599,7.6266,7.5973,7.5747,7.5676,7.5676,7.5676,7.5676,7.5676,7.5709,8.2186,8.2186,8.2186,8.2186,8.2186,8.2186,8.2186,8.2186,8.2186,8.2186,8.2186,8.2186,8.2186,8.2186,8.2186,8.2186,8.2186,8.2186,8.2186,8.2186,8.2186,8.2186,8.2186,8.2186,8.2186,8.2186,8.2186,8.2186,8.2186,8.2186,8.2186,8.2186,8.2186,8.2186,8.2186,8.2186,8.2186,8.2186,8.2186,8.2186,8.2186,8.2186,8.2186,8.2186,8.2137,8.2137,8.217,8.2186,8.2186,8.2186,8.2186,8.2186,8.2186,8.2186,8.2186,8.2186,8.2186,8.2186,8.2154,8.2137,8.1969,8.2051,8.2186,8.2186,8.2186,8.2186,8.2186,8.2186,8.2186,8.2186,8.2186,8.2186,8.2186,8.2186,8.2186,8.2186,8.2186,8.2186,8.2186,8.2186,8.2186,8.2186,8.2186,8.2186,8.2186,8.2186,8.2186,8.2186,8.2186,8.2186,8.2186,8.2186,8.2186,8.2186,8.2186,8.2186,8.2186,8.2186,8.2002,8.1799,8.1405,8.0514,7.9595,7.8766,7.8245,7.7563,7.6724,7.6312,7.6289,7.602,7.5676,7.5676,7.5676,7.5676,7.5676,8.2186,8.2186,8.2186,8.2186,8.2186,8.2186,8.2186,8.2186,8.2186,8.2186,8.2186,8.2186,8.2186,8.2186,8.2186,8.2186,8.2186,8.2186,8.2186,8.2186,8.2186,8.2186,8.2186,8.2186,8.2186,8.2186,8.2186,8.2186,8.2186,8.2186,8.2186,8.2186,8.2186,8.2186,8.2186,8.2186,8.2186,8.2186,8.2186,8.2186,8.2186,8.2186,8.2186,8.2186,8.2186,8.2186,8.2186,8.2186,8.2186,8.2186,8.2186,8.2186,8.2186,8.2186,8.2186,8.2186,8.2186,8.2186,8.2186,8.2186,8.2186,8.2186,8.2186,8.2186,8.2186,8.2186,8.2186,8.2186,8.2186,8.2186,8.2186,8.2186,8.2186,8.2186,8.2186,8.2186,8.2186,8.2186,8.2186,8.2186,8.2186,8.2186,8.2186,8.2186,8.2186,8.2186,8.2186,8.2186,8.2186,8.2186,8.2186,8.2186,8.2186,8.2186,8.2186,8.2186,8.2186,8.2186,8.2186,8.2002,8.1698,8.1388,8.0587,7.9825,7.9341,7.8659,7.7714,7.7226,7.7026,7.6701,7.6622,7.5926,7.602,7.5747,7.5676,8.2186,8.2186,8.2186,8.2186,8.2186,8.2186,8.2186,8.2186,8.2186,8.2186,8.2186,8.2186,8.2186,8.2186,8.2186,8.2186,8.2186,8.2186,8.2186,8.2186,8.2186,8.2186,8.2186,8.2186,8.2186,8.2186,8.2186,8.2186,8.2186,8.2186,8.2186,8.2186,8.2186,8.2186,8.2186,8.2186,8.2186,8.2186,8.2186,8.2186,8.2186,8.2186,8.2186,8.2186,8.2186,8.2186,8.2186,8.2186,8.2186,8.2186,8.2186,8.2186,8.2186,8.2186,8.2186,8.2186,8.2186,8.2186,8.2186,8.2186,8.2186,8.2186,8.2186,8.2186,8.2186,8.2186,8.2186,8.2186,8.2186,8.2186,8.2186,8.2186,8.2186,8.2186,8.2186,8.2186,8.2186,8.2186,8.2186,8.2186,8.2186,8.2186,8.2186,8.2186,8.2186,8.2186,8.2186,8.2186,8.2186,8.2186,8.2186,8.2186,8.2186,8.2186,8.2186,8.2186,8.2186,8.2186,8.2186,8.2186,8.2018,8.1715,8.1336,8.0804,8.0163,7.9458,7.87,7.837,7.8203,7.8287,7.8119,7.7128,7.6312,7.6126,7.5818,8.2186,8.2186,8.2186,8.2186,8.2186,8.2186,8.2186,8.2186,8.2186,8.2186,8.2186,8.2186,8.2186,8.2186,8.2186,8.2186,8.2186,8.2186,8.2186,8.2186,8.2186,8.2186,8.2186,8.2186,8.2186,8.2186,8.2186,8.2186,8.2186,8.2186,8.2186,8.2186,8.2186,8.2186,8.2186,8.2186,8.2186,8.2186,8.2186,8.2186,8.2186,8.2186,8.2186,8.2186,8.2186,8.2186,8.2186,8.2186,8.2186,8.2186,8.2186,8.2186,8.2186,8.2186,8.2186,8.2186,8.2186,8.2186,8.2186,8.2186,8.2186,8.2186,8.2186,8.2186,8.2186,8.2186,8.2186,8.2186,8.2186,8.2186,8.2186,8.2186,8.2186,8.2186,8.2186,8.2186,8.2186,8.2186,8.2186,8.2186,8.2186,8.2186,8.2186,8.2186,8.2186,8.2186,8.2186,8.2186,8.2186,8.2186,8.2186,8.2186,8.2186,8.2186,8.2186,8.2186,8.2186,8.2186,8.2186,8.2186,8.2186,8.2068,8.1748,8.137,8.0893,8.0256,7.9729,7.965,7.9533,7.9514,7.9203,7.8349,7.7446,7.6949,7.6508,8.2406,8.2443,8.2333,8.2406,8.237,8.2406,8.2333,8.2296,8.237,8.226,8.2223,8.2186,8.2186,8.2186,8.2186,8.2186,8.2186,8.2186,8.2186,8.2186,8.2186,8.2186,8.2186,8.2186,8.2186,8.2186,8.2186,8.2186,8.2186,8.2186,8.2186,8.2186,8.2186,8.2186,8.2186,8.2186,8.2186,8.2186,8.2186,8.2186,8.2186,8.2186,8.2186,8.2186,8.2186,8.2186,8.2186,8.2186,8.2186,8.2186,8.2186,8.2186,8.2186,8.2186,8.2186,8.2186,8.2186,8.2186,8.2186,8.2186,8.2186,8.2186,8.2186,8.2186,8.2186,8.2186,8.2186,8.2186,8.2186,8.2186,8.2186,8.2186,8.2186,8.2186,8.2186,8.2186,8.2186,8.2186,8.2186,8.2186,8.2186,8.2186,8.2186,8.2186,8.2186,8.2186,8.2186,8.2186,8.2186,8.2186,8.2186,8.2186,8.2186,8.2186,8.2186,8.2186,8.2186,8.2186,8.2186,8.2186,8.2186,8.2186,8.2186,8.1799,8.1439,8.1299,8.0964,8.0587,8.0236,8.0107,7.9804,7.9341,7.87,7.8034,7.7292,8.4022,8.3948,8.3361,8.3471,8.3911,8.3361,8.3141,8.3087,8.3124,8.2774,8.226,8.2186,8.2186,8.2186,8.226,8.2296,8.226,8.248,8.2223,8.226,8.2296,8.237,8.226,8.2333,8.226,8.2186,8.2186,8.2296,8.2333,8.2296,8.226,8.226,8.2296,8.2296,8.2296,8.2296,8.2186,8.2186,8.2186,8.2186,8.2186,8.2186,8.2186,8.2186,8.2186,8.2186,8.2186,8.2186,8.2186,8.2186,8.2186,8.2186,8.2186,8.2186,8.2186,8.2186,8.2186,8.2186,8.2186,8.2186,8.2186,8.2186,8.2186,8.2186,8.2186,8.2186,8.2186,8.2186,8.2186,8.2186,8.2186,8.2186,8.2186,8.2186,8.2186,8.2186,8.2186,8.2186,8.2186,8.2186,8.2186,8.2186,8.2186,8.2186,8.2186,8.2186,8.2186,8.2186,8.2186,8.2186,8.2186,8.2186,8.2186,8.2186,8.2186,8.2186,8.2186,8.2186,8.2186,8.2186,8.2186,8.2186,8.2186,8.2186,8.2002,8.1593,8.1195,8.0893,8.0605,8.0348,8.0107,7.9536,7.9595,7.9163,7.8293,8.4609,8.4535,8.4132,8.3968,8.4022,8.3931,8.3931,8.3858,8.3564,8.3161,8.27,8.237,8.2186,8.2333,8.2553,8.2663,8.2774,8.3141,8.3067,8.2884,8.2737,8.2774,8.2737,8.2737,8.2774,8.2737,8.2737,8.2774,8.2774,8.3214,8.3361,8.3141,8.2994,8.27,8.2663,8.248,8.2223,8.2186,8.2223,8.2186,8.2186,8.2186,8.2186,8.2186,8.2186,8.2186,8.2186,8.2186,8.2186,8.2186,8.2186,8.2186,8.2186,8.2186,8.2186,8.2186,8.2186,8.2186,8.2186,8.2186,8.2186,8.2186,8.2186,8.2186,8.2186,8.2186,8.2186,8.2186,8.2186,8.2186,8.2186,8.2186,8.2186,8.2186,8.2186,8.2186,8.2186,8.2186,8.2186,8.2186,8.2186,8.2186,8.2186,8.2186,8.2186,8.2186,8.2186,8.2186,8.2186,8.2186,8.2186,8.2186,8.2186,8.2186,8.2186,8.2186,8.2186,8.2186,8.2186,8.2186,8.2186,8.2186,8.2186,8.217,8.1919,8.137,8.1018,8.0714,8.02,7.9765,7.971,7.9652,7.9787,7.971,7.8562,8.4976,8.4903,8.4792,8.4462,8.4005,8.4462,8.4756,8.4646,8.4058,8.3675,8.3491,8.2884,8.248,8.248,8.283,8.3161,8.3418,8.3581,8.3638,8.3675,8.3581,8.3544,8.3544,8.3564,8.3564,8.3581,8.3564,8.3528,8.3581,8.3985,8.4242,8.4389,8.4058,8.3528,8.3324,8.2884,8.2443,8.2443,8.237,8.2223,8.2186,8.2186,8.2186,8.2186,8.2186,8.2186,8.2186,8.2186,8.2186,8.2186,8.2186,8.2186,8.2186,8.2186,8.2186,8.2186,8.2186,8.2186,8.2186,8.2186,8.2186,8.2186,8.2186,8.2186,8.2186,8.2186,8.2186,8.2186,8.2186,8.2186,8.2186,8.2186,8.2186,8.2186,8.2186,8.2186,8.2186,8.2186,8.2186,8.2186,8.2186,8.2186,8.2186,8.2186,8.2186,8.2186,8.2186,8.2186,8.2186,8.2186,8.2186,8.2186,8.2186,8.2186,8.2186,8.2186,8.2186,8.2186,8.2186,8.2186,8.2186,8.2186,8.217,8.2104,8.1748,8.1422,8.0732,8.0255,7.9746,7.94,7.8882,7.8847,7.9282,7.9043,7.8126,8.6537,8.6518,8.5857,8.582,8.6133,8.5783,8.5563,8.5563,8.538,8.5013,8.4425,8.4168,8.3544,8.2223,8.2296,8.2847,8.3821,8.4058,8.4242,8.4315,8.4352,8.4389,8.4389,8.4389,8.4389,8.4389,8.4389,8.4389,8.4462,8.4609,8.4646,8.4719,8.4646,8.4352,8.4242,8.3691,8.3124,8.303,8.259,8.2333,8.226,8.2223,8.2186,8.2186,8.2186,8.2186,8.2186,8.2186,8.2186,8.2186,8.2186,8.2186,8.2186,8.2186,8.2186,8.2186,8.2186,8.2186,8.2186,8.2186,8.2186,8.2186,8.2186,8.2186,8.2186,8.2186,8.2186,8.2186,8.2186,8.2186,8.2186,8.2186,8.2186,8.2186,8.2186,8.2186,8.2186,8.2186,8.2186,8.2186,8.2186,8.2186,8.2186,8.2186,8.2186,8.2186,8.2186,8.2186,8.2186,8.2186,8.2186,8.2186,8.2186,8.2186,8.2186,8.2186,8.2186,8.2186,8.2186,8.2186,8.2186,8.2186,8.2154,8.2121,8.2055,8.1782,8.1018,8.0013,7.9842,7.9419,7.8224,7.7864,7.8391,7.837,7.7511]}]]